<?xml version="1.0" encoding="UTF-8" standalone="no" ?>
<gpx xmlns="http://www.topografix.com/GPX/1/1" xmlns:xsi="http://www.w3.org/2001/XMLSchema-instance" xsi:schemaLocation="http://www.topografix.com/GPX/1/1 http://www.topografix.com/GPX/1/1/gpx.xsd" version="1.1" creator="VisuGPX - https://www.visugpx.com">
  <metadata>
    <name> Départ de la Chapelle de Saint-Germain à Cesseras... pour fêter le Rois</name>
    <desc><![CDATA[ Le « sentier des chapelles», long d'environ 14 kilomètres, permet de découvrir un des plus beau vignoble du Minervois  et de visiter plusieurs lieux historiques.  << on apprend beaucoup quand ce n'est plus nécessaire>>... Il y a aussi la terre et le vent avec comme transition des mélanges hétérogènes.  Depuis Saint-Germain jusqu'à Centeilles  le chemin est orné de vignes et de bois de pins, de mottes de terre; de pierres et de roseaux qui se brisent dans les vitres des ruisseaux.
Photos : http://vttolonzac.blogspot.fr/2015/01/depart-de-la-chapelle-de-saint-germain.html]]></desc>
  </metadata>
  <trk>
    <name><![CDATA[12-JAN-15 17:25:17]]></name>
    <trkseg>
      <trkpt lat="43.32452" lon="2.69419">
        <ele>88.1</ele>
        <time>2015-01-12T12:52:28Z</time>
      </trkpt>
      <trkpt lat="43.32453" lon="2.69419">
        <ele>88.1</ele>
        <time>2015-01-12T12:52:29Z</time>
      </trkpt>
      <trkpt lat="43.32438" lon="2.69405">
        <ele>83.77</ele>
        <time>2015-01-12T12:52:34Z</time>
      </trkpt>
      <trkpt lat="43.32437" lon="2.69403">
        <ele>88.58</ele>
        <time>2015-01-12T12:52:35Z</time>
      </trkpt>
      <trkpt lat="43.32431" lon="2.69395">
        <ele>83.77</ele>
        <time>2015-01-12T12:52:42Z</time>
      </trkpt>
      <trkpt lat="43.32431" lon="2.69394">
        <ele>89.06</ele>
        <time>2015-01-12T12:52:43Z</time>
      </trkpt>
      <trkpt lat="43.3243" lon="2.69393">
        <ele>87.14</ele>
        <time>2015-01-12T12:52:46Z</time>
      </trkpt>
      <trkpt lat="43.32426" lon="2.69385">
        <ele>88.58</ele>
        <time>2015-01-12T12:53:02Z</time>
      </trkpt>
      <trkpt lat="43.32427" lon="2.6938">
        <ele>89.06</ele>
        <time>2015-01-12T12:53:11Z</time>
      </trkpt>
      <trkpt lat="43.32427" lon="2.69374">
        <ele>89.06</ele>
        <time>2015-01-12T12:53:16Z</time>
      </trkpt>
      <trkpt lat="43.32429" lon="2.69369">
        <ele>89.54</ele>
        <time>2015-01-12T12:53:22Z</time>
      </trkpt>
      <trkpt lat="43.32413" lon="2.6936">
        <ele>88.58</ele>
        <time>2015-01-12T12:53:32Z</time>
      </trkpt>
      <trkpt lat="43.32406" lon="2.69351">
        <ele>88.58</ele>
        <time>2015-01-12T12:53:46Z</time>
      </trkpt>
      <trkpt lat="43.32396" lon="2.69342">
        <ele>89.06</ele>
        <time>2015-01-12T12:53:56Z</time>
      </trkpt>
      <trkpt lat="43.32392" lon="2.69341">
        <ele>94.83</ele>
        <time>2015-01-12T12:53:59Z</time>
      </trkpt>
      <trkpt lat="43.3239" lon="2.6934">
        <ele>98.67</ele>
        <time>2015-01-12T12:54:01Z</time>
      </trkpt>
      <trkpt lat="43.32394" lon="2.69346">
        <ele>102.52</ele>
        <time>2015-01-12T12:54:03Z</time>
      </trkpt>
      <trkpt lat="43.32397" lon="2.69348">
        <ele>105.88</ele>
        <time>2015-01-12T12:54:05Z</time>
      </trkpt>
      <trkpt lat="43.32395" lon="2.69347">
        <ele>109.73</ele>
        <time>2015-01-12T12:54:08Z</time>
      </trkpt>
      <trkpt lat="43.32394" lon="2.69345">
        <ele>113.57</ele>
        <time>2015-01-12T12:54:11Z</time>
      </trkpt>
      <trkpt lat="43.32392" lon="2.69341">
        <ele>116.94</ele>
        <time>2015-01-12T12:54:14Z</time>
      </trkpt>
      <trkpt lat="43.3239" lon="2.69335">
        <ele>120.78</ele>
        <time>2015-01-12T12:54:18Z</time>
      </trkpt>
      <trkpt lat="43.32387" lon="2.69328">
        <ele>124.15</ele>
        <time>2015-01-12T12:54:23Z</time>
      </trkpt>
      <trkpt lat="43.32385" lon="2.69324">
        <ele>125.11</ele>
        <time>2015-01-12T12:54:26Z</time>
      </trkpt>
      <trkpt lat="43.3238" lon="2.69309">
        <ele>128.47</ele>
        <time>2015-01-12T12:54:36Z</time>
      </trkpt>
      <trkpt lat="43.32377" lon="2.69303">
        <ele>128.95</ele>
        <time>2015-01-12T12:54:40Z</time>
      </trkpt>
      <trkpt lat="43.32369" lon="2.69286">
        <ele>130.4</ele>
        <time>2015-01-12T12:54:52Z</time>
      </trkpt>
      <trkpt lat="43.32357" lon="2.69273">
        <ele>129.92</ele>
        <time>2015-01-12T12:55:04Z</time>
      </trkpt>
      <trkpt lat="43.32344" lon="2.69256">
        <ele>129.43</ele>
        <time>2015-01-12T12:55:18Z</time>
      </trkpt>
      <trkpt lat="43.32333" lon="2.69241">
        <ele>129.43</ele>
        <time>2015-01-12T12:55:30Z</time>
      </trkpt>
      <trkpt lat="43.32319" lon="2.69237">
        <ele>128.95</ele>
        <time>2015-01-12T12:55:44Z</time>
      </trkpt>
      <trkpt lat="43.32305" lon="2.69232">
        <ele>129.43</ele>
        <time>2015-01-12T12:55:55Z</time>
      </trkpt>
      <trkpt lat="43.32292" lon="2.69229">
        <ele>129.43</ele>
        <time>2015-01-12T12:56:06Z</time>
      </trkpt>
      <trkpt lat="43.32278" lon="2.69227">
        <ele>129.43</ele>
        <time>2015-01-12T12:56:18Z</time>
      </trkpt>
      <trkpt lat="43.3227" lon="2.69226">
        <ele>128.47</ele>
        <time>2015-01-12T12:56:31Z</time>
      </trkpt>
      <trkpt lat="43.32267" lon="2.69225">
        <ele>128.95</ele>
        <time>2015-01-12T12:56:34Z</time>
      </trkpt>
      <trkpt lat="43.32263" lon="2.69223">
        <ele>128.47</ele>
        <time>2015-01-12T12:56:37Z</time>
      </trkpt>
      <trkpt lat="43.32257" lon="2.69222">
        <ele>127.99</ele>
        <time>2015-01-12T12:56:41Z</time>
      </trkpt>
      <trkpt lat="43.32251" lon="2.6922">
        <ele>127.51</ele>
        <time>2015-01-12T12:56:45Z</time>
      </trkpt>
      <trkpt lat="43.32239" lon="2.69216">
        <ele>126.55</ele>
        <time>2015-01-12T12:56:54Z</time>
      </trkpt>
      <trkpt lat="43.32235" lon="2.69215">
        <ele>126.07</ele>
        <time>2015-01-12T12:56:57Z</time>
      </trkpt>
      <trkpt lat="43.32227" lon="2.69213">
        <ele>125.59</ele>
        <time>2015-01-12T12:57:02Z</time>
      </trkpt>
      <trkpt lat="43.32213" lon="2.69211">
        <ele>124.63</ele>
        <time>2015-01-12T12:57:12Z</time>
      </trkpt>
      <trkpt lat="43.32203" lon="2.69206">
        <ele>123.19</ele>
        <time>2015-01-12T12:57:22Z</time>
      </trkpt>
      <trkpt lat="43.32194" lon="2.69207">
        <ele>122.71</ele>
        <time>2015-01-12T12:57:29Z</time>
      </trkpt>
      <trkpt lat="43.32188" lon="2.69207">
        <ele>122.22</ele>
        <time>2015-01-12T12:57:39Z</time>
      </trkpt>
      <trkpt lat="43.32177" lon="2.69208">
        <ele>120.3</ele>
        <time>2015-01-12T12:57:44Z</time>
      </trkpt>
      <trkpt lat="43.32163" lon="2.69204">
        <ele>120.78</ele>
        <time>2015-01-12T12:57:51Z</time>
      </trkpt>
      <trkpt lat="43.32149" lon="2.69204">
        <ele>120.3</ele>
        <time>2015-01-12T12:58:01Z</time>
      </trkpt>
      <trkpt lat="43.32147" lon="2.69204">
        <ele>120.3</ele>
        <time>2015-01-12T12:58:04Z</time>
      </trkpt>
      <trkpt lat="43.32141" lon="2.69205">
        <ele>120.3</ele>
        <time>2015-01-12T12:58:11Z</time>
      </trkpt>
      <trkpt lat="43.32138" lon="2.69205">
        <ele>120.78</ele>
        <time>2015-01-12T12:58:15Z</time>
      </trkpt>
      <trkpt lat="43.32136" lon="2.69204">
        <ele>120.78</ele>
        <time>2015-01-12T12:58:17Z</time>
      </trkpt>
      <trkpt lat="43.32131" lon="2.69204">
        <ele>120.78</ele>
        <time>2015-01-12T12:58:20Z</time>
      </trkpt>
      <trkpt lat="43.32118" lon="2.69203">
        <ele>120.3</ele>
        <time>2015-01-12T12:58:30Z</time>
      </trkpt>
      <trkpt lat="43.32113" lon="2.69203">
        <ele>120.78</ele>
        <time>2015-01-12T12:58:33Z</time>
      </trkpt>
      <trkpt lat="43.32109" lon="2.69203">
        <ele>120.78</ele>
        <time>2015-01-12T12:58:37Z</time>
      </trkpt>
      <trkpt lat="43.32096" lon="2.69202">
        <ele>121.26</ele>
        <time>2015-01-12T12:58:47Z</time>
      </trkpt>
      <trkpt lat="43.32093" lon="2.69202">
        <ele>121.26</ele>
        <time>2015-01-12T12:58:50Z</time>
      </trkpt>
      <trkpt lat="43.32077" lon="2.69202">
        <ele>122.22</ele>
        <time>2015-01-12T12:59:03Z</time>
      </trkpt>
      <trkpt lat="43.32062" lon="2.69202">
        <ele>123.19</ele>
        <time>2015-01-12T12:59:15Z</time>
      </trkpt>
      <trkpt lat="43.32061" lon="2.69201">
        <ele>123.19</ele>
        <time>2015-01-12T12:59:16Z</time>
      </trkpt>
      <trkpt lat="43.32059" lon="2.69199">
        <ele>123.19</ele>
        <time>2015-01-12T12:59:20Z</time>
      </trkpt>
      <trkpt lat="43.32061" lon="2.69198">
        <ele>123.19</ele>
        <time>2015-01-12T12:59:22Z</time>
      </trkpt>
      <trkpt lat="43.32064" lon="2.69199">
        <ele>122.71</ele>
        <time>2015-01-12T12:59:33Z</time>
      </trkpt>
      <trkpt lat="43.32061" lon="2.69193">
        <ele>123.19</ele>
        <time>2015-01-12T12:59:39Z</time>
      </trkpt>
      <trkpt lat="43.32061" lon="2.69185">
        <ele>123.19</ele>
        <time>2015-01-12T12:59:44Z</time>
      </trkpt>
      <trkpt lat="43.32067" lon="2.69172">
        <ele>123.19</ele>
        <time>2015-01-12T12:59:55Z</time>
      </trkpt>
      <trkpt lat="43.32079" lon="2.69164">
        <ele>123.19</ele>
        <time>2015-01-12T13:00:05Z</time>
      </trkpt>
      <trkpt lat="43.3208" lon="2.69162">
        <ele>122.71</ele>
        <time>2015-01-12T13:00:07Z</time>
      </trkpt>
      <trkpt lat="43.32085" lon="2.69159">
        <ele>122.71</ele>
        <time>2015-01-12T13:00:11Z</time>
      </trkpt>
      <trkpt lat="43.32101" lon="2.69144">
        <ele>121.26</ele>
        <time>2015-01-12T13:00:22Z</time>
      </trkpt>
      <trkpt lat="43.32102" lon="2.69143">
        <ele>121.74</ele>
        <time>2015-01-12T13:00:23Z</time>
      </trkpt>
      <trkpt lat="43.32106" lon="2.6914">
        <ele>122.22</ele>
        <time>2015-01-12T13:00:26Z</time>
      </trkpt>
      <trkpt lat="43.32116" lon="2.69128">
        <ele>121.74</ele>
        <time>2015-01-12T13:00:38Z</time>
      </trkpt>
      <trkpt lat="43.32122" lon="2.69116">
        <ele>122.22</ele>
        <time>2015-01-12T13:00:51Z</time>
      </trkpt>
      <trkpt lat="43.32126" lon="2.69102">
        <ele>123.67</ele>
        <time>2015-01-12T13:01:03Z</time>
      </trkpt>
      <trkpt lat="43.32126" lon="2.69098">
        <ele>123.67</ele>
        <time>2015-01-12T13:01:06Z</time>
      </trkpt>
      <trkpt lat="43.32127" lon="2.6908">
        <ele>123.67</ele>
        <time>2015-01-12T13:01:19Z</time>
      </trkpt>
      <trkpt lat="43.32128" lon="2.6907">
        <ele>123.67</ele>
        <time>2015-01-12T13:01:26Z</time>
      </trkpt>
      <trkpt lat="43.32128" lon="2.69067">
        <ele>124.15</ele>
        <time>2015-01-12T13:01:28Z</time>
      </trkpt>
      <trkpt lat="43.32129" lon="2.69057">
        <ele>123.67</ele>
        <time>2015-01-12T13:01:34Z</time>
      </trkpt>
      <trkpt lat="43.32129" lon="2.69054">
        <ele>124.15</ele>
        <time>2015-01-12T13:01:36Z</time>
      </trkpt>
      <trkpt lat="43.3213" lon="2.69047">
        <ele>124.15</ele>
        <time>2015-01-12T13:01:41Z</time>
      </trkpt>
      <trkpt lat="43.32129" lon="2.69033">
        <ele>125.11</ele>
        <time>2015-01-12T13:01:51Z</time>
      </trkpt>
      <trkpt lat="43.32128" lon="2.69023">
        <ele>125.11</ele>
        <time>2015-01-12T13:01:56Z</time>
      </trkpt>
      <trkpt lat="43.32128" lon="2.69004">
        <ele>125.11</ele>
        <time>2015-01-12T13:02:06Z</time>
      </trkpt>
      <trkpt lat="43.32127" lon="2.69003">
        <ele>125.11</ele>
        <time>2015-01-12T13:02:07Z</time>
      </trkpt>
      <trkpt lat="43.32127" lon="2.68999">
        <ele>125.59</ele>
        <time>2015-01-12T13:02:10Z</time>
      </trkpt>
      <trkpt lat="43.32125" lon="2.6899">
        <ele>125.11</ele>
        <time>2015-01-12T13:02:14Z</time>
      </trkpt>
      <trkpt lat="43.32126" lon="2.68976">
        <ele>125.59</ele>
        <time>2015-01-12T13:02:21Z</time>
      </trkpt>
      <trkpt lat="43.32128" lon="2.68972">
        <ele>125.59</ele>
        <time>2015-01-12T13:02:24Z</time>
      </trkpt>
      <trkpt lat="43.32132" lon="2.68967">
        <ele>126.55</ele>
        <time>2015-01-12T13:02:38Z</time>
      </trkpt>
      <trkpt lat="43.32135" lon="2.68964">
        <ele>126.55</ele>
        <time>2015-01-12T13:02:59Z</time>
      </trkpt>
      <trkpt lat="43.32138" lon="2.68964">
        <ele>126.55</ele>
        <time>2015-01-12T13:03:03Z</time>
      </trkpt>
      <trkpt lat="43.32147" lon="2.68954">
        <ele>126.07</ele>
        <time>2015-01-12T13:03:14Z</time>
      </trkpt>
      <trkpt lat="43.32153" lon="2.68951">
        <ele>126.07</ele>
        <time>2015-01-12T13:03:25Z</time>
      </trkpt>
      <trkpt lat="43.32156" lon="2.68949">
        <ele>126.07</ele>
        <time>2015-01-12T13:03:28Z</time>
      </trkpt>
      <trkpt lat="43.32163" lon="2.68947">
        <ele>126.55</ele>
        <time>2015-01-12T13:03:34Z</time>
      </trkpt>
      <trkpt lat="43.32167" lon="2.68946">
        <ele>126.55</ele>
        <time>2015-01-12T13:03:37Z</time>
      </trkpt>
      <trkpt lat="43.3217" lon="2.68943">
        <ele>126.07</ele>
        <time>2015-01-12T13:03:41Z</time>
      </trkpt>
      <trkpt lat="43.32175" lon="2.68937">
        <ele>126.07</ele>
        <time>2015-01-12T13:03:46Z</time>
      </trkpt>
      <trkpt lat="43.32184" lon="2.6893">
        <ele>126.55</ele>
        <time>2015-01-12T13:03:55Z</time>
      </trkpt>
      <trkpt lat="43.32193" lon="2.68925">
        <ele>127.03</ele>
        <time>2015-01-12T13:04:06Z</time>
      </trkpt>
      <trkpt lat="43.32203" lon="2.68917">
        <ele>127.03</ele>
        <time>2015-01-12T13:04:17Z</time>
      </trkpt>
      <trkpt lat="43.32207" lon="2.68916">
        <ele>127.03</ele>
        <time>2015-01-12T13:04:21Z</time>
      </trkpt>
      <trkpt lat="43.32217" lon="2.68909">
        <ele>127.03</ele>
        <time>2015-01-12T13:04:33Z</time>
      </trkpt>
      <trkpt lat="43.3222" lon="2.68907">
        <ele>127.03</ele>
        <time>2015-01-12T13:04:37Z</time>
      </trkpt>
      <trkpt lat="43.32226" lon="2.68896">
        <ele>127.51</ele>
        <time>2015-01-12T13:04:45Z</time>
      </trkpt>
      <trkpt lat="43.32229" lon="2.68882">
        <ele>127.51</ele>
        <time>2015-01-12T13:04:56Z</time>
      </trkpt>
      <trkpt lat="43.32228" lon="2.68875">
        <ele>127.99</ele>
        <time>2015-01-12T13:05:02Z</time>
      </trkpt>
      <trkpt lat="43.32231" lon="2.68863">
        <ele>127.99</ele>
        <time>2015-01-12T13:05:08Z</time>
      </trkpt>
      <trkpt lat="43.32243" lon="2.68846">
        <ele>127.99</ele>
        <time>2015-01-12T13:05:21Z</time>
      </trkpt>
      <trkpt lat="43.32248" lon="2.68842">
        <ele>128.47</ele>
        <time>2015-01-12T13:05:27Z</time>
      </trkpt>
      <trkpt lat="43.32256" lon="2.68834">
        <ele>127.99</ele>
        <time>2015-01-12T13:05:36Z</time>
      </trkpt>
      <trkpt lat="43.32265" lon="2.68827">
        <ele>127.99</ele>
        <time>2015-01-12T13:05:46Z</time>
      </trkpt>
      <trkpt lat="43.32269" lon="2.68826">
        <ele>128.47</ele>
        <time>2015-01-12T13:05:50Z</time>
      </trkpt>
      <trkpt lat="43.32274" lon="2.68821">
        <ele>128.47</ele>
        <time>2015-01-12T13:05:55Z</time>
      </trkpt>
      <trkpt lat="43.3228" lon="2.68816">
        <ele>127.99</ele>
        <time>2015-01-12T13:06:01Z</time>
      </trkpt>
      <trkpt lat="43.32291" lon="2.68804">
        <ele>128.47</ele>
        <time>2015-01-12T13:06:15Z</time>
      </trkpt>
      <trkpt lat="43.32301" lon="2.68792">
        <ele>129.43</ele>
        <time>2015-01-12T13:06:26Z</time>
      </trkpt>
      <trkpt lat="43.32304" lon="2.68781">
        <ele>129.92</ele>
        <time>2015-01-12T13:06:39Z</time>
      </trkpt>
      <trkpt lat="43.32304" lon="2.68774">
        <ele>129.92</ele>
        <time>2015-01-12T13:06:44Z</time>
      </trkpt>
      <trkpt lat="43.32302" lon="2.68756">
        <ele>130.4</ele>
        <time>2015-01-12T13:06:58Z</time>
      </trkpt>
      <trkpt lat="43.323" lon="2.6875">
        <ele>130.88</ele>
        <time>2015-01-12T13:07:03Z</time>
      </trkpt>
      <trkpt lat="43.32297" lon="2.68734">
        <ele>130.4</ele>
        <time>2015-01-12T13:07:14Z</time>
      </trkpt>
      <trkpt lat="43.323" lon="2.68714">
        <ele>130.88</ele>
        <time>2015-01-12T13:07:25Z</time>
      </trkpt>
      <trkpt lat="43.32301" lon="2.68706">
        <ele>130.4</ele>
        <time>2015-01-12T13:07:30Z</time>
      </trkpt>
      <trkpt lat="43.32304" lon="2.68694">
        <ele>131.36</ele>
        <time>2015-01-12T13:07:38Z</time>
      </trkpt>
      <trkpt lat="43.32304" lon="2.68691">
        <ele>130.88</ele>
        <time>2015-01-12T13:07:40Z</time>
      </trkpt>
      <trkpt lat="43.32304" lon="2.68679">
        <ele>130.88</ele>
        <time>2015-01-12T13:07:48Z</time>
      </trkpt>
      <trkpt lat="43.32304" lon="2.68673">
        <ele>131.36</ele>
        <time>2015-01-12T13:07:52Z</time>
      </trkpt>
      <trkpt lat="43.32307" lon="2.68657">
        <ele>131.36</ele>
        <time>2015-01-12T13:08:02Z</time>
      </trkpt>
      <trkpt lat="43.32309" lon="2.6864">
        <ele>131.36</ele>
        <time>2015-01-12T13:08:14Z</time>
      </trkpt>
      <trkpt lat="43.32311" lon="2.68627">
        <ele>131.36</ele>
        <time>2015-01-12T13:08:22Z</time>
      </trkpt>
      <trkpt lat="43.32314" lon="2.68616">
        <ele>131.36</ele>
        <time>2015-01-12T13:08:29Z</time>
      </trkpt>
      <trkpt lat="43.32318" lon="2.68597">
        <ele>131.84</ele>
        <time>2015-01-12T13:08:42Z</time>
      </trkpt>
      <trkpt lat="43.32317" lon="2.68596">
        <ele>131.36</ele>
        <time>2015-01-12T13:08:43Z</time>
      </trkpt>
      <trkpt lat="43.32311" lon="2.68592">
        <ele>130.88</ele>
        <time>2015-01-12T13:08:52Z</time>
      </trkpt>
      <trkpt lat="43.32306" lon="2.68587">
        <ele>130.88</ele>
        <time>2015-01-12T13:09:06Z</time>
      </trkpt>
      <trkpt lat="43.32308" lon="2.68579">
        <ele>130.88</ele>
        <time>2015-01-12T13:09:11Z</time>
      </trkpt>
      <trkpt lat="43.32307" lon="2.68563">
        <ele>130.88</ele>
        <time>2015-01-12T13:09:21Z</time>
      </trkpt>
      <trkpt lat="43.323" lon="2.68548">
        <ele>130.88</ele>
        <time>2015-01-12T13:09:28Z</time>
      </trkpt>
      <trkpt lat="43.323" lon="2.68542">
        <ele>130.88</ele>
        <time>2015-01-12T13:09:30Z</time>
      </trkpt>
      <trkpt lat="43.32297" lon="2.68526">
        <ele>131.36</ele>
        <time>2015-01-12T13:09:35Z</time>
      </trkpt>
      <trkpt lat="43.32296" lon="2.68522">
        <ele>131.84</ele>
        <time>2015-01-12T13:09:37Z</time>
      </trkpt>
      <trkpt lat="43.32296" lon="2.6852">
        <ele>132.32</ele>
        <time>2015-01-12T13:09:38Z</time>
      </trkpt>
      <trkpt lat="43.32296" lon="2.68501">
        <ele>132.8</ele>
        <time>2015-01-12T13:09:49Z</time>
      </trkpt>
      <trkpt lat="43.32295" lon="2.68484">
        <ele>132.32</ele>
        <time>2015-01-12T13:10:04Z</time>
      </trkpt>
      <trkpt lat="43.32294" lon="2.6848">
        <ele>132.8</ele>
        <time>2015-01-12T13:10:14Z</time>
      </trkpt>
      <trkpt lat="43.32295" lon="2.68469">
        <ele>132.8</ele>
        <time>2015-01-12T13:10:25Z</time>
      </trkpt>
      <trkpt lat="43.32295" lon="2.68463">
        <ele>132.8</ele>
        <time>2015-01-12T13:10:41Z</time>
      </trkpt>
      <trkpt lat="43.32296" lon="2.68462">
        <ele>133.28</ele>
        <time>2015-01-12T13:10:56Z</time>
      </trkpt>
      <trkpt lat="43.32297" lon="2.68461">
        <ele>133.28</ele>
        <time>2015-01-12T13:11:06Z</time>
      </trkpt>
      <trkpt lat="43.32305" lon="2.68452">
        <ele>132.8</ele>
        <time>2015-01-12T13:11:18Z</time>
      </trkpt>
      <trkpt lat="43.32311" lon="2.68445">
        <ele>133.28</ele>
        <time>2015-01-12T13:11:30Z</time>
      </trkpt>
      <trkpt lat="43.32316" lon="2.68434">
        <ele>133.76</ele>
        <time>2015-01-12T13:11:43Z</time>
      </trkpt>
      <trkpt lat="43.32316" lon="2.68418">
        <ele>132.32</ele>
        <time>2015-01-12T13:11:56Z</time>
      </trkpt>
      <trkpt lat="43.32315" lon="2.68406">
        <ele>131.84</ele>
        <time>2015-01-12T13:12:08Z</time>
      </trkpt>
      <trkpt lat="43.32315" lon="2.684">
        <ele>131.36</ele>
        <time>2015-01-12T13:12:19Z</time>
      </trkpt>
      <trkpt lat="43.32315" lon="2.68396">
        <ele>131.36</ele>
        <time>2015-01-12T13:12:35Z</time>
      </trkpt>
      <trkpt lat="43.32314" lon="2.6839">
        <ele>130.88</ele>
        <time>2015-01-12T13:12:53Z</time>
      </trkpt>
      <trkpt lat="43.32315" lon="2.68381">
        <ele>130.88</ele>
        <time>2015-01-12T13:13:05Z</time>
      </trkpt>
      <trkpt lat="43.32314" lon="2.68378">
        <ele>130.88</ele>
        <time>2015-01-12T13:13:17Z</time>
      </trkpt>
      <trkpt lat="43.32314" lon="2.68378">
        <ele>130.4</ele>
        <time>2015-01-12T13:13:19Z</time>
      </trkpt>
      <trkpt lat="43.32312" lon="2.68372">
        <ele>130.4</ele>
        <time>2015-01-12T13:13:32Z</time>
      </trkpt>
      <trkpt lat="43.32312" lon="2.6837">
        <ele>130.4</ele>
        <time>2015-01-12T13:13:40Z</time>
      </trkpt>
      <trkpt lat="43.32316" lon="2.68355">
        <ele>128.95</ele>
        <time>2015-01-12T13:13:51Z</time>
      </trkpt>
      <trkpt lat="43.32319" lon="2.68346">
        <ele>128.47</ele>
        <time>2015-01-12T13:13:56Z</time>
      </trkpt>
      <trkpt lat="43.32322" lon="2.68334">
        <ele>128.47</ele>
        <time>2015-01-12T13:14:03Z</time>
      </trkpt>
      <trkpt lat="43.32325" lon="2.68322">
        <ele>127.03</ele>
        <time>2015-01-12T13:14:12Z</time>
      </trkpt>
      <trkpt lat="43.32327" lon="2.68309">
        <ele>126.07</ele>
        <time>2015-01-12T13:14:23Z</time>
      </trkpt>
      <trkpt lat="43.32331" lon="2.68295">
        <ele>125.59</ele>
        <time>2015-01-12T13:14:33Z</time>
      </trkpt>
      <trkpt lat="43.32334" lon="2.68283">
        <ele>125.11</ele>
        <time>2015-01-12T13:14:45Z</time>
      </trkpt>
      <trkpt lat="43.32336" lon="2.6827">
        <ele>125.11</ele>
        <time>2015-01-12T13:14:59Z</time>
      </trkpt>
      <trkpt lat="43.32337" lon="2.68266">
        <ele>125.11</ele>
        <time>2015-01-12T13:15:09Z</time>
      </trkpt>
      <trkpt lat="43.32338" lon="2.68264">
        <ele>125.11</ele>
        <time>2015-01-12T13:15:16Z</time>
      </trkpt>
      <trkpt lat="43.32335" lon="2.68257">
        <ele>124.63</ele>
        <time>2015-01-12T13:15:22Z</time>
      </trkpt>
      <trkpt lat="43.32337" lon="2.68255">
        <ele>124.63</ele>
        <time>2015-01-12T13:15:24Z</time>
      </trkpt>
      <trkpt lat="43.32343" lon="2.6825">
        <ele>124.63</ele>
        <time>2015-01-12T13:15:29Z</time>
      </trkpt>
      <trkpt lat="43.32353" lon="2.68245">
        <ele>124.63</ele>
        <time>2015-01-12T13:15:42Z</time>
      </trkpt>
      <trkpt lat="43.32361" lon="2.68244">
        <ele>124.63</ele>
        <time>2015-01-12T13:15:53Z</time>
      </trkpt>
      <trkpt lat="43.32369" lon="2.6824">
        <ele>124.15</ele>
        <time>2015-01-12T13:16:01Z</time>
      </trkpt>
      <trkpt lat="43.32376" lon="2.68238">
        <ele>124.15</ele>
        <time>2015-01-12T13:16:06Z</time>
      </trkpt>
      <trkpt lat="43.32384" lon="2.68235">
        <ele>124.15</ele>
        <time>2015-01-12T13:16:19Z</time>
      </trkpt>
      <trkpt lat="43.32389" lon="2.68228">
        <ele>122.22</ele>
        <time>2015-01-12T13:16:30Z</time>
      </trkpt>
      <trkpt lat="43.32396" lon="2.68222">
        <ele>123.19</ele>
        <time>2015-01-12T13:16:45Z</time>
      </trkpt>
      <trkpt lat="43.32399" lon="2.68219">
        <ele>123.19</ele>
        <time>2015-01-12T13:16:54Z</time>
      </trkpt>
      <trkpt lat="43.32401" lon="2.6821">
        <ele>124.15</ele>
        <time>2015-01-12T13:17:07Z</time>
      </trkpt>
      <trkpt lat="43.324" lon="2.68206">
        <ele>124.15</ele>
        <time>2015-01-12T13:17:11Z</time>
      </trkpt>
      <trkpt lat="43.324" lon="2.68194">
        <ele>124.63</ele>
        <time>2015-01-12T13:17:22Z</time>
      </trkpt>
      <trkpt lat="43.32401" lon="2.68192">
        <ele>124.15</ele>
        <time>2015-01-12T13:17:32Z</time>
      </trkpt>
      <trkpt lat="43.324" lon="2.68193">
        <ele>124.15</ele>
        <time>2015-01-12T13:17:43Z</time>
      </trkpt>
      <trkpt lat="43.32399" lon="2.68191">
        <ele>122.22</ele>
        <time>2015-01-12T13:17:57Z</time>
      </trkpt>
      <trkpt lat="43.32395" lon="2.6819">
        <ele>121.74</ele>
        <time>2015-01-12T13:18:13Z</time>
      </trkpt>
      <trkpt lat="43.32393" lon="2.68194">
        <ele>121.74</ele>
        <time>2015-01-12T13:18:27Z</time>
      </trkpt>
      <trkpt lat="43.32393" lon="2.68194">
        <ele>121.74</ele>
        <time>2015-01-12T13:18:28Z</time>
      </trkpt>
      <trkpt lat="43.32396" lon="2.6819">
        <ele>123.67</ele>
        <time>2015-01-12T13:18:42Z</time>
      </trkpt>
      <trkpt lat="43.32392" lon="2.68184">
        <ele>124.15</ele>
        <time>2015-01-12T13:18:50Z</time>
      </trkpt>
      <trkpt lat="43.32384" lon="2.68166">
        <ele>124.63</ele>
        <time>2015-01-12T13:19:03Z</time>
      </trkpt>
      <trkpt lat="43.32379" lon="2.68155">
        <ele>125.59</ele>
        <time>2015-01-12T13:19:11Z</time>
      </trkpt>
      <trkpt lat="43.32374" lon="2.68144">
        <ele>126.07</ele>
        <time>2015-01-12T13:19:20Z</time>
      </trkpt>
      <trkpt lat="43.32368" lon="2.68133">
        <ele>126.55</ele>
        <time>2015-01-12T13:19:28Z</time>
      </trkpt>
      <trkpt lat="43.32366" lon="2.68129">
        <ele>126.55</ele>
        <time>2015-01-12T13:19:33Z</time>
      </trkpt>
      <trkpt lat="43.32364" lon="2.6812">
        <ele>126.55</ele>
        <time>2015-01-12T13:19:43Z</time>
      </trkpt>
      <trkpt lat="43.32364" lon="2.68119">
        <ele>126.55</ele>
        <time>2015-01-12T13:19:44Z</time>
      </trkpt>
      <trkpt lat="43.32362" lon="2.68114">
        <ele>126.55</ele>
        <time>2015-01-12T13:19:47Z</time>
      </trkpt>
      <trkpt lat="43.32359" lon="2.68106">
        <ele>126.07</ele>
        <time>2015-01-12T13:19:59Z</time>
      </trkpt>
      <trkpt lat="43.32359" lon="2.68105">
        <ele>126.07</ele>
        <time>2015-01-12T13:20:03Z</time>
      </trkpt>
      <trkpt lat="43.32356" lon="2.68095">
        <ele>126.07</ele>
        <time>2015-01-12T13:20:11Z</time>
      </trkpt>
      <trkpt lat="43.32353" lon="2.68087">
        <ele>126.07</ele>
        <time>2015-01-12T13:20:23Z</time>
      </trkpt>
      <trkpt lat="43.32344" lon="2.68065">
        <ele>124.63</ele>
        <time>2015-01-12T13:20:36Z</time>
      </trkpt>
      <trkpt lat="43.32342" lon="2.6806">
        <ele>125.11</ele>
        <time>2015-01-12T13:20:39Z</time>
      </trkpt>
      <trkpt lat="43.32339" lon="2.68052">
        <ele>124.63</ele>
        <time>2015-01-12T13:20:44Z</time>
      </trkpt>
      <trkpt lat="43.32335" lon="2.68039">
        <ele>125.11</ele>
        <time>2015-01-12T13:20:53Z</time>
      </trkpt>
      <trkpt lat="43.3233" lon="2.68034">
        <ele>125.11</ele>
        <time>2015-01-12T13:20:58Z</time>
      </trkpt>
      <trkpt lat="43.32327" lon="2.68028">
        <ele>124.15</ele>
        <time>2015-01-12T13:21:01Z</time>
      </trkpt>
      <trkpt lat="43.32321" lon="2.68022">
        <ele>125.11</ele>
        <time>2015-01-12T13:21:06Z</time>
      </trkpt>
      <trkpt lat="43.32317" lon="2.68001">
        <ele>125.59</ele>
        <time>2015-01-12T13:21:16Z</time>
      </trkpt>
      <trkpt lat="43.3231" lon="2.67987">
        <ele>125.59</ele>
        <time>2015-01-12T13:21:25Z</time>
      </trkpt>
      <trkpt lat="43.32307" lon="2.67981">
        <ele>125.59</ele>
        <time>2015-01-12T13:21:29Z</time>
      </trkpt>
      <trkpt lat="43.32302" lon="2.67971">
        <ele>126.55</ele>
        <time>2015-01-12T13:21:37Z</time>
      </trkpt>
      <trkpt lat="43.32292" lon="2.6795">
        <ele>127.99</ele>
        <time>2015-01-12T13:21:52Z</time>
      </trkpt>
      <trkpt lat="43.32287" lon="2.67936">
        <ele>127.99</ele>
        <time>2015-01-12T13:22:01Z</time>
      </trkpt>
      <trkpt lat="43.32285" lon="2.6793">
        <ele>127.99</ele>
        <time>2015-01-12T13:22:05Z</time>
      </trkpt>
      <trkpt lat="43.32281" lon="2.67921">
        <ele>127.51</ele>
        <time>2015-01-12T13:22:16Z</time>
      </trkpt>
      <trkpt lat="43.32281" lon="2.67918">
        <ele>127.99</ele>
        <time>2015-01-12T13:22:18Z</time>
      </trkpt>
      <trkpt lat="43.32277" lon="2.67908">
        <ele>127.99</ele>
        <time>2015-01-12T13:22:25Z</time>
      </trkpt>
      <trkpt lat="43.32267" lon="2.67886">
        <ele>128.47</ele>
        <time>2015-01-12T13:22:38Z</time>
      </trkpt>
      <trkpt lat="43.3226" lon="2.67867">
        <ele>128.47</ele>
        <time>2015-01-12T13:22:51Z</time>
      </trkpt>
      <trkpt lat="43.32255" lon="2.67858">
        <ele>128.95</ele>
        <time>2015-01-12T13:22:58Z</time>
      </trkpt>
      <trkpt lat="43.32253" lon="2.67854">
        <ele>129.43</ele>
        <time>2015-01-12T13:23:01Z</time>
      </trkpt>
      <trkpt lat="43.32249" lon="2.67844">
        <ele>129.43</ele>
        <time>2015-01-12T13:23:11Z</time>
      </trkpt>
      <trkpt lat="43.32248" lon="2.67841">
        <ele>130.4</ele>
        <time>2015-01-12T13:23:13Z</time>
      </trkpt>
      <trkpt lat="43.32241" lon="2.6783">
        <ele>131.84</ele>
        <time>2015-01-12T13:23:24Z</time>
      </trkpt>
      <trkpt lat="43.32239" lon="2.6782">
        <ele>131.84</ele>
        <time>2015-01-12T13:23:30Z</time>
      </trkpt>
      <trkpt lat="43.32243" lon="2.67814">
        <ele>132.8</ele>
        <time>2015-01-12T13:23:37Z</time>
      </trkpt>
      <trkpt lat="43.32246" lon="2.67814">
        <ele>132.8</ele>
        <time>2015-01-12T13:23:41Z</time>
      </trkpt>
      <trkpt lat="43.32259" lon="2.67813">
        <ele>132.8</ele>
        <time>2015-01-12T13:23:54Z</time>
      </trkpt>
      <trkpt lat="43.3226" lon="2.67813">
        <ele>133.28</ele>
        <time>2015-01-12T13:23:55Z</time>
      </trkpt>
      <trkpt lat="43.32264" lon="2.67812">
        <ele>133.28</ele>
        <time>2015-01-12T13:24:00Z</time>
      </trkpt>
      <trkpt lat="43.32274" lon="2.67806">
        <ele>132.8</ele>
        <time>2015-01-12T13:24:13Z</time>
      </trkpt>
      <trkpt lat="43.32278" lon="2.67803">
        <ele>132.8</ele>
        <time>2015-01-12T13:24:18Z</time>
      </trkpt>
      <trkpt lat="43.32293" lon="2.67795">
        <ele>130.88</ele>
        <time>2015-01-12T13:24:32Z</time>
      </trkpt>
      <trkpt lat="43.32296" lon="2.67793">
        <ele>131.36</ele>
        <time>2015-01-12T13:24:39Z</time>
      </trkpt>
      <trkpt lat="43.32301" lon="2.67792">
        <ele>130.88</ele>
        <time>2015-01-12T13:24:43Z</time>
      </trkpt>
      <trkpt lat="43.32307" lon="2.67788">
        <ele>130.88</ele>
        <time>2015-01-12T13:24:49Z</time>
      </trkpt>
      <trkpt lat="43.32311" lon="2.67786">
        <ele>130.4</ele>
        <time>2015-01-12T13:24:52Z</time>
      </trkpt>
      <trkpt lat="43.32322" lon="2.67769">
        <ele>130.4</ele>
        <time>2015-01-12T13:25:06Z</time>
      </trkpt>
      <trkpt lat="43.32327" lon="2.67762">
        <ele>129.92</ele>
        <time>2015-01-12T13:25:12Z</time>
      </trkpt>
      <trkpt lat="43.3233" lon="2.67754">
        <ele>129.92</ele>
        <time>2015-01-12T13:25:18Z</time>
      </trkpt>
      <trkpt lat="43.32332" lon="2.67752">
        <ele>129.92</ele>
        <time>2015-01-12T13:25:20Z</time>
      </trkpt>
      <trkpt lat="43.32341" lon="2.67732">
        <ele>129.92</ele>
        <time>2015-01-12T13:25:34Z</time>
      </trkpt>
      <trkpt lat="43.32342" lon="2.67726">
        <ele>129.43</ele>
        <time>2015-01-12T13:25:38Z</time>
      </trkpt>
      <trkpt lat="43.32351" lon="2.67708">
        <ele>128.95</ele>
        <time>2015-01-12T13:25:52Z</time>
      </trkpt>
      <trkpt lat="43.32353" lon="2.67703">
        <ele>128.47</ele>
        <time>2015-01-12T13:25:55Z</time>
      </trkpt>
      <trkpt lat="43.32352" lon="2.67698">
        <ele>128.47</ele>
        <time>2015-01-12T13:26:00Z</time>
      </trkpt>
      <trkpt lat="43.32353" lon="2.67685">
        <ele>128.47</ele>
        <time>2015-01-12T13:26:10Z</time>
      </trkpt>
      <trkpt lat="43.32355" lon="2.67679">
        <ele>127.51</ele>
        <time>2015-01-12T13:26:14Z</time>
      </trkpt>
      <trkpt lat="43.32357" lon="2.67677">
        <ele>127.03</ele>
        <time>2015-01-12T13:26:20Z</time>
      </trkpt>
      <trkpt lat="43.32359" lon="2.67673">
        <ele>126.55</ele>
        <time>2015-01-12T13:26:23Z</time>
      </trkpt>
      <trkpt lat="43.32368" lon="2.67655">
        <ele>126.55</ele>
        <time>2015-01-12T13:26:36Z</time>
      </trkpt>
      <trkpt lat="43.32376" lon="2.67639">
        <ele>126.07</ele>
        <time>2015-01-12T13:26:48Z</time>
      </trkpt>
      <trkpt lat="43.32382" lon="2.67625">
        <ele>126.07</ele>
        <time>2015-01-12T13:26:58Z</time>
      </trkpt>
      <trkpt lat="43.32391" lon="2.67607">
        <ele>126.07</ele>
        <time>2015-01-12T13:27:13Z</time>
      </trkpt>
      <trkpt lat="43.32401" lon="2.6759">
        <ele>125.59</ele>
        <time>2015-01-12T13:27:25Z</time>
      </trkpt>
      <trkpt lat="43.32403" lon="2.67587">
        <ele>126.07</ele>
        <time>2015-01-12T13:27:28Z</time>
      </trkpt>
      <trkpt lat="43.32406" lon="2.67569">
        <ele>125.59</ele>
        <time>2015-01-12T13:27:41Z</time>
      </trkpt>
      <trkpt lat="43.32406" lon="2.67563">
        <ele>124.63</ele>
        <time>2015-01-12T13:27:45Z</time>
      </trkpt>
      <trkpt lat="43.32406" lon="2.67561">
        <ele>125.11</ele>
        <time>2015-01-12T13:27:47Z</time>
      </trkpt>
      <trkpt lat="43.32401" lon="2.67548">
        <ele>124.15</ele>
        <time>2015-01-12T13:27:57Z</time>
      </trkpt>
      <trkpt lat="43.32399" lon="2.67543">
        <ele>124.15</ele>
        <time>2015-01-12T13:28:00Z</time>
      </trkpt>
      <trkpt lat="43.32396" lon="2.67534">
        <ele>124.63</ele>
        <time>2015-01-12T13:28:06Z</time>
      </trkpt>
      <trkpt lat="43.32387" lon="2.67518">
        <ele>123.67</ele>
        <time>2015-01-12T13:28:18Z</time>
      </trkpt>
      <trkpt lat="43.3238" lon="2.67498">
        <ele>122.71</ele>
        <time>2015-01-12T13:28:32Z</time>
      </trkpt>
      <trkpt lat="43.3238" lon="2.67496">
        <ele>123.19</ele>
        <time>2015-01-12T13:28:36Z</time>
      </trkpt>
      <trkpt lat="43.32379" lon="2.6749">
        <ele>123.19</ele>
        <time>2015-01-12T13:28:47Z</time>
      </trkpt>
      <trkpt lat="43.32379" lon="2.67487">
        <ele>123.19</ele>
        <time>2015-01-12T13:28:59Z</time>
      </trkpt>
      <trkpt lat="43.32377" lon="2.67485">
        <ele>122.71</ele>
        <time>2015-01-12T13:29:10Z</time>
      </trkpt>
      <trkpt lat="43.32377" lon="2.67484">
        <ele>122.71</ele>
        <time>2015-01-12T13:29:20Z</time>
      </trkpt>
      <trkpt lat="43.32376" lon="2.67482">
        <ele>122.71</ele>
        <time>2015-01-12T13:29:30Z</time>
      </trkpt>
      <trkpt lat="43.32375" lon="2.6748">
        <ele>122.22</ele>
        <time>2015-01-12T13:29:43Z</time>
      </trkpt>
      <trkpt lat="43.32376" lon="2.67477">
        <ele>122.22</ele>
        <time>2015-01-12T13:29:58Z</time>
      </trkpt>
      <trkpt lat="43.32376" lon="2.67476">
        <ele>121.26</ele>
        <time>2015-01-12T13:30:09Z</time>
      </trkpt>
      <trkpt lat="43.32376" lon="2.67474">
        <ele>120.78</ele>
        <time>2015-01-12T13:30:21Z</time>
      </trkpt>
      <trkpt lat="43.32375" lon="2.6747">
        <ele>119.82</ele>
        <time>2015-01-12T13:30:36Z</time>
      </trkpt>
      <trkpt lat="43.32374" lon="2.67468">
        <ele>119.82</ele>
        <time>2015-01-12T13:30:57Z</time>
      </trkpt>
      <trkpt lat="43.32373" lon="2.67466">
        <ele>119.34</ele>
        <time>2015-01-12T13:31:14Z</time>
      </trkpt>
      <trkpt lat="43.32373" lon="2.67464">
        <ele>118.86</ele>
        <time>2015-01-12T13:31:35Z</time>
      </trkpt>
      <trkpt lat="43.3237" lon="2.67457">
        <ele>119.82</ele>
        <time>2015-01-12T13:31:46Z</time>
      </trkpt>
      <trkpt lat="43.32369" lon="2.67453">
        <ele>121.74</ele>
        <time>2015-01-12T13:31:52Z</time>
      </trkpt>
      <trkpt lat="43.32371" lon="2.67443">
        <ele>123.67</ele>
        <time>2015-01-12T13:32:02Z</time>
      </trkpt>
      <trkpt lat="43.32367" lon="2.67435">
        <ele>125.11</ele>
        <time>2015-01-12T13:32:13Z</time>
      </trkpt>
      <trkpt lat="43.32368" lon="2.67433">
        <ele>124.63</ele>
        <time>2015-01-12T13:32:21Z</time>
      </trkpt>
      <trkpt lat="43.32358" lon="2.67423">
        <ele>127.03</ele>
        <time>2015-01-12T13:32:34Z</time>
      </trkpt>
      <trkpt lat="43.32349" lon="2.67416">
        <ele>128.47</ele>
        <time>2015-01-12T13:32:47Z</time>
      </trkpt>
      <trkpt lat="43.32341" lon="2.67408">
        <ele>129.43</ele>
        <time>2015-01-12T13:32:59Z</time>
      </trkpt>
      <trkpt lat="43.3234" lon="2.67407">
        <ele>129.92</ele>
        <time>2015-01-12T13:33:01Z</time>
      </trkpt>
      <trkpt lat="43.32336" lon="2.67405">
        <ele>129.92</ele>
        <time>2015-01-12T13:33:06Z</time>
      </trkpt>
      <trkpt lat="43.32332" lon="2.67402">
        <ele>130.4</ele>
        <time>2015-01-12T13:33:11Z</time>
      </trkpt>
      <trkpt lat="43.32322" lon="2.67395">
        <ele>131.36</ele>
        <time>2015-01-12T13:33:25Z</time>
      </trkpt>
      <trkpt lat="43.32311" lon="2.67388">
        <ele>131.84</ele>
        <time>2015-01-12T13:33:40Z</time>
      </trkpt>
      <trkpt lat="43.32299" lon="2.67381">
        <ele>132.32</ele>
        <time>2015-01-12T13:33:55Z</time>
      </trkpt>
      <trkpt lat="43.32294" lon="2.67377">
        <ele>132.32</ele>
        <time>2015-01-12T13:34:01Z</time>
      </trkpt>
      <trkpt lat="43.32286" lon="2.67373">
        <ele>131.36</ele>
        <time>2015-01-12T13:34:14Z</time>
      </trkpt>
      <trkpt lat="43.32284" lon="2.67373">
        <ele>130.88</ele>
        <time>2015-01-12T13:34:24Z</time>
      </trkpt>
      <trkpt lat="43.32283" lon="2.67371">
        <ele>130.88</ele>
        <time>2015-01-12T13:34:33Z</time>
      </trkpt>
      <trkpt lat="43.32278" lon="2.67369">
        <ele>130.4</ele>
        <time>2015-01-12T13:34:44Z</time>
      </trkpt>
      <trkpt lat="43.32275" lon="2.67363">
        <ele>129.92</ele>
        <time>2015-01-12T13:34:55Z</time>
      </trkpt>
      <trkpt lat="43.32275" lon="2.67362">
        <ele>129.43</ele>
        <time>2015-01-12T13:35:08Z</time>
      </trkpt>
      <trkpt lat="43.32275" lon="2.6736">
        <ele>129.92</ele>
        <time>2015-01-12T13:35:15Z</time>
      </trkpt>
      <trkpt lat="43.32278" lon="2.67356">
        <ele>129.43</ele>
        <time>2015-01-12T13:35:19Z</time>
      </trkpt>
      <trkpt lat="43.32282" lon="2.67353">
        <ele>129.43</ele>
        <time>2015-01-12T13:35:28Z</time>
      </trkpt>
      <trkpt lat="43.32287" lon="2.67349">
        <ele>128.95</ele>
        <time>2015-01-12T13:35:33Z</time>
      </trkpt>
      <trkpt lat="43.323" lon="2.67339">
        <ele>129.43</ele>
        <time>2015-01-12T13:35:44Z</time>
      </trkpt>
      <trkpt lat="43.32303" lon="2.67336">
        <ele>128.95</ele>
        <time>2015-01-12T13:35:49Z</time>
      </trkpt>
      <trkpt lat="43.32307" lon="2.67335">
        <ele>129.43</ele>
        <time>2015-01-12T13:35:53Z</time>
      </trkpt>
      <trkpt lat="43.32309" lon="2.67333">
        <ele>129.43</ele>
        <time>2015-01-12T13:35:58Z</time>
      </trkpt>
      <trkpt lat="43.32317" lon="2.6733">
        <ele>129.43</ele>
        <time>2015-01-12T13:36:09Z</time>
      </trkpt>
      <trkpt lat="43.32317" lon="2.67329">
        <ele>128.95</ele>
        <time>2015-01-12T13:36:10Z</time>
      </trkpt>
      <trkpt lat="43.3232" lon="2.67328">
        <ele>128.95</ele>
        <time>2015-01-12T13:36:12Z</time>
      </trkpt>
      <trkpt lat="43.32327" lon="2.67326">
        <ele>129.43</ele>
        <time>2015-01-12T13:36:20Z</time>
      </trkpt>
      <trkpt lat="43.32334" lon="2.67323">
        <ele>128.47</ele>
        <time>2015-01-12T13:36:26Z</time>
      </trkpt>
      <trkpt lat="43.32337" lon="2.67321">
        <ele>128.47</ele>
        <time>2015-01-12T13:36:30Z</time>
      </trkpt>
      <trkpt lat="43.3234" lon="2.67319">
        <ele>128.95</ele>
        <time>2015-01-12T13:36:33Z</time>
      </trkpt>
      <trkpt lat="43.32347" lon="2.67317">
        <ele>128.95</ele>
        <time>2015-01-12T13:36:40Z</time>
      </trkpt>
      <trkpt lat="43.32358" lon="2.67311">
        <ele>128.95</ele>
        <time>2015-01-12T13:36:50Z</time>
      </trkpt>
      <trkpt lat="43.32359" lon="2.6731">
        <ele>128.95</ele>
        <time>2015-01-12T13:36:51Z</time>
      </trkpt>
      <trkpt lat="43.32362" lon="2.67307">
        <ele>128.95</ele>
        <time>2015-01-12T13:36:55Z</time>
      </trkpt>
      <trkpt lat="43.32369" lon="2.67299">
        <ele>128.47</ele>
        <time>2015-01-12T13:37:07Z</time>
      </trkpt>
      <trkpt lat="43.32371" lon="2.67295">
        <ele>128.47</ele>
        <time>2015-01-12T13:37:11Z</time>
      </trkpt>
      <trkpt lat="43.32379" lon="2.67285">
        <ele>128.47</ele>
        <time>2015-01-12T13:37:23Z</time>
      </trkpt>
      <trkpt lat="43.32381" lon="2.67282">
        <ele>128.47</ele>
        <time>2015-01-12T13:37:28Z</time>
      </trkpt>
      <trkpt lat="43.32385" lon="2.67274">
        <ele>127.99</ele>
        <time>2015-01-12T13:37:33Z</time>
      </trkpt>
      <trkpt lat="43.32393" lon="2.67248">
        <ele>126.55</ele>
        <time>2015-01-12T13:37:49Z</time>
      </trkpt>
      <trkpt lat="43.32393" lon="2.67247">
        <ele>127.03</ele>
        <time>2015-01-12T13:37:51Z</time>
      </trkpt>
      <trkpt lat="43.32393" lon="2.67239">
        <ele>126.55</ele>
        <time>2015-01-12T13:37:59Z</time>
      </trkpt>
      <trkpt lat="43.32395" lon="2.67212">
        <ele>126.07</ele>
        <time>2015-01-12T13:38:13Z</time>
      </trkpt>
      <trkpt lat="43.32395" lon="2.67207">
        <ele>126.07</ele>
        <time>2015-01-12T13:38:17Z</time>
      </trkpt>
      <trkpt lat="43.32395" lon="2.67204">
        <ele>126.07</ele>
        <time>2015-01-12T13:38:19Z</time>
      </trkpt>
      <trkpt lat="43.32395" lon="2.67193">
        <ele>125.59</ele>
        <time>2015-01-12T13:38:25Z</time>
      </trkpt>
      <trkpt lat="43.32397" lon="2.67185">
        <ele>125.59</ele>
        <time>2015-01-12T13:38:30Z</time>
      </trkpt>
      <trkpt lat="43.324" lon="2.67172">
        <ele>125.59</ele>
        <time>2015-01-12T13:38:38Z</time>
      </trkpt>
      <trkpt lat="43.324" lon="2.67168">
        <ele>125.59</ele>
        <time>2015-01-12T13:38:41Z</time>
      </trkpt>
      <trkpt lat="43.324" lon="2.67164">
        <ele>125.59</ele>
        <time>2015-01-12T13:38:43Z</time>
      </trkpt>
      <trkpt lat="43.32401" lon="2.67157">
        <ele>125.59</ele>
        <time>2015-01-12T13:38:49Z</time>
      </trkpt>
      <trkpt lat="43.32401" lon="2.67154">
        <ele>125.59</ele>
        <time>2015-01-12T13:38:51Z</time>
      </trkpt>
      <trkpt lat="43.32403" lon="2.67139">
        <ele>125.11</ele>
        <time>2015-01-12T13:39:02Z</time>
      </trkpt>
      <trkpt lat="43.32403" lon="2.67125">
        <ele>125.59</ele>
        <time>2015-01-12T13:39:10Z</time>
      </trkpt>
      <trkpt lat="43.32405" lon="2.67103">
        <ele>125.59</ele>
        <time>2015-01-12T13:39:23Z</time>
      </trkpt>
      <trkpt lat="43.32405" lon="2.67099">
        <ele>126.07</ele>
        <time>2015-01-12T13:39:25Z</time>
      </trkpt>
      <trkpt lat="43.32407" lon="2.67084">
        <ele>125.59</ele>
        <time>2015-01-12T13:39:36Z</time>
      </trkpt>
      <trkpt lat="43.32408" lon="2.67067">
        <ele>125.59</ele>
        <time>2015-01-12T13:39:46Z</time>
      </trkpt>
      <trkpt lat="43.32409" lon="2.67062">
        <ele>125.59</ele>
        <time>2015-01-12T13:39:49Z</time>
      </trkpt>
      <trkpt lat="43.32409" lon="2.67057">
        <ele>126.07</ele>
        <time>2015-01-12T13:39:53Z</time>
      </trkpt>
      <trkpt lat="43.3241" lon="2.67051">
        <ele>126.07</ele>
        <time>2015-01-12T13:39:57Z</time>
      </trkpt>
      <trkpt lat="43.3241" lon="2.67038">
        <ele>126.07</ele>
        <time>2015-01-12T13:40:05Z</time>
      </trkpt>
      <trkpt lat="43.3241" lon="2.67032">
        <ele>126.55</ele>
        <time>2015-01-12T13:40:08Z</time>
      </trkpt>
      <trkpt lat="43.32412" lon="2.67021">
        <ele>126.55</ele>
        <time>2015-01-12T13:40:14Z</time>
      </trkpt>
      <trkpt lat="43.32411" lon="2.67015">
        <ele>126.07</ele>
        <time>2015-01-12T13:40:18Z</time>
      </trkpt>
      <trkpt lat="43.32412" lon="2.66999">
        <ele>126.55</ele>
        <time>2015-01-12T13:40:28Z</time>
      </trkpt>
      <trkpt lat="43.32412" lon="2.66994">
        <ele>126.55</ele>
        <time>2015-01-12T13:40:32Z</time>
      </trkpt>
      <trkpt lat="43.32413" lon="2.6699">
        <ele>126.55</ele>
        <time>2015-01-12T13:40:34Z</time>
      </trkpt>
      <trkpt lat="43.32413" lon="2.66982">
        <ele>126.55</ele>
        <time>2015-01-12T13:40:41Z</time>
      </trkpt>
      <trkpt lat="43.32411" lon="2.66969">
        <ele>126.55</ele>
        <time>2015-01-12T13:40:49Z</time>
      </trkpt>
      <trkpt lat="43.32411" lon="2.66967">
        <ele>126.07</ele>
        <time>2015-01-12T13:40:50Z</time>
      </trkpt>
      <trkpt lat="43.32411" lon="2.66964">
        <ele>126.55</ele>
        <time>2015-01-12T13:40:52Z</time>
      </trkpt>
      <trkpt lat="43.3241" lon="2.66959">
        <ele>126.07</ele>
        <time>2015-01-12T13:40:56Z</time>
      </trkpt>
      <trkpt lat="43.32406" lon="2.6695">
        <ele>126.55</ele>
        <time>2015-01-12T13:41:03Z</time>
      </trkpt>
      <trkpt lat="43.32404" lon="2.66947">
        <ele>126.55</ele>
        <time>2015-01-12T13:41:06Z</time>
      </trkpt>
      <trkpt lat="43.32398" lon="2.66934">
        <ele>127.03</ele>
        <time>2015-01-12T13:41:16Z</time>
      </trkpt>
      <trkpt lat="43.32395" lon="2.66915">
        <ele>127.03</ele>
        <time>2015-01-12T13:41:27Z</time>
      </trkpt>
      <trkpt lat="43.32394" lon="2.66911">
        <ele>126.55</ele>
        <time>2015-01-12T13:41:30Z</time>
      </trkpt>
      <trkpt lat="43.32393" lon="2.66902">
        <ele>126.55</ele>
        <time>2015-01-12T13:41:39Z</time>
      </trkpt>
      <trkpt lat="43.32392" lon="2.66899">
        <ele>126.55</ele>
        <time>2015-01-12T13:41:41Z</time>
      </trkpt>
      <trkpt lat="43.32392" lon="2.66895">
        <ele>126.55</ele>
        <time>2015-01-12T13:41:44Z</time>
      </trkpt>
      <trkpt lat="43.32388" lon="2.66875">
        <ele>126.07</ele>
        <time>2015-01-12T13:41:56Z</time>
      </trkpt>
      <trkpt lat="43.32388" lon="2.66874">
        <ele>126.07</ele>
        <time>2015-01-12T13:41:57Z</time>
      </trkpt>
      <trkpt lat="43.32386" lon="2.66867">
        <ele>126.07</ele>
        <time>2015-01-12T13:42:02Z</time>
      </trkpt>
      <trkpt lat="43.32382" lon="2.66847">
        <ele>126.55</ele>
        <time>2015-01-12T13:42:13Z</time>
      </trkpt>
      <trkpt lat="43.32381" lon="2.66845">
        <ele>127.03</ele>
        <time>2015-01-12T13:42:15Z</time>
      </trkpt>
      <trkpt lat="43.3238" lon="2.66841">
        <ele>127.03</ele>
        <time>2015-01-12T13:42:18Z</time>
      </trkpt>
      <trkpt lat="43.32376" lon="2.66833">
        <ele>127.03</ele>
        <time>2015-01-12T13:42:28Z</time>
      </trkpt>
      <trkpt lat="43.32375" lon="2.66831">
        <ele>127.51</ele>
        <time>2015-01-12T13:42:32Z</time>
      </trkpt>
      <trkpt lat="43.32372" lon="2.66825">
        <ele>127.03</ele>
        <time>2015-01-12T13:42:43Z</time>
      </trkpt>
      <trkpt lat="43.32372" lon="2.66824">
        <ele>127.51</ele>
        <time>2015-01-12T13:42:47Z</time>
      </trkpt>
      <trkpt lat="43.32365" lon="2.66816">
        <ele>127.51</ele>
        <time>2015-01-12T13:42:58Z</time>
      </trkpt>
      <trkpt lat="43.32364" lon="2.66815">
        <ele>127.03</ele>
        <time>2015-01-12T13:42:59Z</time>
      </trkpt>
      <trkpt lat="43.32358" lon="2.66797">
        <ele>127.51</ele>
        <time>2015-01-12T13:43:12Z</time>
      </trkpt>
      <trkpt lat="43.32354" lon="2.66788">
        <ele>127.03</ele>
        <time>2015-01-12T13:43:18Z</time>
      </trkpt>
      <trkpt lat="43.32353" lon="2.66783">
        <ele>127.03</ele>
        <time>2015-01-12T13:43:21Z</time>
      </trkpt>
      <trkpt lat="43.32351" lon="2.66775">
        <ele>127.03</ele>
        <time>2015-01-12T13:43:26Z</time>
      </trkpt>
      <trkpt lat="43.32347" lon="2.66755">
        <ele>127.03</ele>
        <time>2015-01-12T13:43:37Z</time>
      </trkpt>
      <trkpt lat="43.32346" lon="2.66743">
        <ele>126.55</ele>
        <time>2015-01-12T13:43:43Z</time>
      </trkpt>
      <trkpt lat="43.32345" lon="2.66734">
        <ele>127.03</ele>
        <time>2015-01-12T13:43:48Z</time>
      </trkpt>
      <trkpt lat="43.32352" lon="2.66709">
        <ele>127.51</ele>
        <time>2015-01-12T13:44:02Z</time>
      </trkpt>
      <trkpt lat="43.32356" lon="2.66701">
        <ele>127.51</ele>
        <time>2015-01-12T13:44:12Z</time>
      </trkpt>
      <trkpt lat="43.32357" lon="2.66697">
        <ele>127.99</ele>
        <time>2015-01-12T13:44:15Z</time>
      </trkpt>
      <trkpt lat="43.32366" lon="2.66679">
        <ele>128.95</ele>
        <time>2015-01-12T13:44:29Z</time>
      </trkpt>
      <trkpt lat="43.32367" lon="2.66675">
        <ele>128.95</ele>
        <time>2015-01-12T13:44:41Z</time>
      </trkpt>
      <trkpt lat="43.32368" lon="2.66672">
        <ele>129.43</ele>
        <time>2015-01-12T13:44:50Z</time>
      </trkpt>
      <trkpt lat="43.32369" lon="2.66666">
        <ele>129.92</ele>
        <time>2015-01-12T13:44:56Z</time>
      </trkpt>
      <trkpt lat="43.32367" lon="2.66658">
        <ele>129.92</ele>
        <time>2015-01-12T13:45:03Z</time>
      </trkpt>
      <trkpt lat="43.32361" lon="2.66644">
        <ele>129.92</ele>
        <time>2015-01-12T13:45:14Z</time>
      </trkpt>
      <trkpt lat="43.32356" lon="2.66634">
        <ele>129.92</ele>
        <time>2015-01-12T13:45:22Z</time>
      </trkpt>
      <trkpt lat="43.3235" lon="2.66629">
        <ele>128.95</ele>
        <time>2015-01-12T13:45:29Z</time>
      </trkpt>
      <trkpt lat="43.32342" lon="2.66618">
        <ele>129.43</ele>
        <time>2015-01-12T13:45:39Z</time>
      </trkpt>
      <trkpt lat="43.32339" lon="2.66613">
        <ele>129.43</ele>
        <time>2015-01-12T13:45:43Z</time>
      </trkpt>
      <trkpt lat="43.32328" lon="2.66604">
        <ele>129.43</ele>
        <time>2015-01-12T13:45:56Z</time>
      </trkpt>
      <trkpt lat="43.32325" lon="2.66601">
        <ele>128.95</ele>
        <time>2015-01-12T13:45:59Z</time>
      </trkpt>
      <trkpt lat="43.32314" lon="2.66588">
        <ele>128.95</ele>
        <time>2015-01-12T13:46:12Z</time>
      </trkpt>
      <trkpt lat="43.32312" lon="2.66586">
        <ele>129.43</ele>
        <time>2015-01-12T13:46:14Z</time>
      </trkpt>
      <trkpt lat="43.32305" lon="2.66577">
        <ele>128.95</ele>
        <time>2015-01-12T13:46:22Z</time>
      </trkpt>
      <trkpt lat="43.32302" lon="2.66573">
        <ele>128.95</ele>
        <time>2015-01-12T13:46:25Z</time>
      </trkpt>
      <trkpt lat="43.32297" lon="2.6657">
        <ele>128.95</ele>
        <time>2015-01-12T13:46:30Z</time>
      </trkpt>
      <trkpt lat="43.32295" lon="2.6657">
        <ele>128.95</ele>
        <time>2015-01-12T13:46:32Z</time>
      </trkpt>
      <trkpt lat="43.32293" lon="2.66562">
        <ele>128.95</ele>
        <time>2015-01-12T13:46:37Z</time>
      </trkpt>
      <trkpt lat="43.32301" lon="2.66546">
        <ele>128.95</ele>
        <time>2015-01-12T13:46:47Z</time>
      </trkpt>
      <trkpt lat="43.32314" lon="2.66541">
        <ele>129.43</ele>
        <time>2015-01-12T13:47:01Z</time>
      </trkpt>
      <trkpt lat="43.32316" lon="2.6654">
        <ele>129.43</ele>
        <time>2015-01-12T13:47:03Z</time>
      </trkpt>
      <trkpt lat="43.32327" lon="2.66538">
        <ele>130.4</ele>
        <time>2015-01-12T13:47:14Z</time>
      </trkpt>
      <trkpt lat="43.3234" lon="2.66534">
        <ele>130.88</ele>
        <time>2015-01-12T13:47:29Z</time>
      </trkpt>
      <trkpt lat="43.32341" lon="2.66534">
        <ele>131.36</ele>
        <time>2015-01-12T13:47:30Z</time>
      </trkpt>
      <trkpt lat="43.32346" lon="2.66532">
        <ele>131.36</ele>
        <time>2015-01-12T13:47:35Z</time>
      </trkpt>
      <trkpt lat="43.32354" lon="2.66527">
        <ele>131.84</ele>
        <time>2015-01-12T13:47:43Z</time>
      </trkpt>
      <trkpt lat="43.32361" lon="2.66523">
        <ele>132.32</ele>
        <time>2015-01-12T13:47:48Z</time>
      </trkpt>
      <trkpt lat="43.32373" lon="2.66521">
        <ele>133.28</ele>
        <time>2015-01-12T13:48:02Z</time>
      </trkpt>
      <trkpt lat="43.32374" lon="2.66522">
        <ele>133.28</ele>
        <time>2015-01-12T13:48:06Z</time>
      </trkpt>
      <trkpt lat="43.32378" lon="2.66519">
        <ele>132.8</ele>
        <time>2015-01-12T13:48:10Z</time>
      </trkpt>
      <trkpt lat="43.32388" lon="2.66513">
        <ele>134.24</ele>
        <time>2015-01-12T13:48:19Z</time>
      </trkpt>
      <trkpt lat="43.3239" lon="2.66515">
        <ele>133.76</ele>
        <time>2015-01-12T13:48:25Z</time>
      </trkpt>
      <trkpt lat="43.32394" lon="2.6651">
        <ele>134.24</ele>
        <time>2015-01-12T13:48:30Z</time>
      </trkpt>
      <trkpt lat="43.32406" lon="2.66506">
        <ele>134.72</ele>
        <time>2015-01-12T13:48:43Z</time>
      </trkpt>
      <trkpt lat="43.32418" lon="2.665">
        <ele>135.68</ele>
        <time>2015-01-12T13:48:55Z</time>
      </trkpt>
      <trkpt lat="43.3242" lon="2.665">
        <ele>136.16</ele>
        <time>2015-01-12T13:48:58Z</time>
      </trkpt>
      <trkpt lat="43.32422" lon="2.665">
        <ele>136.16</ele>
        <time>2015-01-12T13:49:09Z</time>
      </trkpt>
      <trkpt lat="43.32424" lon="2.66499">
        <ele>136.16</ele>
        <time>2015-01-12T13:49:15Z</time>
      </trkpt>
      <trkpt lat="43.32429" lon="2.66499">
        <ele>136.64</ele>
        <time>2015-01-12T13:49:23Z</time>
      </trkpt>
      <trkpt lat="43.32438" lon="2.66499">
        <ele>137.61</ele>
        <time>2015-01-12T13:49:32Z</time>
      </trkpt>
      <trkpt lat="43.32445" lon="2.66501">
        <ele>138.09</ele>
        <time>2015-01-12T13:49:44Z</time>
      </trkpt>
      <trkpt lat="43.32449" lon="2.66501">
        <ele>138.09</ele>
        <time>2015-01-12T13:49:59Z</time>
      </trkpt>
      <trkpt lat="43.32448" lon="2.66502">
        <ele>137.61</ele>
        <time>2015-01-12T13:50:10Z</time>
      </trkpt>
      <trkpt lat="43.32449" lon="2.66505">
        <ele>137.61</ele>
        <time>2015-01-12T13:50:21Z</time>
      </trkpt>
      <trkpt lat="43.32451" lon="2.66506">
        <ele>138.09</ele>
        <time>2015-01-12T13:50:30Z</time>
      </trkpt>
      <trkpt lat="43.32451" lon="2.66506">
        <ele>138.09</ele>
        <time>2015-01-12T13:50:41Z</time>
      </trkpt>
      <trkpt lat="43.32451" lon="2.66506">
        <ele>137.61</ele>
        <time>2015-01-12T13:50:57Z</time>
      </trkpt>
      <trkpt lat="43.32451" lon="2.66506">
        <ele>137.61</ele>
        <time>2015-01-12T13:51:00Z</time>
      </trkpt>
      <trkpt lat="43.3245" lon="2.66504">
        <ele>137.61</ele>
        <time>2015-01-12T13:51:02Z</time>
      </trkpt>
      <trkpt lat="43.32449" lon="2.66505">
        <ele>138.57</ele>
        <time>2015-01-12T13:51:05Z</time>
      </trkpt>
      <trkpt lat="43.32442" lon="2.66509">
        <ele>136.16</ele>
        <time>2015-01-12T13:51:17Z</time>
      </trkpt>
      <trkpt lat="43.32442" lon="2.66509">
        <ele>135.68</ele>
        <time>2015-01-12T13:51:39Z</time>
      </trkpt>
      <trkpt lat="43.32441" lon="2.66509">
        <ele>135.68</ele>
        <time>2015-01-12T13:51:52Z</time>
      </trkpt>
      <trkpt lat="43.32442" lon="2.66506">
        <ele>136.64</ele>
        <time>2015-01-12T13:51:55Z</time>
      </trkpt>
      <trkpt lat="43.32445" lon="2.66507">
        <ele>137.61</ele>
        <time>2015-01-12T13:51:59Z</time>
      </trkpt>
      <trkpt lat="43.32448" lon="2.66507">
        <ele>138.57</ele>
        <time>2015-01-12T13:52:11Z</time>
      </trkpt>
      <trkpt lat="43.32447" lon="2.66506">
        <ele>138.09</ele>
        <time>2015-01-12T13:52:30Z</time>
      </trkpt>
      <trkpt lat="43.32448" lon="2.66506">
        <ele>137.13</ele>
        <time>2015-01-12T13:52:45Z</time>
      </trkpt>
      <trkpt lat="43.32448" lon="2.66507">
        <ele>137.13</ele>
        <time>2015-01-12T13:53:06Z</time>
      </trkpt>
      <trkpt lat="43.32448" lon="2.66507">
        <ele>137.13</ele>
        <time>2015-01-12T13:53:35Z</time>
      </trkpt>
      <trkpt lat="43.32448" lon="2.66506">
        <ele>137.13</ele>
        <time>2015-01-12T13:54:04Z</time>
      </trkpt>
      <trkpt lat="43.32448" lon="2.66507">
        <ele>137.13</ele>
        <time>2015-01-12T13:54:21Z</time>
      </trkpt>
      <trkpt lat="43.32448" lon="2.66507">
        <ele>136.64</ele>
        <time>2015-01-12T13:54:40Z</time>
      </trkpt>
      <trkpt lat="43.32447" lon="2.66507">
        <ele>136.64</ele>
        <time>2015-01-12T13:54:54Z</time>
      </trkpt>
      <trkpt lat="43.32447" lon="2.66507">
        <ele>136.64</ele>
        <time>2015-01-12T13:55:07Z</time>
      </trkpt>
      <trkpt lat="43.32446" lon="2.66506">
        <ele>136.64</ele>
        <time>2015-01-12T13:55:28Z</time>
      </trkpt>
      <trkpt lat="43.32446" lon="2.66506">
        <ele>136.64</ele>
        <time>2015-01-12T13:55:49Z</time>
      </trkpt>
      <trkpt lat="43.32446" lon="2.66505">
        <ele>136.16</ele>
        <time>2015-01-12T13:56:20Z</time>
      </trkpt>
      <trkpt lat="43.32444" lon="2.66504">
        <ele>135.68</ele>
        <time>2015-01-12T13:56:32Z</time>
      </trkpt>
      <trkpt lat="43.32444" lon="2.66505">
        <ele>135.68</ele>
        <time>2015-01-12T13:56:48Z</time>
      </trkpt>
      <trkpt lat="43.32444" lon="2.66505">
        <ele>135.68</ele>
        <time>2015-01-12T13:56:51Z</time>
      </trkpt>
      <trkpt lat="43.32442" lon="2.66503">
        <ele>135.68</ele>
        <time>2015-01-12T13:56:54Z</time>
      </trkpt>
      <trkpt lat="43.32442" lon="2.66488">
        <ele>136.16</ele>
        <time>2015-01-12T13:57:07Z</time>
      </trkpt>
      <trkpt lat="43.32443" lon="2.66487">
        <ele>135.68</ele>
        <time>2015-01-12T13:57:13Z</time>
      </trkpt>
      <trkpt lat="43.32447" lon="2.6649">
        <ele>135.68</ele>
        <time>2015-01-12T13:57:26Z</time>
      </trkpt>
      <trkpt lat="43.3245" lon="2.66489">
        <ele>136.16</ele>
        <time>2015-01-12T13:57:38Z</time>
      </trkpt>
      <trkpt lat="43.32452" lon="2.66489">
        <ele>136.64</ele>
        <time>2015-01-12T13:57:44Z</time>
      </trkpt>
      <trkpt lat="43.32453" lon="2.66488">
        <ele>136.64</ele>
        <time>2015-01-12T13:57:46Z</time>
      </trkpt>
      <trkpt lat="43.32456" lon="2.66487">
        <ele>137.13</ele>
        <time>2015-01-12T13:57:49Z</time>
      </trkpt>
      <trkpt lat="43.32461" lon="2.66481">
        <ele>137.61</ele>
        <time>2015-01-12T13:57:59Z</time>
      </trkpt>
      <trkpt lat="43.32463" lon="2.66479">
        <ele>137.13</ele>
        <time>2015-01-12T13:58:02Z</time>
      </trkpt>
      <trkpt lat="43.32467" lon="2.66473">
        <ele>137.61</ele>
        <time>2015-01-12T13:58:08Z</time>
      </trkpt>
      <trkpt lat="43.32467" lon="2.6647">
        <ele>137.61</ele>
        <time>2015-01-12T13:58:10Z</time>
      </trkpt>
      <trkpt lat="43.32468" lon="2.66465">
        <ele>138.57</ele>
        <time>2015-01-12T13:58:14Z</time>
      </trkpt>
      <trkpt lat="43.3247" lon="2.66452">
        <ele>139.05</ele>
        <time>2015-01-12T13:58:26Z</time>
      </trkpt>
      <trkpt lat="43.32473" lon="2.66437">
        <ele>140.01</ele>
        <time>2015-01-12T13:58:40Z</time>
      </trkpt>
      <trkpt lat="43.32474" lon="2.66435">
        <ele>140.01</ele>
        <time>2015-01-12T13:58:54Z</time>
      </trkpt>
      <trkpt lat="43.32472" lon="2.66437">
        <ele>140.01</ele>
        <time>2015-01-12T13:59:00Z</time>
      </trkpt>
      <trkpt lat="43.32473" lon="2.66433">
        <ele>140.01</ele>
        <time>2015-01-12T13:59:03Z</time>
      </trkpt>
      <trkpt lat="43.32477" lon="2.66416">
        <ele>140.97</ele>
        <time>2015-01-12T13:59:16Z</time>
      </trkpt>
      <trkpt lat="43.32478" lon="2.66411">
        <ele>141.45</ele>
        <time>2015-01-12T13:59:28Z</time>
      </trkpt>
      <trkpt lat="43.32478" lon="2.66405">
        <ele>141.45</ele>
        <time>2015-01-12T13:59:37Z</time>
      </trkpt>
      <trkpt lat="43.32479" lon="2.66402">
        <ele>141.45</ele>
        <time>2015-01-12T13:59:40Z</time>
      </trkpt>
      <trkpt lat="43.32481" lon="2.66394">
        <ele>141.93</ele>
        <time>2015-01-12T13:59:44Z</time>
      </trkpt>
      <trkpt lat="43.32484" lon="2.66377">
        <ele>141.93</ele>
        <time>2015-01-12T13:59:54Z</time>
      </trkpt>
      <trkpt lat="43.32488" lon="2.66356">
        <ele>142.89</ele>
        <time>2015-01-12T14:00:10Z</time>
      </trkpt>
      <trkpt lat="43.32488" lon="2.66355">
        <ele>142.41</ele>
        <time>2015-01-12T14:00:26Z</time>
      </trkpt>
      <trkpt lat="43.32488" lon="2.66355">
        <ele>141.93</ele>
        <time>2015-01-12T14:00:29Z</time>
      </trkpt>
      <trkpt lat="43.32488" lon="2.66353">
        <ele>141.93</ele>
        <time>2015-01-12T14:00:31Z</time>
      </trkpt>
      <trkpt lat="43.32486" lon="2.66338">
        <ele>142.89</ele>
        <time>2015-01-12T14:00:42Z</time>
      </trkpt>
      <trkpt lat="43.32486" lon="2.66337">
        <ele>142.89</ele>
        <time>2015-01-12T14:00:43Z</time>
      </trkpt>
      <trkpt lat="43.32484" lon="2.66332">
        <ele>142.41</ele>
        <time>2015-01-12T14:00:47Z</time>
      </trkpt>
      <trkpt lat="43.32483" lon="2.66323">
        <ele>143.85</ele>
        <time>2015-01-12T14:01:00Z</time>
      </trkpt>
      <trkpt lat="43.32484" lon="2.66322">
        <ele>144.82</ele>
        <time>2015-01-12T14:01:13Z</time>
      </trkpt>
      <trkpt lat="43.32485" lon="2.66316">
        <ele>144.34</ele>
        <time>2015-01-12T14:01:25Z</time>
      </trkpt>
      <trkpt lat="43.32485" lon="2.66315">
        <ele>144.34</ele>
        <time>2015-01-12T14:01:37Z</time>
      </trkpt>
      <trkpt lat="43.32483" lon="2.66302">
        <ele>145.3</ele>
        <time>2015-01-12T14:01:49Z</time>
      </trkpt>
      <trkpt lat="43.32483" lon="2.66301">
        <ele>144.34</ele>
        <time>2015-01-12T14:01:50Z</time>
      </trkpt>
      <trkpt lat="43.32484" lon="2.66293">
        <ele>145.78</ele>
        <time>2015-01-12T14:01:56Z</time>
      </trkpt>
      <trkpt lat="43.32489" lon="2.66279">
        <ele>145.3</ele>
        <time>2015-01-12T14:02:05Z</time>
      </trkpt>
      <trkpt lat="43.32494" lon="2.66267">
        <ele>146.26</ele>
        <time>2015-01-12T14:02:14Z</time>
      </trkpt>
      <trkpt lat="43.32496" lon="2.66258">
        <ele>146.74</ele>
        <time>2015-01-12T14:02:20Z</time>
      </trkpt>
      <trkpt lat="43.32497" lon="2.66256">
        <ele>146.74</ele>
        <time>2015-01-12T14:02:24Z</time>
      </trkpt>
      <trkpt lat="43.32499" lon="2.66253">
        <ele>146.74</ele>
        <time>2015-01-12T14:02:27Z</time>
      </trkpt>
      <trkpt lat="43.32503" lon="2.66237">
        <ele>147.7</ele>
        <time>2015-01-12T14:02:37Z</time>
      </trkpt>
      <trkpt lat="43.32507" lon="2.66212">
        <ele>146.74</ele>
        <time>2015-01-12T14:02:53Z</time>
      </trkpt>
      <trkpt lat="43.32508" lon="2.6619">
        <ele>146.74</ele>
        <time>2015-01-12T14:03:07Z</time>
      </trkpt>
      <trkpt lat="43.32507" lon="2.66188">
        <ele>146.26</ele>
        <time>2015-01-12T14:03:10Z</time>
      </trkpt>
      <trkpt lat="43.32507" lon="2.66184">
        <ele>146.26</ele>
        <time>2015-01-12T14:03:13Z</time>
      </trkpt>
      <trkpt lat="43.32506" lon="2.66175">
        <ele>146.74</ele>
        <time>2015-01-12T14:03:19Z</time>
      </trkpt>
      <trkpt lat="43.32504" lon="2.66166">
        <ele>146.74</ele>
        <time>2015-01-12T14:03:26Z</time>
      </trkpt>
      <trkpt lat="43.32501" lon="2.66161">
        <ele>147.22</ele>
        <time>2015-01-12T14:03:30Z</time>
      </trkpt>
      <trkpt lat="43.32496" lon="2.66149">
        <ele>148.18</ele>
        <time>2015-01-12T14:03:41Z</time>
      </trkpt>
      <trkpt lat="43.32492" lon="2.66137">
        <ele>149.14</ele>
        <time>2015-01-12T14:03:50Z</time>
      </trkpt>
      <trkpt lat="43.32491" lon="2.66135">
        <ele>149.62</ele>
        <time>2015-01-12T14:03:52Z</time>
      </trkpt>
      <trkpt lat="43.32485" lon="2.66118">
        <ele>150.58</ele>
        <time>2015-01-12T14:04:04Z</time>
      </trkpt>
      <trkpt lat="43.32483" lon="2.66108">
        <ele>150.1</ele>
        <time>2015-01-12T14:04:10Z</time>
      </trkpt>
      <trkpt lat="43.32482" lon="2.66082">
        <ele>150.58</ele>
        <time>2015-01-12T14:04:24Z</time>
      </trkpt>
      <trkpt lat="43.32481" lon="2.66067">
        <ele>150.1</ele>
        <time>2015-01-12T14:04:32Z</time>
      </trkpt>
      <trkpt lat="43.3248" lon="2.66054">
        <ele>149.14</ele>
        <time>2015-01-12T14:04:39Z</time>
      </trkpt>
      <trkpt lat="43.32479" lon="2.66048">
        <ele>148.18</ele>
        <time>2015-01-12T14:04:42Z</time>
      </trkpt>
      <trkpt lat="43.32478" lon="2.66045">
        <ele>148.18</ele>
        <time>2015-01-12T14:04:44Z</time>
      </trkpt>
      <trkpt lat="43.32471" lon="2.66035">
        <ele>147.22</ele>
        <time>2015-01-12T14:04:54Z</time>
      </trkpt>
      <trkpt lat="43.3247" lon="2.66029">
        <ele>147.7</ele>
        <time>2015-01-12T14:04:58Z</time>
      </trkpt>
      <trkpt lat="43.32463" lon="2.66014">
        <ele>147.22</ele>
        <time>2015-01-12T14:05:09Z</time>
      </trkpt>
      <trkpt lat="43.32461" lon="2.65998">
        <ele>148.66</ele>
        <time>2015-01-12T14:05:17Z</time>
      </trkpt>
      <trkpt lat="43.32465" lon="2.65977">
        <ele>149.14</ele>
        <time>2015-01-12T14:05:28Z</time>
      </trkpt>
      <trkpt lat="43.32466" lon="2.6597">
        <ele>150.1</ele>
        <time>2015-01-12T14:05:37Z</time>
      </trkpt>
      <trkpt lat="43.32467" lon="2.65966">
        <ele>149.62</ele>
        <time>2015-01-12T14:05:40Z</time>
      </trkpt>
      <trkpt lat="43.32473" lon="2.65952">
        <ele>149.62</ele>
        <time>2015-01-12T14:05:52Z</time>
      </trkpt>
      <trkpt lat="43.32472" lon="2.65946">
        <ele>151.54</ele>
        <time>2015-01-12T14:05:59Z</time>
      </trkpt>
      <trkpt lat="43.32473" lon="2.65944">
        <ele>152.51</ele>
        <time>2015-01-12T14:06:05Z</time>
      </trkpt>
      <trkpt lat="43.32474" lon="2.65937">
        <ele>152.51</ele>
        <time>2015-01-12T14:06:12Z</time>
      </trkpt>
      <trkpt lat="43.32473" lon="2.65917">
        <ele>152.99</ele>
        <time>2015-01-12T14:06:26Z</time>
      </trkpt>
      <trkpt lat="43.32471" lon="2.65898">
        <ele>153.47</ele>
        <time>2015-01-12T14:06:39Z</time>
      </trkpt>
      <trkpt lat="43.32471" lon="2.6589">
        <ele>152.51</ele>
        <time>2015-01-12T14:06:49Z</time>
      </trkpt>
      <trkpt lat="43.32472" lon="2.65887">
        <ele>152.99</ele>
        <time>2015-01-12T14:06:53Z</time>
      </trkpt>
      <trkpt lat="43.32475" lon="2.6588">
        <ele>153.47</ele>
        <time>2015-01-12T14:07:04Z</time>
      </trkpt>
      <trkpt lat="43.32476" lon="2.65876">
        <ele>153.47</ele>
        <time>2015-01-12T14:07:09Z</time>
      </trkpt>
      <trkpt lat="43.32478" lon="2.65871">
        <ele>153.47</ele>
        <time>2015-01-12T14:07:14Z</time>
      </trkpt>
      <trkpt lat="43.32483" lon="2.65865">
        <ele>153.95</ele>
        <time>2015-01-12T14:07:19Z</time>
      </trkpt>
      <trkpt lat="43.32488" lon="2.65861">
        <ele>153.95</ele>
        <time>2015-01-12T14:07:23Z</time>
      </trkpt>
      <trkpt lat="43.32494" lon="2.65842">
        <ele>154.43</ele>
        <time>2015-01-12T14:07:36Z</time>
      </trkpt>
      <trkpt lat="43.32494" lon="2.65838">
        <ele>154.91</ele>
        <time>2015-01-12T14:07:39Z</time>
      </trkpt>
      <trkpt lat="43.32495" lon="2.65831">
        <ele>154.91</ele>
        <time>2015-01-12T14:07:43Z</time>
      </trkpt>
      <trkpt lat="43.32496" lon="2.65826">
        <ele>154.91</ele>
        <time>2015-01-12T14:07:46Z</time>
      </trkpt>
      <trkpt lat="43.32496" lon="2.6581">
        <ele>154.91</ele>
        <time>2015-01-12T14:07:56Z</time>
      </trkpt>
      <trkpt lat="43.32495" lon="2.65803">
        <ele>154.91</ele>
        <time>2015-01-12T14:08:01Z</time>
      </trkpt>
      <trkpt lat="43.32497" lon="2.65798">
        <ele>154.91</ele>
        <time>2015-01-12T14:08:05Z</time>
      </trkpt>
      <trkpt lat="43.325" lon="2.65784">
        <ele>155.39</ele>
        <time>2015-01-12T14:08:15Z</time>
      </trkpt>
      <trkpt lat="43.32501" lon="2.65776">
        <ele>155.87</ele>
        <time>2015-01-12T14:08:26Z</time>
      </trkpt>
      <trkpt lat="43.32499" lon="2.65768">
        <ele>156.35</ele>
        <time>2015-01-12T14:08:32Z</time>
      </trkpt>
      <trkpt lat="43.32495" lon="2.65765">
        <ele>155.39</ele>
        <time>2015-01-12T14:08:36Z</time>
      </trkpt>
      <trkpt lat="43.32494" lon="2.65763">
        <ele>155.87</ele>
        <time>2015-01-12T14:08:40Z</time>
      </trkpt>
      <trkpt lat="43.32492" lon="2.65764">
        <ele>155.39</ele>
        <time>2015-01-12T14:08:43Z</time>
      </trkpt>
      <trkpt lat="43.32489" lon="2.65762">
        <ele>155.39</ele>
        <time>2015-01-12T14:08:55Z</time>
      </trkpt>
      <trkpt lat="43.32492" lon="2.6576">
        <ele>155.39</ele>
        <time>2015-01-12T14:08:59Z</time>
      </trkpt>
      <trkpt lat="43.32501" lon="2.65753">
        <ele>156.35</ele>
        <time>2015-01-12T14:09:08Z</time>
      </trkpt>
      <trkpt lat="43.32515" lon="2.65738">
        <ele>158.27</ele>
        <time>2015-01-12T14:09:22Z</time>
      </trkpt>
      <trkpt lat="43.32517" lon="2.65737">
        <ele>158.27</ele>
        <time>2015-01-12T14:09:24Z</time>
      </trkpt>
      <trkpt lat="43.32523" lon="2.65726">
        <ele>159.72</ele>
        <time>2015-01-12T14:09:33Z</time>
      </trkpt>
      <trkpt lat="43.32533" lon="2.65707">
        <ele>161.64</ele>
        <time>2015-01-12T14:09:47Z</time>
      </trkpt>
      <trkpt lat="43.32541" lon="2.65685">
        <ele>163.08</ele>
        <time>2015-01-12T14:10:00Z</time>
      </trkpt>
      <trkpt lat="43.32548" lon="2.65669">
        <ele>163.08</ele>
        <time>2015-01-12T14:10:11Z</time>
      </trkpt>
      <trkpt lat="43.32555" lon="2.65653">
        <ele>164.04</ele>
        <time>2015-01-12T14:10:21Z</time>
      </trkpt>
      <trkpt lat="43.32559" lon="2.65647">
        <ele>164.52</ele>
        <time>2015-01-12T14:10:25Z</time>
      </trkpt>
      <trkpt lat="43.32564" lon="2.65642">
        <ele>164.52</ele>
        <time>2015-01-12T14:10:29Z</time>
      </trkpt>
      <trkpt lat="43.32575" lon="2.65622">
        <ele>164.04</ele>
        <time>2015-01-12T14:10:42Z</time>
      </trkpt>
      <trkpt lat="43.32583" lon="2.65603">
        <ele>165</ele>
        <time>2015-01-12T14:10:54Z</time>
      </trkpt>
      <trkpt lat="43.32585" lon="2.6559">
        <ele>165.96</ele>
        <time>2015-01-12T14:11:06Z</time>
      </trkpt>
      <trkpt lat="43.32588" lon="2.65569">
        <ele>166.45</ele>
        <time>2015-01-12T14:11:20Z</time>
      </trkpt>
      <trkpt lat="43.32591" lon="2.65545">
        <ele>166.93</ele>
        <time>2015-01-12T14:11:34Z</time>
      </trkpt>
      <trkpt lat="43.32594" lon="2.65522">
        <ele>167.89</ele>
        <time>2015-01-12T14:11:48Z</time>
      </trkpt>
      <trkpt lat="43.326" lon="2.65499">
        <ele>169.33</ele>
        <time>2015-01-12T14:12:02Z</time>
      </trkpt>
      <trkpt lat="43.32602" lon="2.65496">
        <ele>169.81</ele>
        <time>2015-01-12T14:12:05Z</time>
      </trkpt>
      <trkpt lat="43.32611" lon="2.65482">
        <ele>170.77</ele>
        <time>2015-01-12T14:12:15Z</time>
      </trkpt>
      <trkpt lat="43.32619" lon="2.65472">
        <ele>172.21</ele>
        <time>2015-01-12T14:12:24Z</time>
      </trkpt>
      <trkpt lat="43.32626" lon="2.65464">
        <ele>172.21</ele>
        <time>2015-01-12T14:12:30Z</time>
      </trkpt>
      <trkpt lat="43.32629" lon="2.65462">
        <ele>172.69</ele>
        <time>2015-01-12T14:12:33Z</time>
      </trkpt>
      <trkpt lat="43.3263" lon="2.6546">
        <ele>173.17</ele>
        <time>2015-01-12T14:12:35Z</time>
      </trkpt>
      <trkpt lat="43.32633" lon="2.65457">
        <ele>173.17</ele>
        <time>2015-01-12T14:12:38Z</time>
      </trkpt>
      <trkpt lat="43.32638" lon="2.65447">
        <ele>174.62</ele>
        <time>2015-01-12T14:12:48Z</time>
      </trkpt>
      <trkpt lat="43.3264" lon="2.65445">
        <ele>174.14</ele>
        <time>2015-01-12T14:12:50Z</time>
      </trkpt>
      <trkpt lat="43.32644" lon="2.6544">
        <ele>174.62</ele>
        <time>2015-01-12T14:12:54Z</time>
      </trkpt>
      <trkpt lat="43.3265" lon="2.6543">
        <ele>175.58</ele>
        <time>2015-01-12T14:13:02Z</time>
      </trkpt>
      <trkpt lat="43.32655" lon="2.65424">
        <ele>175.58</ele>
        <time>2015-01-12T14:13:09Z</time>
      </trkpt>
      <trkpt lat="43.32657" lon="2.65422">
        <ele>176.54</ele>
        <time>2015-01-12T14:13:12Z</time>
      </trkpt>
      <trkpt lat="43.32662" lon="2.65417">
        <ele>176.54</ele>
        <time>2015-01-12T14:13:19Z</time>
      </trkpt>
      <trkpt lat="43.32668" lon="2.65405">
        <ele>177.02</ele>
        <time>2015-01-12T14:13:30Z</time>
      </trkpt>
      <trkpt lat="43.32672" lon="2.654">
        <ele>177.02</ele>
        <time>2015-01-12T14:13:40Z</time>
      </trkpt>
      <trkpt lat="43.32679" lon="2.65401">
        <ele>177.02</ele>
        <time>2015-01-12T14:13:54Z</time>
      </trkpt>
      <trkpt lat="43.32681" lon="2.65402">
        <ele>177.5</ele>
        <time>2015-01-12T14:14:08Z</time>
      </trkpt>
      <trkpt lat="43.3268" lon="2.65406">
        <ele>177.02</ele>
        <time>2015-01-12T14:14:15Z</time>
      </trkpt>
      <trkpt lat="43.32683" lon="2.65412">
        <ele>177.5</ele>
        <time>2015-01-12T14:14:26Z</time>
      </trkpt>
      <trkpt lat="43.32684" lon="2.65411">
        <ele>177.5</ele>
        <time>2015-01-12T14:14:38Z</time>
      </trkpt>
      <trkpt lat="43.32685" lon="2.65419">
        <ele>177.5</ele>
        <time>2015-01-12T14:14:50Z</time>
      </trkpt>
      <trkpt lat="43.32684" lon="2.65417">
        <ele>177.98</ele>
        <time>2015-01-12T14:15:01Z</time>
      </trkpt>
      <trkpt lat="43.32684" lon="2.65416">
        <ele>177.5</ele>
        <time>2015-01-12T14:15:13Z</time>
      </trkpt>
      <trkpt lat="43.32683" lon="2.65417">
        <ele>177.02</ele>
        <time>2015-01-12T14:15:29Z</time>
      </trkpt>
      <trkpt lat="43.32681" lon="2.65418">
        <ele>177.02</ele>
        <time>2015-01-12T14:15:40Z</time>
      </trkpt>
      <trkpt lat="43.32682" lon="2.65419">
        <ele>177.02</ele>
        <time>2015-01-12T14:16:14Z</time>
      </trkpt>
      <trkpt lat="43.32682" lon="2.65419">
        <ele>176.54</ele>
        <time>2015-01-12T14:16:46Z</time>
      </trkpt>
      <trkpt lat="43.32682" lon="2.65419">
        <ele>176.54</ele>
        <time>2015-01-12T14:17:09Z</time>
      </trkpt>
      <trkpt lat="43.32681" lon="2.65419">
        <ele>173.17</ele>
        <time>2015-01-12T14:17:36Z</time>
      </trkpt>
      <trkpt lat="43.32681" lon="2.65419">
        <ele>175.1</ele>
        <time>2015-01-12T14:17:37Z</time>
      </trkpt>
      <trkpt lat="43.32681" lon="2.65419">
        <ele>176.54</ele>
        <time>2015-01-12T14:17:46Z</time>
      </trkpt>
      <trkpt lat="43.32681" lon="2.65419">
        <ele>172.69</ele>
        <time>2015-01-12T14:17:48Z</time>
      </trkpt>
      <trkpt lat="43.32681" lon="2.65419">
        <ele>177.98</ele>
        <time>2015-01-12T14:17:50Z</time>
      </trkpt>
      <trkpt lat="43.32681" lon="2.65419">
        <ele>176.54</ele>
        <time>2015-01-12T14:17:51Z</time>
      </trkpt>
      <trkpt lat="43.32681" lon="2.65419">
        <ele>172.69</ele>
        <time>2015-01-12T14:17:53Z</time>
      </trkpt>
      <trkpt lat="43.32681" lon="2.65419">
        <ele>177.5</ele>
        <time>2015-01-12T14:17:54Z</time>
      </trkpt>
      <trkpt lat="43.32681" lon="2.65419">
        <ele>171.73</ele>
        <time>2015-01-12T14:17:55Z</time>
      </trkpt>
      <trkpt lat="43.32681" lon="2.65419">
        <ele>175.58</ele>
        <time>2015-01-12T14:17:56Z</time>
      </trkpt>
      <trkpt lat="43.32681" lon="2.65419">
        <ele>177.02</ele>
        <time>2015-01-12T14:17:58Z</time>
      </trkpt>
      <trkpt lat="43.32681" lon="2.65419">
        <ele>175.58</ele>
        <time>2015-01-12T14:18:00Z</time>
      </trkpt>
      <trkpt lat="43.32681" lon="2.65419">
        <ele>181.83</ele>
        <time>2015-01-12T14:18:01Z</time>
      </trkpt>
      <trkpt lat="43.32681" lon="2.65419">
        <ele>175.58</ele>
        <time>2015-01-12T14:18:02Z</time>
      </trkpt>
      <trkpt lat="43.32681" lon="2.65419">
        <ele>176.06</ele>
        <time>2015-01-12T14:18:27Z</time>
      </trkpt>
      <trkpt lat="43.32681" lon="2.65419">
        <ele>174.62</ele>
        <time>2015-01-12T14:18:49Z</time>
      </trkpt>
      <trkpt lat="43.32681" lon="2.65418">
        <ele>175.1</ele>
        <time>2015-01-12T14:19:16Z</time>
      </trkpt>
      <trkpt lat="43.32681" lon="2.65419">
        <ele>175.1</ele>
        <time>2015-01-12T14:19:33Z</time>
      </trkpt>
      <trkpt lat="43.32681" lon="2.65419">
        <ele>176.06</ele>
        <time>2015-01-12T14:19:37Z</time>
      </trkpt>
      <trkpt lat="43.32682" lon="2.65417">
        <ele>175.58</ele>
        <time>2015-01-12T14:20:06Z</time>
      </trkpt>
      <trkpt lat="43.32682" lon="2.65418">
        <ele>175.58</ele>
        <time>2015-01-12T14:20:31Z</time>
      </trkpt>
      <trkpt lat="43.32681" lon="2.65418">
        <ele>175.1</ele>
        <time>2015-01-12T14:20:59Z</time>
      </trkpt>
      <trkpt lat="43.32682" lon="2.65418">
        <ele>175.1</ele>
        <time>2015-01-12T14:21:21Z</time>
      </trkpt>
      <trkpt lat="43.32682" lon="2.65419">
        <ele>175.1</ele>
        <time>2015-01-12T14:21:39Z</time>
      </trkpt>
      <trkpt lat="43.32682" lon="2.65418">
        <ele>174.62</ele>
        <time>2015-01-12T14:21:59Z</time>
      </trkpt>
      <trkpt lat="43.32682" lon="2.65419">
        <ele>174.62</ele>
        <time>2015-01-12T14:22:17Z</time>
      </trkpt>
      <trkpt lat="43.32681" lon="2.6542">
        <ele>175.1</ele>
        <time>2015-01-12T14:22:34Z</time>
      </trkpt>
      <trkpt lat="43.32681" lon="2.6542">
        <ele>175.1</ele>
        <time>2015-01-12T14:22:58Z</time>
      </trkpt>
      <trkpt lat="43.32681" lon="2.65419">
        <ele>173.66</ele>
        <time>2015-01-12T14:23:23Z</time>
      </trkpt>
      <trkpt lat="43.32681" lon="2.65419">
        <ele>173.17</ele>
        <time>2015-01-12T14:23:54Z</time>
      </trkpt>
      <trkpt lat="43.32681" lon="2.65419">
        <ele>174.62</ele>
        <time>2015-01-12T14:24:15Z</time>
      </trkpt>
      <trkpt lat="43.32682" lon="2.65419">
        <ele>174.62</ele>
        <time>2015-01-12T14:24:34Z</time>
      </trkpt>
      <trkpt lat="43.32682" lon="2.65419">
        <ele>174.62</ele>
        <time>2015-01-12T14:25:03Z</time>
      </trkpt>
      <trkpt lat="43.32681" lon="2.65418">
        <ele>175.1</ele>
        <time>2015-01-12T14:25:18Z</time>
      </trkpt>
      <trkpt lat="43.32681" lon="2.65419">
        <ele>175.1</ele>
        <time>2015-01-12T14:25:28Z</time>
      </trkpt>
      <trkpt lat="43.32687" lon="2.65422">
        <ele>175.1</ele>
        <time>2015-01-12T14:25:46Z</time>
      </trkpt>
      <trkpt lat="43.32695" lon="2.65427">
        <ele>175.1</ele>
        <time>2015-01-12T14:26:01Z</time>
      </trkpt>
      <trkpt lat="43.32705" lon="2.65436">
        <ele>176.06</ele>
        <time>2015-01-12T14:26:12Z</time>
      </trkpt>
      <trkpt lat="43.32719" lon="2.65449">
        <ele>177.02</ele>
        <time>2015-01-12T14:26:29Z</time>
      </trkpt>
      <trkpt lat="43.32732" lon="2.65457">
        <ele>180.38</ele>
        <time>2015-01-12T14:26:42Z</time>
      </trkpt>
      <trkpt lat="43.32734" lon="2.65458">
        <ele>177.5</ele>
        <time>2015-01-12T14:26:44Z</time>
      </trkpt>
      <trkpt lat="43.32735" lon="2.65459">
        <ele>180.87</ele>
        <time>2015-01-12T14:26:45Z</time>
      </trkpt>
      <trkpt lat="43.32736" lon="2.6546">
        <ele>176.54</ele>
        <time>2015-01-12T14:26:46Z</time>
      </trkpt>
      <trkpt lat="43.3274" lon="2.65462">
        <ele>180.38</ele>
        <time>2015-01-12T14:26:50Z</time>
      </trkpt>
      <trkpt lat="43.32742" lon="2.65462">
        <ele>180.38</ele>
        <time>2015-01-12T14:26:51Z</time>
      </trkpt>
      <trkpt lat="43.32748" lon="2.65464">
        <ele>181.35</ele>
        <time>2015-01-12T14:26:58Z</time>
      </trkpt>
      <trkpt lat="43.32756" lon="2.65465">
        <ele>182.79</ele>
        <time>2015-01-12T14:27:06Z</time>
      </trkpt>
      <trkpt lat="43.32758" lon="2.65466">
        <ele>182.31</ele>
        <time>2015-01-12T14:27:07Z</time>
      </trkpt>
      <trkpt lat="43.32759" lon="2.65467">
        <ele>178.94</ele>
        <time>2015-01-12T14:27:08Z</time>
      </trkpt>
      <trkpt lat="43.3276" lon="2.65467">
        <ele>179.9</ele>
        <time>2015-01-12T14:27:09Z</time>
      </trkpt>
      <trkpt lat="43.32763" lon="2.65469">
        <ele>182.79</ele>
        <time>2015-01-12T14:27:12Z</time>
      </trkpt>
      <trkpt lat="43.32764" lon="2.65469">
        <ele>182.31</ele>
        <time>2015-01-12T14:27:13Z</time>
      </trkpt>
      <trkpt lat="43.32774" lon="2.65474">
        <ele>181.35</ele>
        <time>2015-01-12T14:27:23Z</time>
      </trkpt>
      <trkpt lat="43.3279" lon="2.65483">
        <ele>186.15</ele>
        <time>2015-01-12T14:27:38Z</time>
      </trkpt>
      <trkpt lat="43.32791" lon="2.65484">
        <ele>181.83</ele>
        <time>2015-01-12T14:27:39Z</time>
      </trkpt>
      <trkpt lat="43.32797" lon="2.65486">
        <ele>182.31</ele>
        <time>2015-01-12T14:27:44Z</time>
      </trkpt>
      <trkpt lat="43.32799" lon="2.65486">
        <ele>183.75</ele>
        <time>2015-01-12T14:27:46Z</time>
      </trkpt>
      <trkpt lat="43.328" lon="2.65487">
        <ele>179.9</ele>
        <time>2015-01-12T14:27:47Z</time>
      </trkpt>
      <trkpt lat="43.32801" lon="2.65487">
        <ele>181.83</ele>
        <time>2015-01-12T14:27:48Z</time>
      </trkpt>
      <trkpt lat="43.32816" lon="2.65494">
        <ele>182.79</ele>
        <time>2015-01-12T14:28:02Z</time>
      </trkpt>
      <trkpt lat="43.32833" lon="2.65495">
        <ele>183.27</ele>
        <time>2015-01-12T14:28:17Z</time>
      </trkpt>
      <trkpt lat="43.32836" lon="2.65494">
        <ele>183.75</ele>
        <time>2015-01-12T14:28:20Z</time>
      </trkpt>
      <trkpt lat="43.32838" lon="2.65494">
        <ele>182.79</ele>
        <time>2015-01-12T14:28:22Z</time>
      </trkpt>
      <trkpt lat="43.32858" lon="2.6549">
        <ele>183.75</ele>
        <time>2015-01-12T14:28:39Z</time>
      </trkpt>
      <trkpt lat="43.32874" lon="2.65481">
        <ele>184.71</ele>
        <time>2015-01-12T14:28:53Z</time>
      </trkpt>
      <trkpt lat="43.32876" lon="2.6548">
        <ele>184.23</ele>
        <time>2015-01-12T14:28:55Z</time>
      </trkpt>
      <trkpt lat="43.32878" lon="2.65477">
        <ele>186.15</ele>
        <time>2015-01-12T14:28:58Z</time>
      </trkpt>
      <trkpt lat="43.32893" lon="2.65467">
        <ele>185.67</ele>
        <time>2015-01-12T14:29:14Z</time>
      </trkpt>
      <trkpt lat="43.32893" lon="2.65466">
        <ele>185.67</ele>
        <time>2015-01-12T14:29:16Z</time>
      </trkpt>
      <trkpt lat="43.32904" lon="2.6546">
        <ele>188.56</ele>
        <time>2015-01-12T14:29:25Z</time>
      </trkpt>
      <trkpt lat="43.32907" lon="2.6546">
        <ele>185.19</ele>
        <time>2015-01-12T14:29:27Z</time>
      </trkpt>
      <trkpt lat="43.32908" lon="2.65459">
        <ele>185.67</ele>
        <time>2015-01-12T14:29:28Z</time>
      </trkpt>
      <trkpt lat="43.32914" lon="2.65459">
        <ele>189.52</ele>
        <time>2015-01-12T14:29:34Z</time>
      </trkpt>
      <trkpt lat="43.32922" lon="2.65458">
        <ele>188.56</ele>
        <time>2015-01-12T14:29:41Z</time>
      </trkpt>
      <trkpt lat="43.32926" lon="2.65457">
        <ele>186.15</ele>
        <time>2015-01-12T14:29:47Z</time>
      </trkpt>
      <trkpt lat="43.32936" lon="2.65457">
        <ele>189.52</ele>
        <time>2015-01-12T14:29:54Z</time>
      </trkpt>
      <trkpt lat="43.32937" lon="2.65457">
        <ele>186.15</ele>
        <time>2015-01-12T14:29:55Z</time>
      </trkpt>
      <trkpt lat="43.32949" lon="2.6546">
        <ele>188.56</ele>
        <time>2015-01-12T14:30:08Z</time>
      </trkpt>
      <trkpt lat="43.32949" lon="2.65459">
        <ele>187.59</ele>
        <time>2015-01-12T14:30:17Z</time>
      </trkpt>
      <trkpt lat="43.32956" lon="2.65459">
        <ele>185.67</ele>
        <time>2015-01-12T14:30:22Z</time>
      </trkpt>
      <trkpt lat="43.32966" lon="2.65461">
        <ele>190</ele>
        <time>2015-01-12T14:30:29Z</time>
      </trkpt>
      <trkpt lat="43.3297" lon="2.65466">
        <ele>186.63</ele>
        <time>2015-01-12T14:30:34Z</time>
      </trkpt>
      <trkpt lat="43.3297" lon="2.65467">
        <ele>187.11</ele>
        <time>2015-01-12T14:30:35Z</time>
      </trkpt>
      <trkpt lat="43.32976" lon="2.65474">
        <ele>190.96</ele>
        <time>2015-01-12T14:30:41Z</time>
      </trkpt>
      <trkpt lat="43.32983" lon="2.65485">
        <ele>186.63</ele>
        <time>2015-01-12T14:30:49Z</time>
      </trkpt>
      <trkpt lat="43.32984" lon="2.65489">
        <ele>190</ele>
        <time>2015-01-12T14:30:52Z</time>
      </trkpt>
      <trkpt lat="43.32989" lon="2.65501">
        <ele>191.92</ele>
        <time>2015-01-12T14:30:58Z</time>
      </trkpt>
      <trkpt lat="43.32991" lon="2.65503">
        <ele>191.44</ele>
        <time>2015-01-12T14:30:59Z</time>
      </trkpt>
      <trkpt lat="43.32993" lon="2.65508">
        <ele>187.59</ele>
        <time>2015-01-12T14:31:01Z</time>
      </trkpt>
      <trkpt lat="43.33012" lon="2.65535">
        <ele>189.04</ele>
        <time>2015-01-12T14:31:11Z</time>
      </trkpt>
      <trkpt lat="43.33017" lon="2.65548">
        <ele>191.44</ele>
        <time>2015-01-12T14:31:15Z</time>
      </trkpt>
      <trkpt lat="43.33019" lon="2.65551">
        <ele>188.08</ele>
        <time>2015-01-12T14:31:16Z</time>
      </trkpt>
      <trkpt lat="43.33022" lon="2.65558">
        <ele>190</ele>
        <time>2015-01-12T14:31:18Z</time>
      </trkpt>
      <trkpt lat="43.33027" lon="2.65566">
        <ele>190.96</ele>
        <time>2015-01-12T14:31:21Z</time>
      </trkpt>
      <trkpt lat="43.33044" lon="2.65587">
        <ele>184.71</ele>
        <time>2015-01-12T14:31:30Z</time>
      </trkpt>
      <trkpt lat="43.33045" lon="2.65588">
        <ele>187.11</ele>
        <time>2015-01-12T14:31:31Z</time>
      </trkpt>
      <trkpt lat="43.33047" lon="2.6559">
        <ele>189.04</ele>
        <time>2015-01-12T14:31:33Z</time>
      </trkpt>
      <trkpt lat="43.33049" lon="2.65591">
        <ele>190.48</ele>
        <time>2015-01-12T14:31:35Z</time>
      </trkpt>
      <trkpt lat="43.33051" lon="2.65592">
        <ele>186.63</ele>
        <time>2015-01-12T14:31:37Z</time>
      </trkpt>
      <trkpt lat="43.33052" lon="2.65593">
        <ele>190.96</ele>
        <time>2015-01-12T14:31:39Z</time>
      </trkpt>
      <trkpt lat="43.33051" lon="2.65593">
        <ele>190.48</ele>
        <time>2015-01-12T14:31:40Z</time>
      </trkpt>
      <trkpt lat="43.33055" lon="2.65598">
        <ele>194.32</ele>
        <time>2015-01-12T14:31:54Z</time>
      </trkpt>
      <trkpt lat="43.33055" lon="2.656">
        <ele>189.04</ele>
        <time>2015-01-12T14:31:55Z</time>
      </trkpt>
      <trkpt lat="43.33056" lon="2.65602">
        <ele>194.8</ele>
        <time>2015-01-12T14:31:57Z</time>
      </trkpt>
      <trkpt lat="43.33057" lon="2.65603">
        <ele>187.11</ele>
        <time>2015-01-12T14:31:58Z</time>
      </trkpt>
      <trkpt lat="43.33057" lon="2.65606">
        <ele>190.48</ele>
        <time>2015-01-12T14:32:00Z</time>
      </trkpt>
      <trkpt lat="43.33062" lon="2.65613">
        <ele>189.04</ele>
        <time>2015-01-12T14:32:05Z</time>
      </trkpt>
      <trkpt lat="43.33064" lon="2.65616">
        <ele>188.08</ele>
        <time>2015-01-12T14:32:07Z</time>
      </trkpt>
      <trkpt lat="43.33065" lon="2.65618">
        <ele>192.88</ele>
        <time>2015-01-12T14:32:09Z</time>
      </trkpt>
      <trkpt lat="43.33066" lon="2.65619">
        <ele>184.71</ele>
        <time>2015-01-12T14:32:10Z</time>
      </trkpt>
      <trkpt lat="43.33067" lon="2.65621">
        <ele>194.8</ele>
        <time>2015-01-12T14:32:11Z</time>
      </trkpt>
      <trkpt lat="43.33067" lon="2.65622">
        <ele>189.04</ele>
        <time>2015-01-12T14:32:12Z</time>
      </trkpt>
      <trkpt lat="43.33069" lon="2.65624">
        <ele>190.48</ele>
        <time>2015-01-12T14:32:14Z</time>
      </trkpt>
      <trkpt lat="43.33075" lon="2.65632">
        <ele>195.77</ele>
        <time>2015-01-12T14:32:21Z</time>
      </trkpt>
      <trkpt lat="43.33075" lon="2.65633">
        <ele>188.56</ele>
        <time>2015-01-12T14:32:22Z</time>
      </trkpt>
      <trkpt lat="43.33076" lon="2.65634">
        <ele>192.4</ele>
        <time>2015-01-12T14:32:23Z</time>
      </trkpt>
      <trkpt lat="43.3308" lon="2.65639">
        <ele>190.96</ele>
        <time>2015-01-12T14:32:30Z</time>
      </trkpt>
      <trkpt lat="43.33082" lon="2.65641">
        <ele>191.92</ele>
        <time>2015-01-12T14:32:32Z</time>
      </trkpt>
      <trkpt lat="43.33087" lon="2.65648">
        <ele>188.56</ele>
        <time>2015-01-12T14:32:39Z</time>
      </trkpt>
      <trkpt lat="43.33089" lon="2.65649">
        <ele>193.84</ele>
        <time>2015-01-12T14:32:41Z</time>
      </trkpt>
      <trkpt lat="43.3309" lon="2.6565">
        <ele>188.08</ele>
        <time>2015-01-12T14:32:42Z</time>
      </trkpt>
      <trkpt lat="43.33091" lon="2.65651">
        <ele>193.84</ele>
        <time>2015-01-12T14:32:43Z</time>
      </trkpt>
      <trkpt lat="43.33092" lon="2.65652">
        <ele>190.48</ele>
        <time>2015-01-12T14:32:44Z</time>
      </trkpt>
      <trkpt lat="43.33095" lon="2.65653">
        <ele>193.84</ele>
        <time>2015-01-12T14:32:47Z</time>
      </trkpt>
      <trkpt lat="43.33096" lon="2.65654">
        <ele>189.04</ele>
        <time>2015-01-12T14:32:48Z</time>
      </trkpt>
      <trkpt lat="43.33097" lon="2.65654">
        <ele>190</ele>
        <time>2015-01-12T14:32:49Z</time>
      </trkpt>
      <trkpt lat="43.33104" lon="2.65658">
        <ele>187.11</ele>
        <time>2015-01-12T14:32:55Z</time>
      </trkpt>
      <trkpt lat="43.33104" lon="2.65659">
        <ele>199.61</ele>
        <time>2015-01-12T14:32:56Z</time>
      </trkpt>
      <trkpt lat="43.33105" lon="2.6566">
        <ele>193.36</ele>
        <time>2015-01-12T14:32:57Z</time>
      </trkpt>
      <trkpt lat="43.33106" lon="2.65661">
        <ele>196.73</ele>
        <time>2015-01-12T14:32:58Z</time>
      </trkpt>
      <trkpt lat="43.33107" lon="2.65662">
        <ele>190.48</ele>
        <time>2015-01-12T14:32:59Z</time>
      </trkpt>
      <trkpt lat="43.33108" lon="2.65663">
        <ele>194.32</ele>
        <time>2015-01-12T14:33:00Z</time>
      </trkpt>
      <trkpt lat="43.33109" lon="2.65664">
        <ele>189.04</ele>
        <time>2015-01-12T14:33:01Z</time>
      </trkpt>
      <trkpt lat="43.3311" lon="2.65665">
        <ele>195.28</ele>
        <time>2015-01-12T14:33:02Z</time>
      </trkpt>
      <trkpt lat="43.33111" lon="2.65665">
        <ele>193.84</ele>
        <time>2015-01-12T14:33:03Z</time>
      </trkpt>
      <trkpt lat="43.33116" lon="2.6567">
        <ele>189.52</ele>
        <time>2015-01-12T14:33:08Z</time>
      </trkpt>
      <trkpt lat="43.33117" lon="2.6567">
        <ele>192.88</ele>
        <time>2015-01-12T14:33:09Z</time>
      </trkpt>
      <trkpt lat="43.33118" lon="2.65673">
        <ele>197.21</ele>
        <time>2015-01-12T14:33:11Z</time>
      </trkpt>
      <trkpt lat="43.33119" lon="2.65674">
        <ele>191.44</ele>
        <time>2015-01-12T14:33:12Z</time>
      </trkpt>
      <trkpt lat="43.3312" lon="2.65674">
        <ele>194.32</ele>
        <time>2015-01-12T14:33:14Z</time>
      </trkpt>
      <trkpt lat="43.3312" lon="2.65675">
        <ele>193.36</ele>
        <time>2015-01-12T14:33:19Z</time>
      </trkpt>
      <trkpt lat="43.33122" lon="2.65675">
        <ele>192.4</ele>
        <time>2015-01-12T14:33:30Z</time>
      </trkpt>
      <trkpt lat="43.33123" lon="2.65676">
        <ele>195.28</ele>
        <time>2015-01-12T14:33:37Z</time>
      </trkpt>
      <trkpt lat="43.33123" lon="2.65676">
        <ele>190.48</ele>
        <time>2015-01-12T14:33:38Z</time>
      </trkpt>
      <trkpt lat="43.33123" lon="2.65676">
        <ele>195.77</ele>
        <time>2015-01-12T14:33:39Z</time>
      </trkpt>
      <trkpt lat="43.33123" lon="2.65676">
        <ele>192.4</ele>
        <time>2015-01-12T14:33:41Z</time>
      </trkpt>
      <trkpt lat="43.33123" lon="2.65676">
        <ele>193.36</ele>
        <time>2015-01-12T14:33:42Z</time>
      </trkpt>
      <trkpt lat="43.33127" lon="2.65677">
        <ele>194.32</ele>
        <time>2015-01-12T14:33:45Z</time>
      </trkpt>
      <trkpt lat="43.33129" lon="2.65678">
        <ele>193.36</ele>
        <time>2015-01-12T14:33:47Z</time>
      </trkpt>
      <trkpt lat="43.33133" lon="2.65682">
        <ele>190</ele>
        <time>2015-01-12T14:33:52Z</time>
      </trkpt>
      <trkpt lat="43.33133" lon="2.65682">
        <ele>196.25</ele>
        <time>2015-01-12T14:33:53Z</time>
      </trkpt>
      <trkpt lat="43.33133" lon="2.65682">
        <ele>195.28</ele>
        <time>2015-01-12T14:34:02Z</time>
      </trkpt>
      <trkpt lat="43.33133" lon="2.65682">
        <ele>195.77</ele>
        <time>2015-01-12T14:34:20Z</time>
      </trkpt>
      <trkpt lat="43.33135" lon="2.65686">
        <ele>197.21</ele>
        <time>2015-01-12T14:34:23Z</time>
      </trkpt>
      <trkpt lat="43.33136" lon="2.65687">
        <ele>194.32</ele>
        <time>2015-01-12T14:34:24Z</time>
      </trkpt>
      <trkpt lat="43.33138" lon="2.6569">
        <ele>196.25</ele>
        <time>2015-01-12T14:34:26Z</time>
      </trkpt>
      <trkpt lat="43.33139" lon="2.65691">
        <ele>197.21</ele>
        <time>2015-01-12T14:34:27Z</time>
      </trkpt>
      <trkpt lat="43.3314" lon="2.65693">
        <ele>194.32</ele>
        <time>2015-01-12T14:34:29Z</time>
      </trkpt>
      <trkpt lat="43.33143" lon="2.65696">
        <ele>195.28</ele>
        <time>2015-01-12T14:34:31Z</time>
      </trkpt>
      <trkpt lat="43.33144" lon="2.65698">
        <ele>194.8</ele>
        <time>2015-01-12T14:34:33Z</time>
      </trkpt>
      <trkpt lat="43.33157" lon="2.65716">
        <ele>194.32</ele>
        <time>2015-01-12T14:34:48Z</time>
      </trkpt>
      <trkpt lat="43.33158" lon="2.65717">
        <ele>198.65</ele>
        <time>2015-01-12T14:34:49Z</time>
      </trkpt>
      <trkpt lat="43.33159" lon="2.65719">
        <ele>194.8</ele>
        <time>2015-01-12T14:34:50Z</time>
      </trkpt>
      <trkpt lat="43.33163" lon="2.65723">
        <ele>194.8</ele>
        <time>2015-01-12T14:34:54Z</time>
      </trkpt>
      <trkpt lat="43.33166" lon="2.65726">
        <ele>198.65</ele>
        <time>2015-01-12T14:34:57Z</time>
      </trkpt>
      <trkpt lat="43.33166" lon="2.65727">
        <ele>196.25</ele>
        <time>2015-01-12T14:34:58Z</time>
      </trkpt>
      <trkpt lat="43.33168" lon="2.65729">
        <ele>195.28</ele>
        <time>2015-01-12T14:35:00Z</time>
      </trkpt>
      <trkpt lat="43.33172" lon="2.65734">
        <ele>195.28</ele>
        <time>2015-01-12T14:35:05Z</time>
      </trkpt>
      <trkpt lat="43.33174" lon="2.65738">
        <ele>199.61</ele>
        <time>2015-01-12T14:35:09Z</time>
      </trkpt>
      <trkpt lat="43.33175" lon="2.65739">
        <ele>193.84</ele>
        <time>2015-01-12T14:35:10Z</time>
      </trkpt>
      <trkpt lat="43.33178" lon="2.65744">
        <ele>201.05</ele>
        <time>2015-01-12T14:35:15Z</time>
      </trkpt>
      <trkpt lat="43.33179" lon="2.65745">
        <ele>194.32</ele>
        <time>2015-01-12T14:35:16Z</time>
      </trkpt>
      <trkpt lat="43.33181" lon="2.65746">
        <ele>197.69</ele>
        <time>2015-01-12T14:35:19Z</time>
      </trkpt>
      <trkpt lat="43.33181" lon="2.65747">
        <ele>192.4</ele>
        <time>2015-01-12T14:35:23Z</time>
      </trkpt>
      <trkpt lat="43.33183" lon="2.6575">
        <ele>194.8</ele>
        <time>2015-01-12T14:35:25Z</time>
      </trkpt>
      <trkpt lat="43.33184" lon="2.6575">
        <ele>195.28</ele>
        <time>2015-01-12T14:35:26Z</time>
      </trkpt>
      <trkpt lat="43.33186" lon="2.65752">
        <ele>193.84</ele>
        <time>2015-01-12T14:35:28Z</time>
      </trkpt>
      <trkpt lat="43.33187" lon="2.65753">
        <ele>199.13</ele>
        <time>2015-01-12T14:35:29Z</time>
      </trkpt>
      <trkpt lat="43.3319" lon="2.65754">
        <ele>194.32</ele>
        <time>2015-01-12T14:35:31Z</time>
      </trkpt>
      <trkpt lat="43.33193" lon="2.65754">
        <ele>194.32</ele>
        <time>2015-01-12T14:35:33Z</time>
      </trkpt>
      <trkpt lat="43.33196" lon="2.65753">
        <ele>196.25</ele>
        <time>2015-01-12T14:35:36Z</time>
      </trkpt>
      <trkpt lat="43.33197" lon="2.65754">
        <ele>196.25</ele>
        <time>2015-01-12T14:35:37Z</time>
      </trkpt>
      <trkpt lat="43.33198" lon="2.65755">
        <ele>200.09</ele>
        <time>2015-01-12T14:35:42Z</time>
      </trkpt>
      <trkpt lat="43.33202" lon="2.65756">
        <ele>195.77</ele>
        <time>2015-01-12T14:35:46Z</time>
      </trkpt>
      <trkpt lat="43.33204" lon="2.65757">
        <ele>199.13</ele>
        <time>2015-01-12T14:35:48Z</time>
      </trkpt>
      <trkpt lat="43.33205" lon="2.65757">
        <ele>195.28</ele>
        <time>2015-01-12T14:35:49Z</time>
      </trkpt>
      <trkpt lat="43.33217" lon="2.65763">
        <ele>198.17</ele>
        <time>2015-01-12T14:36:02Z</time>
      </trkpt>
      <trkpt lat="43.33217" lon="2.65764">
        <ele>193.84</ele>
        <time>2015-01-12T14:36:07Z</time>
      </trkpt>
      <trkpt lat="43.33217" lon="2.65764">
        <ele>197.69</ele>
        <time>2015-01-12T14:36:09Z</time>
      </trkpt>
      <trkpt lat="43.33217" lon="2.65764">
        <ele>194.8</ele>
        <time>2015-01-12T14:36:10Z</time>
      </trkpt>
      <trkpt lat="43.33218" lon="2.65765">
        <ele>196.25</ele>
        <time>2015-01-12T14:36:28Z</time>
      </trkpt>
      <trkpt lat="43.33218" lon="2.65765">
        <ele>195.77</ele>
        <time>2015-01-12T14:36:36Z</time>
      </trkpt>
      <trkpt lat="43.33221" lon="2.65765">
        <ele>193.36</ele>
        <time>2015-01-12T14:36:40Z</time>
      </trkpt>
      <trkpt lat="43.33222" lon="2.65765">
        <ele>198.17</ele>
        <time>2015-01-12T14:36:41Z</time>
      </trkpt>
      <trkpt lat="43.33227" lon="2.65767">
        <ele>197.21</ele>
        <time>2015-01-12T14:36:46Z</time>
      </trkpt>
      <trkpt lat="43.33229" lon="2.65768">
        <ele>194.8</ele>
        <time>2015-01-12T14:36:48Z</time>
      </trkpt>
      <trkpt lat="43.33231" lon="2.65769">
        <ele>199.61</ele>
        <time>2015-01-12T14:36:50Z</time>
      </trkpt>
      <trkpt lat="43.33235" lon="2.65772">
        <ele>198.65</ele>
        <time>2015-01-12T14:36:55Z</time>
      </trkpt>
      <trkpt lat="43.33238" lon="2.65775">
        <ele>193.84</ele>
        <time>2015-01-12T14:37:00Z</time>
      </trkpt>
      <trkpt lat="43.33239" lon="2.65775">
        <ele>197.21</ele>
        <time>2015-01-12T14:37:01Z</time>
      </trkpt>
      <trkpt lat="43.33242" lon="2.65777">
        <ele>197.21</ele>
        <time>2015-01-12T14:37:05Z</time>
      </trkpt>
      <trkpt lat="43.33247" lon="2.65781">
        <ele>198.65</ele>
        <time>2015-01-12T14:37:13Z</time>
      </trkpt>
      <trkpt lat="43.33248" lon="2.65782">
        <ele>195.28</ele>
        <time>2015-01-12T14:37:14Z</time>
      </trkpt>
      <trkpt lat="43.33248" lon="2.65783">
        <ele>197.21</ele>
        <time>2015-01-12T14:37:15Z</time>
      </trkpt>
      <trkpt lat="43.33249" lon="2.65784">
        <ele>198.17</ele>
        <time>2015-01-12T14:37:26Z</time>
      </trkpt>
      <trkpt lat="43.33249" lon="2.65784">
        <ele>196.25</ele>
        <time>2015-01-12T14:37:28Z</time>
      </trkpt>
      <trkpt lat="43.33258" lon="2.65786">
        <ele>196.73</ele>
        <time>2015-01-12T14:37:41Z</time>
      </trkpt>
      <trkpt lat="43.33266" lon="2.65789">
        <ele>201.05</ele>
        <time>2015-01-12T14:37:49Z</time>
      </trkpt>
      <trkpt lat="43.33267" lon="2.6579">
        <ele>195.28</ele>
        <time>2015-01-12T14:37:50Z</time>
      </trkpt>
      <trkpt lat="43.33269" lon="2.65791">
        <ele>200.09</ele>
        <time>2015-01-12T14:37:52Z</time>
      </trkpt>
      <trkpt lat="43.33271" lon="2.65791">
        <ele>196.25</ele>
        <time>2015-01-12T14:37:53Z</time>
      </trkpt>
      <trkpt lat="43.33271" lon="2.65792">
        <ele>200.57</ele>
        <time>2015-01-12T14:37:54Z</time>
      </trkpt>
      <trkpt lat="43.33272" lon="2.65793">
        <ele>196.25</ele>
        <time>2015-01-12T14:37:56Z</time>
      </trkpt>
      <trkpt lat="43.33274" lon="2.65799">
        <ele>199.13</ele>
        <time>2015-01-12T14:38:02Z</time>
      </trkpt>
      <trkpt lat="43.33277" lon="2.65808">
        <ele>199.13</ele>
        <time>2015-01-12T14:38:11Z</time>
      </trkpt>
      <trkpt lat="43.33279" lon="2.65814">
        <ele>199.13</ele>
        <time>2015-01-12T14:38:16Z</time>
      </trkpt>
      <trkpt lat="43.3328" lon="2.65817">
        <ele>197.69</ele>
        <time>2015-01-12T14:38:18Z</time>
      </trkpt>
      <trkpt lat="43.3328" lon="2.65819">
        <ele>201.53</ele>
        <time>2015-01-12T14:38:19Z</time>
      </trkpt>
      <trkpt lat="43.33281" lon="2.65822">
        <ele>198.17</ele>
        <time>2015-01-12T14:38:21Z</time>
      </trkpt>
      <trkpt lat="43.33281" lon="2.65825">
        <ele>202.49</ele>
        <time>2015-01-12T14:38:23Z</time>
      </trkpt>
      <trkpt lat="43.33281" lon="2.65827">
        <ele>198.17</ele>
        <time>2015-01-12T14:38:24Z</time>
      </trkpt>
      <trkpt lat="43.33281" lon="2.6583">
        <ele>201.53</ele>
        <time>2015-01-12T14:38:26Z</time>
      </trkpt>
      <trkpt lat="43.33281" lon="2.65831">
        <ele>197.69</ele>
        <time>2015-01-12T14:38:27Z</time>
      </trkpt>
      <trkpt lat="43.33281" lon="2.65833">
        <ele>197.69</ele>
        <time>2015-01-12T14:38:28Z</time>
      </trkpt>
      <trkpt lat="43.33282" lon="2.65838">
        <ele>197.21</ele>
        <time>2015-01-12T14:38:30Z</time>
      </trkpt>
      <trkpt lat="43.33283" lon="2.65838">
        <ele>200.09</ele>
        <time>2015-01-12T14:38:31Z</time>
      </trkpt>
      <trkpt lat="43.33284" lon="2.65842">
        <ele>200.09</ele>
        <time>2015-01-12T14:38:39Z</time>
      </trkpt>
      <trkpt lat="43.33283" lon="2.65847">
        <ele>198.65</ele>
        <time>2015-01-12T14:38:42Z</time>
      </trkpt>
      <trkpt lat="43.33283" lon="2.65848">
        <ele>202.01</ele>
        <time>2015-01-12T14:38:43Z</time>
      </trkpt>
      <trkpt lat="43.33282" lon="2.65852">
        <ele>198.17</ele>
        <time>2015-01-12T14:38:45Z</time>
      </trkpt>
      <trkpt lat="43.3328" lon="2.65863">
        <ele>201.53</ele>
        <time>2015-01-12T14:38:52Z</time>
      </trkpt>
      <trkpt lat="43.3328" lon="2.65865">
        <ele>197.69</ele>
        <time>2015-01-12T14:38:53Z</time>
      </trkpt>
      <trkpt lat="43.33279" lon="2.65866">
        <ele>202.49</ele>
        <time>2015-01-12T14:38:54Z</time>
      </trkpt>
      <trkpt lat="43.33279" lon="2.65868">
        <ele>197.69</ele>
        <time>2015-01-12T14:38:55Z</time>
      </trkpt>
      <trkpt lat="43.33278" lon="2.65871">
        <ele>198.65</ele>
        <time>2015-01-12T14:38:58Z</time>
      </trkpt>
      <trkpt lat="43.33277" lon="2.65884">
        <ele>198.17</ele>
        <time>2015-01-12T14:39:12Z</time>
      </trkpt>
      <trkpt lat="43.33277" lon="2.65885">
        <ele>197.21</ele>
        <time>2015-01-12T14:39:16Z</time>
      </trkpt>
      <trkpt lat="43.33279" lon="2.6589">
        <ele>200.09</ele>
        <time>2015-01-12T14:39:22Z</time>
      </trkpt>
      <trkpt lat="43.33281" lon="2.65893">
        <ele>198.65</ele>
        <time>2015-01-12T14:39:26Z</time>
      </trkpt>
      <trkpt lat="43.33281" lon="2.65894">
        <ele>194.8</ele>
        <time>2015-01-12T14:39:27Z</time>
      </trkpt>
      <trkpt lat="43.33281" lon="2.65895">
        <ele>200.09</ele>
        <time>2015-01-12T14:39:28Z</time>
      </trkpt>
      <trkpt lat="43.33281" lon="2.65896">
        <ele>195.28</ele>
        <time>2015-01-12T14:39:30Z</time>
      </trkpt>
      <trkpt lat="43.33281" lon="2.65897">
        <ele>198.65</ele>
        <time>2015-01-12T14:39:31Z</time>
      </trkpt>
      <trkpt lat="43.33281" lon="2.65898">
        <ele>194.8</ele>
        <time>2015-01-12T14:39:32Z</time>
      </trkpt>
      <trkpt lat="43.33282" lon="2.65901">
        <ele>198.17</ele>
        <time>2015-01-12T14:39:37Z</time>
      </trkpt>
      <trkpt lat="43.33282" lon="2.65901">
        <ele>194.32</ele>
        <time>2015-01-12T14:39:50Z</time>
      </trkpt>
      <trkpt lat="43.33282" lon="2.65901">
        <ele>194.32</ele>
        <time>2015-01-12T14:39:51Z</time>
      </trkpt>
      <trkpt lat="43.3328" lon="2.65905">
        <ele>198.65</ele>
        <time>2015-01-12T14:39:58Z</time>
      </trkpt>
      <trkpt lat="43.33279" lon="2.65907">
        <ele>194.32</ele>
        <time>2015-01-12T14:39:59Z</time>
      </trkpt>
      <trkpt lat="43.33279" lon="2.6591">
        <ele>192.88</ele>
        <time>2015-01-12T14:40:02Z</time>
      </trkpt>
      <trkpt lat="43.33278" lon="2.65917">
        <ele>195.28</ele>
        <time>2015-01-12T14:40:06Z</time>
      </trkpt>
      <trkpt lat="43.33278" lon="2.65925">
        <ele>198.17</ele>
        <time>2015-01-12T14:40:10Z</time>
      </trkpt>
      <trkpt lat="43.33278" lon="2.65929">
        <ele>193.84</ele>
        <time>2015-01-12T14:40:12Z</time>
      </trkpt>
      <trkpt lat="43.33278" lon="2.65931">
        <ele>196.25</ele>
        <time>2015-01-12T14:40:13Z</time>
      </trkpt>
      <trkpt lat="43.33277" lon="2.65936">
        <ele>192.4</ele>
        <time>2015-01-12T14:40:16Z</time>
      </trkpt>
      <trkpt lat="43.33277" lon="2.6594">
        <ele>194.8</ele>
        <time>2015-01-12T14:40:18Z</time>
      </trkpt>
      <trkpt lat="43.33274" lon="2.65945">
        <ele>195.77</ele>
        <time>2015-01-12T14:40:21Z</time>
      </trkpt>
      <trkpt lat="43.33273" lon="2.65947">
        <ele>192.4</ele>
        <time>2015-01-12T14:40:25Z</time>
      </trkpt>
      <trkpt lat="43.33272" lon="2.65948">
        <ele>196.25</ele>
        <time>2015-01-12T14:40:26Z</time>
      </trkpt>
      <trkpt lat="43.33271" lon="2.6595">
        <ele>196.25</ele>
        <time>2015-01-12T14:40:27Z</time>
      </trkpt>
      <trkpt lat="43.33271" lon="2.65951">
        <ele>192.88</ele>
        <time>2015-01-12T14:40:28Z</time>
      </trkpt>
      <trkpt lat="43.33269" lon="2.65955">
        <ele>196.25</ele>
        <time>2015-01-12T14:40:30Z</time>
      </trkpt>
      <trkpt lat="43.33269" lon="2.65957">
        <ele>191.44</ele>
        <time>2015-01-12T14:40:31Z</time>
      </trkpt>
      <trkpt lat="43.33268" lon="2.65962">
        <ele>196.73</ele>
        <time>2015-01-12T14:40:34Z</time>
      </trkpt>
      <trkpt lat="43.33268" lon="2.65963">
        <ele>192.88</ele>
        <time>2015-01-12T14:40:35Z</time>
      </trkpt>
      <trkpt lat="43.33266" lon="2.65974">
        <ele>195.77</ele>
        <time>2015-01-12T14:40:42Z</time>
      </trkpt>
      <trkpt lat="43.33265" lon="2.65975">
        <ele>192.88</ele>
        <time>2015-01-12T14:40:43Z</time>
      </trkpt>
      <trkpt lat="43.33262" lon="2.65987">
        <ele>190.96</ele>
        <time>2015-01-12T14:40:55Z</time>
      </trkpt>
      <trkpt lat="43.33261" lon="2.6599">
        <ele>194.8</ele>
        <time>2015-01-12T14:40:57Z</time>
      </trkpt>
      <trkpt lat="43.3326" lon="2.65992">
        <ele>189.04</ele>
        <time>2015-01-12T14:40:58Z</time>
      </trkpt>
      <trkpt lat="43.33258" lon="2.65999">
        <ele>191.92</ele>
        <time>2015-01-12T14:41:02Z</time>
      </trkpt>
      <trkpt lat="43.33258" lon="2.66002">
        <ele>196.25</ele>
        <time>2015-01-12T14:41:04Z</time>
      </trkpt>
      <trkpt lat="43.33258" lon="2.66004">
        <ele>191.44</ele>
        <time>2015-01-12T14:41:05Z</time>
      </trkpt>
      <trkpt lat="43.33259" lon="2.66017">
        <ele>190.48</ele>
        <time>2015-01-12T14:41:14Z</time>
      </trkpt>
      <trkpt lat="43.3326" lon="2.6602">
        <ele>191.92</ele>
        <time>2015-01-12T14:41:16Z</time>
      </trkpt>
      <trkpt lat="43.33262" lon="2.66023">
        <ele>190.48</ele>
        <time>2015-01-12T14:41:18Z</time>
      </trkpt>
      <trkpt lat="43.33263" lon="2.66025">
        <ele>187.11</ele>
        <time>2015-01-12T14:41:19Z</time>
      </trkpt>
      <trkpt lat="43.33263" lon="2.66028">
        <ele>192.4</ele>
        <time>2015-01-12T14:41:21Z</time>
      </trkpt>
      <trkpt lat="43.33263" lon="2.66037">
        <ele>190</ele>
        <time>2015-01-12T14:41:33Z</time>
      </trkpt>
      <trkpt lat="43.33263" lon="2.66043">
        <ele>190.96</ele>
        <time>2015-01-12T14:41:37Z</time>
      </trkpt>
      <trkpt lat="43.33262" lon="2.66047">
        <ele>186.63</ele>
        <time>2015-01-12T14:41:39Z</time>
      </trkpt>
      <trkpt lat="43.33261" lon="2.66048">
        <ele>187.59</ele>
        <time>2015-01-12T14:41:40Z</time>
      </trkpt>
      <trkpt lat="43.33261" lon="2.66052">
        <ele>191.44</ele>
        <time>2015-01-12T14:41:42Z</time>
      </trkpt>
      <trkpt lat="43.33261" lon="2.66056">
        <ele>187.59</ele>
        <time>2015-01-12T14:41:44Z</time>
      </trkpt>
      <trkpt lat="43.3326" lon="2.66065">
        <ele>188.56</ele>
        <time>2015-01-12T14:41:48Z</time>
      </trkpt>
      <trkpt lat="43.33259" lon="2.66071">
        <ele>187.11</ele>
        <time>2015-01-12T14:41:53Z</time>
      </trkpt>
      <trkpt lat="43.33257" lon="2.66076">
        <ele>192.4</ele>
        <time>2015-01-12T14:41:57Z</time>
      </trkpt>
      <trkpt lat="43.33257" lon="2.66077">
        <ele>185.67</ele>
        <time>2015-01-12T14:41:58Z</time>
      </trkpt>
      <trkpt lat="43.33255" lon="2.66079">
        <ele>192.4</ele>
        <time>2015-01-12T14:42:00Z</time>
      </trkpt>
      <trkpt lat="43.33255" lon="2.6608">
        <ele>188.56</ele>
        <time>2015-01-12T14:42:01Z</time>
      </trkpt>
      <trkpt lat="43.33254" lon="2.66084">
        <ele>185.67</ele>
        <time>2015-01-12T14:42:04Z</time>
      </trkpt>
      <trkpt lat="43.33252" lon="2.6609">
        <ele>190</ele>
        <time>2015-01-12T14:42:08Z</time>
      </trkpt>
      <trkpt lat="43.33252" lon="2.66091">
        <ele>186.63</ele>
        <time>2015-01-12T14:42:09Z</time>
      </trkpt>
      <trkpt lat="43.33252" lon="2.66093">
        <ele>186.63</ele>
        <time>2015-01-12T14:42:10Z</time>
      </trkpt>
      <trkpt lat="43.33251" lon="2.66103">
        <ele>185.67</ele>
        <time>2015-01-12T14:42:17Z</time>
      </trkpt>
      <trkpt lat="43.33252" lon="2.66123">
        <ele>188.08</ele>
        <time>2015-01-12T14:42:28Z</time>
      </trkpt>
      <trkpt lat="43.33253" lon="2.66125">
        <ele>187.59</ele>
        <time>2015-01-12T14:42:29Z</time>
      </trkpt>
      <trkpt lat="43.33253" lon="2.66131">
        <ele>184.23</ele>
        <time>2015-01-12T14:42:32Z</time>
      </trkpt>
      <trkpt lat="43.33254" lon="2.66134">
        <ele>186.15</ele>
        <time>2015-01-12T14:42:34Z</time>
      </trkpt>
      <trkpt lat="43.33255" lon="2.66136">
        <ele>183.75</ele>
        <time>2015-01-12T14:42:35Z</time>
      </trkpt>
      <trkpt lat="43.33255" lon="2.66144">
        <ele>188.56</ele>
        <time>2015-01-12T14:42:40Z</time>
      </trkpt>
      <trkpt lat="43.33255" lon="2.66146">
        <ele>185.19</ele>
        <time>2015-01-12T14:42:41Z</time>
      </trkpt>
      <trkpt lat="43.33255" lon="2.66148">
        <ele>184.23</ele>
        <time>2015-01-12T14:42:42Z</time>
      </trkpt>
      <trkpt lat="43.33254" lon="2.6616">
        <ele>187.11</ele>
        <time>2015-01-12T14:42:50Z</time>
      </trkpt>
      <trkpt lat="43.33255" lon="2.66162">
        <ele>182.79</ele>
        <time>2015-01-12T14:42:52Z</time>
      </trkpt>
      <trkpt lat="43.33256" lon="2.66163">
        <ele>184.23</ele>
        <time>2015-01-12T14:42:53Z</time>
      </trkpt>
      <trkpt lat="43.33256" lon="2.66166">
        <ele>188.56</ele>
        <time>2015-01-12T14:42:55Z</time>
      </trkpt>
      <trkpt lat="43.33256" lon="2.66167">
        <ele>185.67</ele>
        <time>2015-01-12T14:42:56Z</time>
      </trkpt>
      <trkpt lat="43.33256" lon="2.66169">
        <ele>182.31</ele>
        <time>2015-01-12T14:42:57Z</time>
      </trkpt>
      <trkpt lat="43.33256" lon="2.6617">
        <ele>186.15</ele>
        <time>2015-01-12T14:42:58Z</time>
      </trkpt>
      <trkpt lat="43.33257" lon="2.66173">
        <ele>182.79</ele>
        <time>2015-01-12T14:43:00Z</time>
      </trkpt>
      <trkpt lat="43.33257" lon="2.66176">
        <ele>186.63</ele>
        <time>2015-01-12T14:43:02Z</time>
      </trkpt>
      <trkpt lat="43.33257" lon="2.66178">
        <ele>185.67</ele>
        <time>2015-01-12T14:43:03Z</time>
      </trkpt>
      <trkpt lat="43.33256" lon="2.66184">
        <ele>185.67</ele>
        <time>2015-01-12T14:43:07Z</time>
      </trkpt>
      <trkpt lat="43.33249" lon="2.66192">
        <ele>186.15</ele>
        <time>2015-01-12T14:43:16Z</time>
      </trkpt>
      <trkpt lat="43.33245" lon="2.66195">
        <ele>181.83</ele>
        <time>2015-01-12T14:43:25Z</time>
      </trkpt>
      <trkpt lat="43.33231" lon="2.66185">
        <ele>179.42</ele>
        <time>2015-01-12T14:43:39Z</time>
      </trkpt>
      <trkpt lat="43.33231" lon="2.66184">
        <ele>183.75</ele>
        <time>2015-01-12T14:43:40Z</time>
      </trkpt>
      <trkpt lat="43.33231" lon="2.66184">
        <ele>183.75</ele>
        <time>2015-01-12T14:43:41Z</time>
      </trkpt>
      <trkpt lat="43.33231" lon="2.66184">
        <ele>182.31</ele>
        <time>2015-01-12T14:43:43Z</time>
      </trkpt>
      <trkpt lat="43.3323" lon="2.66184">
        <ele>183.27</ele>
        <time>2015-01-12T14:43:51Z</time>
      </trkpt>
      <trkpt lat="43.33229" lon="2.66185">
        <ele>179.9</ele>
        <time>2015-01-12T14:44:04Z</time>
      </trkpt>
      <trkpt lat="43.33229" lon="2.66185">
        <ele>184.71</ele>
        <time>2015-01-12T14:44:05Z</time>
      </trkpt>
      <trkpt lat="43.33228" lon="2.66185">
        <ele>181.35</ele>
        <time>2015-01-12T14:44:07Z</time>
      </trkpt>
      <trkpt lat="43.33228" lon="2.66185">
        <ele>181.35</ele>
        <time>2015-01-12T14:44:08Z</time>
      </trkpt>
      <trkpt lat="43.33228" lon="2.66184">
        <ele>185.19</ele>
        <time>2015-01-12T14:44:16Z</time>
      </trkpt>
      <trkpt lat="43.33228" lon="2.66184">
        <ele>181.83</ele>
        <time>2015-01-12T14:44:20Z</time>
      </trkpt>
      <trkpt lat="43.33228" lon="2.66183">
        <ele>183.27</ele>
        <time>2015-01-12T14:44:29Z</time>
      </trkpt>
      <trkpt lat="43.33228" lon="2.66185">
        <ele>184.23</ele>
        <time>2015-01-12T14:44:47Z</time>
      </trkpt>
      <trkpt lat="43.33228" lon="2.66186">
        <ele>183.27</ele>
        <time>2015-01-12T14:44:49Z</time>
      </trkpt>
      <trkpt lat="43.33228" lon="2.66186">
        <ele>180.38</ele>
        <time>2015-01-12T14:44:55Z</time>
      </trkpt>
      <trkpt lat="43.33228" lon="2.66187">
        <ele>184.23</ele>
        <time>2015-01-12T14:44:58Z</time>
      </trkpt>
      <trkpt lat="43.33228" lon="2.66187">
        <ele>180.87</ele>
        <time>2015-01-12T14:45:00Z</time>
      </trkpt>
      <trkpt lat="43.33227" lon="2.6619">
        <ele>183.27</ele>
        <time>2015-01-12T14:45:02Z</time>
      </trkpt>
      <trkpt lat="43.33227" lon="2.66191">
        <ele>179.9</ele>
        <time>2015-01-12T14:45:03Z</time>
      </trkpt>
      <trkpt lat="43.33223" lon="2.66203">
        <ele>178.46</ele>
        <time>2015-01-12T14:45:13Z</time>
      </trkpt>
      <trkpt lat="43.33223" lon="2.66205">
        <ele>183.27</ele>
        <time>2015-01-12T14:45:14Z</time>
      </trkpt>
      <trkpt lat="43.33222" lon="2.66206">
        <ele>177.98</ele>
        <time>2015-01-12T14:45:15Z</time>
      </trkpt>
      <trkpt lat="43.33222" lon="2.66207">
        <ele>182.79</ele>
        <time>2015-01-12T14:45:16Z</time>
      </trkpt>
      <trkpt lat="43.33221" lon="2.66209">
        <ele>179.42</ele>
        <time>2015-01-12T14:45:17Z</time>
      </trkpt>
      <trkpt lat="43.33219" lon="2.66212">
        <ele>182.31</ele>
        <time>2015-01-12T14:45:22Z</time>
      </trkpt>
      <trkpt lat="43.33218" lon="2.66213">
        <ele>178.94</ele>
        <time>2015-01-12T14:45:23Z</time>
      </trkpt>
      <trkpt lat="43.33215" lon="2.66216">
        <ele>182.31</ele>
        <time>2015-01-12T14:45:27Z</time>
      </trkpt>
      <trkpt lat="43.33214" lon="2.66217">
        <ele>178.94</ele>
        <time>2015-01-12T14:45:28Z</time>
      </trkpt>
      <trkpt lat="43.33208" lon="2.66223">
        <ele>180.87</ele>
        <time>2015-01-12T14:45:37Z</time>
      </trkpt>
      <trkpt lat="43.33205" lon="2.66226">
        <ele>179.42</ele>
        <time>2015-01-12T14:45:40Z</time>
      </trkpt>
      <trkpt lat="43.332" lon="2.66229">
        <ele>180.38</ele>
        <time>2015-01-12T14:45:44Z</time>
      </trkpt>
      <trkpt lat="43.33196" lon="2.66232">
        <ele>177.02</ele>
        <time>2015-01-12T14:45:48Z</time>
      </trkpt>
      <trkpt lat="43.3319" lon="2.66235">
        <ele>176.54</ele>
        <time>2015-01-12T14:45:55Z</time>
      </trkpt>
      <trkpt lat="43.33188" lon="2.66237">
        <ele>175.58</ele>
        <time>2015-01-12T14:45:57Z</time>
      </trkpt>
      <trkpt lat="43.33188" lon="2.66238">
        <ele>178.94</ele>
        <time>2015-01-12T14:45:58Z</time>
      </trkpt>
      <trkpt lat="43.33187" lon="2.66238">
        <ele>175.58</ele>
        <time>2015-01-12T14:45:59Z</time>
      </trkpt>
      <trkpt lat="43.33185" lon="2.66239">
        <ele>179.42</ele>
        <time>2015-01-12T14:46:01Z</time>
      </trkpt>
      <trkpt lat="43.33184" lon="2.66241">
        <ele>179.42</ele>
        <time>2015-01-12T14:46:03Z</time>
      </trkpt>
      <trkpt lat="43.33183" lon="2.66241">
        <ele>175.1</ele>
        <time>2015-01-12T14:46:04Z</time>
      </trkpt>
      <trkpt lat="43.33182" lon="2.66242">
        <ele>179.42</ele>
        <time>2015-01-12T14:46:05Z</time>
      </trkpt>
      <trkpt lat="43.33181" lon="2.66244">
        <ele>175.58</ele>
        <time>2015-01-12T14:46:07Z</time>
      </trkpt>
      <trkpt lat="43.3318" lon="2.66246">
        <ele>177.02</ele>
        <time>2015-01-12T14:46:10Z</time>
      </trkpt>
      <trkpt lat="43.33178" lon="2.66249">
        <ele>179.42</ele>
        <time>2015-01-12T14:46:13Z</time>
      </trkpt>
      <trkpt lat="43.33178" lon="2.6625">
        <ele>176.54</ele>
        <time>2015-01-12T14:46:14Z</time>
      </trkpt>
      <trkpt lat="43.33177" lon="2.66252">
        <ele>178.94</ele>
        <time>2015-01-12T14:46:17Z</time>
      </trkpt>
      <trkpt lat="43.33175" lon="2.66255">
        <ele>177.5</ele>
        <time>2015-01-12T14:46:20Z</time>
      </trkpt>
      <trkpt lat="43.33175" lon="2.66256">
        <ele>180.87</ele>
        <time>2015-01-12T14:46:21Z</time>
      </trkpt>
      <trkpt lat="43.33163" lon="2.66264">
        <ele>182.79</ele>
        <time>2015-01-12T14:46:35Z</time>
      </trkpt>
      <trkpt lat="43.33162" lon="2.66264">
        <ele>178.46</ele>
        <time>2015-01-12T14:46:36Z</time>
      </trkpt>
      <trkpt lat="43.33162" lon="2.66264">
        <ele>183.27</ele>
        <time>2015-01-12T14:46:37Z</time>
      </trkpt>
      <trkpt lat="43.33161" lon="2.66264">
        <ele>179.9</ele>
        <time>2015-01-12T14:46:38Z</time>
      </trkpt>
      <trkpt lat="43.33159" lon="2.66266">
        <ele>183.75</ele>
        <time>2015-01-12T14:46:42Z</time>
      </trkpt>
      <trkpt lat="43.33158" lon="2.66266">
        <ele>178.94</ele>
        <time>2015-01-12T14:46:43Z</time>
      </trkpt>
      <trkpt lat="43.33156" lon="2.6627">
        <ele>184.23</ele>
        <time>2015-01-12T14:46:46Z</time>
      </trkpt>
      <trkpt lat="43.33155" lon="2.66271">
        <ele>179.42</ele>
        <time>2015-01-12T14:46:47Z</time>
      </trkpt>
      <trkpt lat="43.33154" lon="2.66272">
        <ele>183.75</ele>
        <time>2015-01-12T14:46:48Z</time>
      </trkpt>
      <trkpt lat="43.33151" lon="2.66273">
        <ele>180.87</ele>
        <time>2015-01-12T14:46:50Z</time>
      </trkpt>
      <trkpt lat="43.3315" lon="2.66274">
        <ele>181.83</ele>
        <time>2015-01-12T14:46:51Z</time>
      </trkpt>
      <trkpt lat="43.33147" lon="2.66276">
        <ele>182.31</ele>
        <time>2015-01-12T14:46:55Z</time>
      </trkpt>
      <trkpt lat="43.33144" lon="2.6628">
        <ele>183.75</ele>
        <time>2015-01-12T14:46:57Z</time>
      </trkpt>
      <trkpt lat="43.3313" lon="2.66288">
        <ele>186.63</ele>
        <time>2015-01-12T14:47:12Z</time>
      </trkpt>
      <trkpt lat="43.33129" lon="2.66288">
        <ele>182.31</ele>
        <time>2015-01-12T14:47:13Z</time>
      </trkpt>
      <trkpt lat="43.33128" lon="2.66288">
        <ele>186.63</ele>
        <time>2015-01-12T14:47:14Z</time>
      </trkpt>
      <trkpt lat="43.33126" lon="2.6629">
        <ele>183.75</ele>
        <time>2015-01-12T14:47:17Z</time>
      </trkpt>
      <trkpt lat="43.33126" lon="2.66291">
        <ele>185.19</ele>
        <time>2015-01-12T14:47:30Z</time>
      </trkpt>
      <trkpt lat="43.33125" lon="2.66291">
        <ele>184.71</ele>
        <time>2015-01-12T14:47:47Z</time>
      </trkpt>
      <trkpt lat="43.33126" lon="2.66291">
        <ele>185.67</ele>
        <time>2015-01-12T14:48:04Z</time>
      </trkpt>
      <trkpt lat="43.33125" lon="2.66291">
        <ele>184.71</ele>
        <time>2015-01-12T14:48:21Z</time>
      </trkpt>
      <trkpt lat="43.33126" lon="2.66298">
        <ele>188.08</ele>
        <time>2015-01-12T14:48:31Z</time>
      </trkpt>
      <trkpt lat="43.33126" lon="2.66301">
        <ele>184.71</ele>
        <time>2015-01-12T14:48:34Z</time>
      </trkpt>
      <trkpt lat="43.33125" lon="2.66308">
        <ele>190</ele>
        <time>2015-01-12T14:48:39Z</time>
      </trkpt>
      <trkpt lat="43.33125" lon="2.6631">
        <ele>185.19</ele>
        <time>2015-01-12T14:48:40Z</time>
      </trkpt>
      <trkpt lat="43.33122" lon="2.66318">
        <ele>189.04</ele>
        <time>2015-01-12T14:48:48Z</time>
      </trkpt>
      <trkpt lat="43.3312" lon="2.66319">
        <ele>184.23</ele>
        <time>2015-01-12T14:48:50Z</time>
      </trkpt>
      <trkpt lat="43.33112" lon="2.66322">
        <ele>181.35</ele>
        <time>2015-01-12T14:48:58Z</time>
      </trkpt>
      <trkpt lat="43.33109" lon="2.66322">
        <ele>183.75</ele>
        <time>2015-01-12T14:49:00Z</time>
      </trkpt>
      <trkpt lat="43.33103" lon="2.66323">
        <ele>187.11</ele>
        <time>2015-01-12T14:49:08Z</time>
      </trkpt>
      <trkpt lat="43.33101" lon="2.66323">
        <ele>182.79</ele>
        <time>2015-01-12T14:49:11Z</time>
      </trkpt>
      <trkpt lat="43.33097" lon="2.66323">
        <ele>186.15</ele>
        <time>2015-01-12T14:49:15Z</time>
      </trkpt>
      <trkpt lat="43.33097" lon="2.66323">
        <ele>180.87</ele>
        <time>2015-01-12T14:49:16Z</time>
      </trkpt>
      <trkpt lat="43.33096" lon="2.66323">
        <ele>181.35</ele>
        <time>2015-01-12T14:49:17Z</time>
      </trkpt>
      <trkpt lat="43.33095" lon="2.66323">
        <ele>183.75</ele>
        <time>2015-01-12T14:49:19Z</time>
      </trkpt>
      <trkpt lat="43.3309" lon="2.66323">
        <ele>186.63</ele>
        <time>2015-01-12T14:49:25Z</time>
      </trkpt>
      <trkpt lat="43.33087" lon="2.66324">
        <ele>178.94</ele>
        <time>2015-01-12T14:49:27Z</time>
      </trkpt>
      <trkpt lat="43.33086" lon="2.66324">
        <ele>186.15</ele>
        <time>2015-01-12T14:49:28Z</time>
      </trkpt>
      <trkpt lat="43.33084" lon="2.66324">
        <ele>182.79</ele>
        <time>2015-01-12T14:49:29Z</time>
      </trkpt>
      <trkpt lat="43.33079" lon="2.66324">
        <ele>186.15</ele>
        <time>2015-01-12T14:49:32Z</time>
      </trkpt>
      <trkpt lat="43.33077" lon="2.66324">
        <ele>181.35</ele>
        <time>2015-01-12T14:49:33Z</time>
      </trkpt>
      <trkpt lat="43.33073" lon="2.66325">
        <ele>185.19</ele>
        <time>2015-01-12T14:49:36Z</time>
      </trkpt>
      <trkpt lat="43.33071" lon="2.66325">
        <ele>179.42</ele>
        <time>2015-01-12T14:49:38Z</time>
      </trkpt>
      <trkpt lat="43.3307" lon="2.66324">
        <ele>179.42</ele>
        <time>2015-01-12T14:49:39Z</time>
      </trkpt>
      <trkpt lat="43.33069" lon="2.66324">
        <ele>183.75</ele>
        <time>2015-01-12T14:49:40Z</time>
      </trkpt>
      <trkpt lat="43.33067" lon="2.66324">
        <ele>181.83</ele>
        <time>2015-01-12T14:49:41Z</time>
      </trkpt>
      <trkpt lat="43.33054" lon="2.66325">
        <ele>180.87</ele>
        <time>2015-01-12T14:49:52Z</time>
      </trkpt>
      <trkpt lat="43.3305" lon="2.66327">
        <ele>182.31</ele>
        <time>2015-01-12T14:49:57Z</time>
      </trkpt>
      <trkpt lat="43.3305" lon="2.66327">
        <ele>179.42</ele>
        <time>2015-01-12T14:49:58Z</time>
      </trkpt>
      <trkpt lat="43.3305" lon="2.66327">
        <ele>179.9</ele>
        <time>2015-01-12T14:49:59Z</time>
      </trkpt>
      <trkpt lat="43.33043" lon="2.66327">
        <ele>183.75</ele>
        <time>2015-01-12T14:50:05Z</time>
      </trkpt>
      <trkpt lat="43.3304" lon="2.66328">
        <ele>180.38</ele>
        <time>2015-01-12T14:50:07Z</time>
      </trkpt>
      <trkpt lat="43.33036" lon="2.66327">
        <ele>183.27</ele>
        <time>2015-01-12T14:50:10Z</time>
      </trkpt>
      <trkpt lat="43.33035" lon="2.66327">
        <ele>179.9</ele>
        <time>2015-01-12T14:50:11Z</time>
      </trkpt>
      <trkpt lat="43.33027" lon="2.66325">
        <ele>177.02</ele>
        <time>2015-01-12T14:50:17Z</time>
      </trkpt>
      <trkpt lat="43.33024" lon="2.66325">
        <ele>183.27</ele>
        <time>2015-01-12T14:50:19Z</time>
      </trkpt>
      <trkpt lat="43.33023" lon="2.66326">
        <ele>182.79</ele>
        <time>2015-01-12T14:50:20Z</time>
      </trkpt>
      <trkpt lat="43.33022" lon="2.66325">
        <ele>179.42</ele>
        <time>2015-01-12T14:50:21Z</time>
      </trkpt>
      <trkpt lat="43.33014" lon="2.66324">
        <ele>175.58</ele>
        <time>2015-01-12T14:50:28Z</time>
      </trkpt>
      <trkpt lat="43.33012" lon="2.66324">
        <ele>179.42</ele>
        <time>2015-01-12T14:50:29Z</time>
      </trkpt>
      <trkpt lat="43.33007" lon="2.66322">
        <ele>178.94</ele>
        <time>2015-01-12T14:50:34Z</time>
      </trkpt>
      <trkpt lat="43.33005" lon="2.66321">
        <ele>177.5</ele>
        <time>2015-01-12T14:50:36Z</time>
      </trkpt>
      <trkpt lat="43.33003" lon="2.66321">
        <ele>179.42</ele>
        <time>2015-01-12T14:50:38Z</time>
      </trkpt>
      <trkpt lat="43.33002" lon="2.66321">
        <ele>175.1</ele>
        <time>2015-01-12T14:50:40Z</time>
      </trkpt>
      <trkpt lat="43.32998" lon="2.66319">
        <ele>176.54</ele>
        <time>2015-01-12T14:50:44Z</time>
      </trkpt>
      <trkpt lat="43.32991" lon="2.66317">
        <ele>180.38</ele>
        <time>2015-01-12T14:50:50Z</time>
      </trkpt>
      <trkpt lat="43.32989" lon="2.66317">
        <ele>175.58</ele>
        <time>2015-01-12T14:50:51Z</time>
      </trkpt>
      <trkpt lat="43.32985" lon="2.66315">
        <ele>172.21</ele>
        <time>2015-01-12T14:50:55Z</time>
      </trkpt>
      <trkpt lat="43.32981" lon="2.66313">
        <ele>177.02</ele>
        <time>2015-01-12T14:50:59Z</time>
      </trkpt>
      <trkpt lat="43.32978" lon="2.66313">
        <ele>173.17</ele>
        <time>2015-01-12T14:51:01Z</time>
      </trkpt>
      <trkpt lat="43.32974" lon="2.66311">
        <ele>173.17</ele>
        <time>2015-01-12T14:51:05Z</time>
      </trkpt>
      <trkpt lat="43.32971" lon="2.6631">
        <ele>174.62</ele>
        <time>2015-01-12T14:51:08Z</time>
      </trkpt>
      <trkpt lat="43.32967" lon="2.66309">
        <ele>173.66</ele>
        <time>2015-01-12T14:51:12Z</time>
      </trkpt>
      <trkpt lat="43.32965" lon="2.66308">
        <ele>173.66</ele>
        <time>2015-01-12T14:51:14Z</time>
      </trkpt>
      <trkpt lat="43.32959" lon="2.66306">
        <ele>176.06</ele>
        <time>2015-01-12T14:51:19Z</time>
      </trkpt>
      <trkpt lat="43.32957" lon="2.66305">
        <ele>172.21</ele>
        <time>2015-01-12T14:51:21Z</time>
      </trkpt>
      <trkpt lat="43.32949" lon="2.66305">
        <ele>177.02</ele>
        <time>2015-01-12T14:51:30Z</time>
      </trkpt>
      <trkpt lat="43.32948" lon="2.66304">
        <ele>172.69</ele>
        <time>2015-01-12T14:51:31Z</time>
      </trkpt>
      <trkpt lat="43.32947" lon="2.66304">
        <ele>169.81</ele>
        <time>2015-01-12T14:51:32Z</time>
      </trkpt>
      <trkpt lat="43.32938" lon="2.663">
        <ele>172.21</ele>
        <time>2015-01-12T14:51:39Z</time>
      </trkpt>
      <trkpt lat="43.32935" lon="2.66299">
        <ele>171.25</ele>
        <time>2015-01-12T14:51:42Z</time>
      </trkpt>
      <trkpt lat="43.32929" lon="2.66296">
        <ele>169.33</ele>
        <time>2015-01-12T14:51:48Z</time>
      </trkpt>
      <trkpt lat="43.32928" lon="2.66296">
        <ele>173.17</ele>
        <time>2015-01-12T14:51:49Z</time>
      </trkpt>
      <trkpt lat="43.32917" lon="2.66294">
        <ele>173.17</ele>
        <time>2015-01-12T14:51:56Z</time>
      </trkpt>
      <trkpt lat="43.32902" lon="2.66291">
        <ele>172.21</ele>
        <time>2015-01-12T14:52:08Z</time>
      </trkpt>
      <trkpt lat="43.32901" lon="2.6629">
        <ele>167.41</ele>
        <time>2015-01-12T14:52:09Z</time>
      </trkpt>
      <trkpt lat="43.329" lon="2.6629">
        <ele>170.77</ele>
        <time>2015-01-12T14:52:10Z</time>
      </trkpt>
      <trkpt lat="43.32893" lon="2.66287">
        <ele>167.89</ele>
        <time>2015-01-12T14:52:18Z</time>
      </trkpt>
      <trkpt lat="43.32892" lon="2.66286">
        <ele>167.89</ele>
        <time>2015-01-12T14:52:19Z</time>
      </trkpt>
      <trkpt lat="43.32889" lon="2.66285">
        <ele>166.93</ele>
        <time>2015-01-12T14:52:25Z</time>
      </trkpt>
      <trkpt lat="43.32885" lon="2.66284">
        <ele>165</ele>
        <time>2015-01-12T14:52:29Z</time>
      </trkpt>
      <trkpt lat="43.32883" lon="2.66284">
        <ele>166.45</ele>
        <time>2015-01-12T14:52:31Z</time>
      </trkpt>
      <trkpt lat="43.32882" lon="2.66283">
        <ele>165</ele>
        <time>2015-01-12T14:52:33Z</time>
      </trkpt>
      <trkpt lat="43.32875" lon="2.66281">
        <ele>164.52</ele>
        <time>2015-01-12T14:52:42Z</time>
      </trkpt>
      <trkpt lat="43.32875" lon="2.66281">
        <ele>168.85</ele>
        <time>2015-01-12T14:52:43Z</time>
      </trkpt>
      <trkpt lat="43.32874" lon="2.66281">
        <ele>165.96</ele>
        <time>2015-01-12T14:52:44Z</time>
      </trkpt>
      <trkpt lat="43.32865" lon="2.66279">
        <ele>165.48</ele>
        <time>2015-01-12T14:52:51Z</time>
      </trkpt>
      <trkpt lat="43.32863" lon="2.66279">
        <ele>164.04</ele>
        <time>2015-01-12T14:52:55Z</time>
      </trkpt>
      <trkpt lat="43.32862" lon="2.66278">
        <ele>163.56</ele>
        <time>2015-01-12T14:53:00Z</time>
      </trkpt>
      <trkpt lat="43.32854" lon="2.66282">
        <ele>161.16</ele>
        <time>2015-01-12T14:53:09Z</time>
      </trkpt>
      <trkpt lat="43.32853" lon="2.66282">
        <ele>165</ele>
        <time>2015-01-12T14:53:10Z</time>
      </trkpt>
      <trkpt lat="43.32852" lon="2.66282">
        <ele>161.64</ele>
        <time>2015-01-12T14:53:11Z</time>
      </trkpt>
      <trkpt lat="43.3285" lon="2.66282">
        <ele>166.93</ele>
        <time>2015-01-12T14:53:13Z</time>
      </trkpt>
      <trkpt lat="43.3285" lon="2.66282">
        <ele>161.64</ele>
        <time>2015-01-12T14:53:14Z</time>
      </trkpt>
      <trkpt lat="43.32834" lon="2.66287">
        <ele>159.72</ele>
        <time>2015-01-12T14:53:28Z</time>
      </trkpt>
      <trkpt lat="43.32832" lon="2.66289">
        <ele>164.04</ele>
        <time>2015-01-12T14:53:30Z</time>
      </trkpt>
      <trkpt lat="43.32832" lon="2.66289">
        <ele>159.72</ele>
        <time>2015-01-12T14:53:31Z</time>
      </trkpt>
      <trkpt lat="43.3283" lon="2.66291">
        <ele>158.75</ele>
        <time>2015-01-12T14:53:34Z</time>
      </trkpt>
      <trkpt lat="43.32827" lon="2.66293">
        <ele>158.75</ele>
        <time>2015-01-12T14:53:36Z</time>
      </trkpt>
      <trkpt lat="43.32825" lon="2.66294">
        <ele>162.6</ele>
        <time>2015-01-12T14:53:38Z</time>
      </trkpt>
      <trkpt lat="43.32825" lon="2.66294">
        <ele>158.75</ele>
        <time>2015-01-12T14:53:39Z</time>
      </trkpt>
      <trkpt lat="43.32813" lon="2.663">
        <ele>154.91</ele>
        <time>2015-01-12T14:53:52Z</time>
      </trkpt>
      <trkpt lat="43.32812" lon="2.66301">
        <ele>158.75</ele>
        <time>2015-01-12T14:53:53Z</time>
      </trkpt>
      <trkpt lat="43.32808" lon="2.66303">
        <ele>156.35</ele>
        <time>2015-01-12T14:53:56Z</time>
      </trkpt>
      <trkpt lat="43.32802" lon="2.66305">
        <ele>160.2</ele>
        <time>2015-01-12T14:54:02Z</time>
      </trkpt>
      <trkpt lat="43.32801" lon="2.66306">
        <ele>155.87</ele>
        <time>2015-01-12T14:54:03Z</time>
      </trkpt>
      <trkpt lat="43.32798" lon="2.66307">
        <ele>157.31</ele>
        <time>2015-01-12T14:54:06Z</time>
      </trkpt>
      <trkpt lat="43.32791" lon="2.66313">
        <ele>157.79</ele>
        <time>2015-01-12T14:54:14Z</time>
      </trkpt>
      <trkpt lat="43.32786" lon="2.66317">
        <ele>154.43</ele>
        <time>2015-01-12T14:54:30Z</time>
      </trkpt>
      <trkpt lat="43.32786" lon="2.66317">
        <ele>157.79</ele>
        <time>2015-01-12T14:54:31Z</time>
      </trkpt>
      <trkpt lat="43.32785" lon="2.66318">
        <ele>157.79</ele>
        <time>2015-01-12T14:54:32Z</time>
      </trkpt>
      <trkpt lat="43.32783" lon="2.66319">
        <ele>153.95</ele>
        <time>2015-01-12T14:54:34Z</time>
      </trkpt>
      <trkpt lat="43.32781" lon="2.66319">
        <ele>157.79</ele>
        <time>2015-01-12T14:54:35Z</time>
      </trkpt>
      <trkpt lat="43.32779" lon="2.6632">
        <ele>154.43</ele>
        <time>2015-01-12T14:54:37Z</time>
      </trkpt>
      <trkpt lat="43.32778" lon="2.6632">
        <ele>154.43</ele>
        <time>2015-01-12T14:54:38Z</time>
      </trkpt>
      <trkpt lat="43.32772" lon="2.66324">
        <ele>158.75</ele>
        <time>2015-01-12T14:54:44Z</time>
      </trkpt>
      <trkpt lat="43.32771" lon="2.66324">
        <ele>152.51</ele>
        <time>2015-01-12T14:54:45Z</time>
      </trkpt>
      <trkpt lat="43.3277" lon="2.66327">
        <ele>156.35</ele>
        <time>2015-01-12T14:54:49Z</time>
      </trkpt>
      <trkpt lat="43.32769" lon="2.66327">
        <ele>154.43</ele>
        <time>2015-01-12T14:54:50Z</time>
      </trkpt>
      <trkpt lat="43.32766" lon="2.66328">
        <ele>151.54</ele>
        <time>2015-01-12T14:54:57Z</time>
      </trkpt>
      <trkpt lat="43.32764" lon="2.66329">
        <ele>157.31</ele>
        <time>2015-01-12T14:54:59Z</time>
      </trkpt>
      <trkpt lat="43.32764" lon="2.6633">
        <ele>152.51</ele>
        <time>2015-01-12T14:55:00Z</time>
      </trkpt>
      <trkpt lat="43.32761" lon="2.66333">
        <ele>152.99</ele>
        <time>2015-01-12T14:55:05Z</time>
      </trkpt>
      <trkpt lat="43.32759" lon="2.66336">
        <ele>149.14</ele>
        <time>2015-01-12T14:55:13Z</time>
      </trkpt>
      <trkpt lat="43.32758" lon="2.66336">
        <ele>152.03</ele>
        <time>2015-01-12T14:55:14Z</time>
      </trkpt>
      <trkpt lat="43.32754" lon="2.66339">
        <ele>152.51</ele>
        <time>2015-01-12T14:55:20Z</time>
      </trkpt>
      <trkpt lat="43.32752" lon="2.66341">
        <ele>149.62</ele>
        <time>2015-01-12T14:55:25Z</time>
      </trkpt>
      <trkpt lat="43.32741" lon="2.6635">
        <ele>149.62</ele>
        <time>2015-01-12T14:55:41Z</time>
      </trkpt>
      <trkpt lat="43.3274" lon="2.66351">
        <ele>152.03</ele>
        <time>2015-01-12T14:55:42Z</time>
      </trkpt>
      <trkpt lat="43.32738" lon="2.66353">
        <ele>150.58</ele>
        <time>2015-01-12T14:55:44Z</time>
      </trkpt>
      <trkpt lat="43.32737" lon="2.66354">
        <ele>147.22</ele>
        <time>2015-01-12T14:55:45Z</time>
      </trkpt>
      <trkpt lat="43.32736" lon="2.66355">
        <ele>147.22</ele>
        <time>2015-01-12T14:55:46Z</time>
      </trkpt>
      <trkpt lat="43.32734" lon="2.6636">
        <ele>148.66</ele>
        <time>2015-01-12T14:55:49Z</time>
      </trkpt>
      <trkpt lat="43.32727" lon="2.66371">
        <ele>146.74</ele>
        <time>2015-01-12T14:55:58Z</time>
      </trkpt>
      <trkpt lat="43.32725" lon="2.66375">
        <ele>145.3</ele>
        <time>2015-01-12T14:56:01Z</time>
      </trkpt>
      <trkpt lat="43.32724" lon="2.66376">
        <ele>145.78</ele>
        <time>2015-01-12T14:56:02Z</time>
      </trkpt>
      <trkpt lat="43.32724" lon="2.66377">
        <ele>143.85</ele>
        <time>2015-01-12T14:56:03Z</time>
      </trkpt>
      <trkpt lat="43.32722" lon="2.6638">
        <ele>147.7</ele>
        <time>2015-01-12T14:56:05Z</time>
      </trkpt>
      <trkpt lat="43.32721" lon="2.66384">
        <ele>143.85</ele>
        <time>2015-01-12T14:56:07Z</time>
      </trkpt>
      <trkpt lat="43.3272" lon="2.66385">
        <ele>142.89</ele>
        <time>2015-01-12T14:56:08Z</time>
      </trkpt>
      <trkpt lat="43.32714" lon="2.66393">
        <ele>146.74</ele>
        <time>2015-01-12T14:56:13Z</time>
      </trkpt>
      <trkpt lat="43.32713" lon="2.66394">
        <ele>141.93</ele>
        <time>2015-01-12T14:56:14Z</time>
      </trkpt>
      <trkpt lat="43.32713" lon="2.66396">
        <ele>143.85</ele>
        <time>2015-01-12T14:56:15Z</time>
      </trkpt>
      <trkpt lat="43.32706" lon="2.66406">
        <ele>147.7</ele>
        <time>2015-01-12T14:56:26Z</time>
      </trkpt>
      <trkpt lat="43.32705" lon="2.66406">
        <ele>144.82</ele>
        <time>2015-01-12T14:56:27Z</time>
      </trkpt>
      <trkpt lat="43.32704" lon="2.66407">
        <ele>140.01</ele>
        <time>2015-01-12T14:56:28Z</time>
      </trkpt>
      <trkpt lat="43.32704" lon="2.66408">
        <ele>149.14</ele>
        <time>2015-01-12T14:56:29Z</time>
      </trkpt>
      <trkpt lat="43.32703" lon="2.66409">
        <ele>143.37</ele>
        <time>2015-01-12T14:56:30Z</time>
      </trkpt>
      <trkpt lat="43.32698" lon="2.66414">
        <ele>146.74</ele>
        <time>2015-01-12T14:56:35Z</time>
      </trkpt>
      <trkpt lat="43.32697" lon="2.66415">
        <ele>145.78</ele>
        <time>2015-01-12T14:56:36Z</time>
      </trkpt>
      <trkpt lat="43.32696" lon="2.66416">
        <ele>144.82</ele>
        <time>2015-01-12T14:56:38Z</time>
      </trkpt>
      <trkpt lat="43.32687" lon="2.66424">
        <ele>142.89</ele>
        <time>2015-01-12T14:56:46Z</time>
      </trkpt>
      <trkpt lat="43.32685" lon="2.66425">
        <ele>143.85</ele>
        <time>2015-01-12T14:56:48Z</time>
      </trkpt>
      <trkpt lat="43.32677" lon="2.6643">
        <ele>142.89</ele>
        <time>2015-01-12T14:56:56Z</time>
      </trkpt>
      <trkpt lat="43.32675" lon="2.66431">
        <ele>146.26</ele>
        <time>2015-01-12T14:56:58Z</time>
      </trkpt>
      <trkpt lat="43.32673" lon="2.66432">
        <ele>140.01</ele>
        <time>2015-01-12T14:57:00Z</time>
      </trkpt>
      <trkpt lat="43.3267" lon="2.66432">
        <ele>146.74</ele>
        <time>2015-01-12T14:57:03Z</time>
      </trkpt>
      <trkpt lat="43.32669" lon="2.66432">
        <ele>141.45</ele>
        <time>2015-01-12T14:57:04Z</time>
      </trkpt>
      <trkpt lat="43.32663" lon="2.66434">
        <ele>144.82</ele>
        <time>2015-01-12T14:57:09Z</time>
      </trkpt>
      <trkpt lat="43.32661" lon="2.66434">
        <ele>140.97</ele>
        <time>2015-01-12T14:57:10Z</time>
      </trkpt>
      <trkpt lat="43.32659" lon="2.66435">
        <ele>144.82</ele>
        <time>2015-01-12T14:57:12Z</time>
      </trkpt>
      <trkpt lat="43.32658" lon="2.66435">
        <ele>139.53</ele>
        <time>2015-01-12T14:57:13Z</time>
      </trkpt>
      <trkpt lat="43.32657" lon="2.66435">
        <ele>139.53</ele>
        <time>2015-01-12T14:57:14Z</time>
      </trkpt>
      <trkpt lat="43.32651" lon="2.66436">
        <ele>144.82</ele>
        <time>2015-01-12T14:57:18Z</time>
      </trkpt>
      <trkpt lat="43.3265" lon="2.66436">
        <ele>140.49</ele>
        <time>2015-01-12T14:57:19Z</time>
      </trkpt>
      <trkpt lat="43.3264" lon="2.66438">
        <ele>143.85</ele>
        <time>2015-01-12T14:57:28Z</time>
      </trkpt>
      <trkpt lat="43.32638" lon="2.66439">
        <ele>139.53</ele>
        <time>2015-01-12T14:57:30Z</time>
      </trkpt>
      <trkpt lat="43.32634" lon="2.66442">
        <ele>140.49</ele>
        <time>2015-01-12T14:57:36Z</time>
      </trkpt>
      <trkpt lat="43.32632" lon="2.66444">
        <ele>137.61</ele>
        <time>2015-01-12T14:57:38Z</time>
      </trkpt>
      <trkpt lat="43.32628" lon="2.66447">
        <ele>142.89</ele>
        <time>2015-01-12T14:57:42Z</time>
      </trkpt>
      <trkpt lat="43.32628" lon="2.66448">
        <ele>142.41</ele>
        <time>2015-01-12T14:57:43Z</time>
      </trkpt>
      <trkpt lat="43.32627" lon="2.66449">
        <ele>137.61</ele>
        <time>2015-01-12T14:57:44Z</time>
      </trkpt>
      <trkpt lat="43.32626" lon="2.66451">
        <ele>138.57</ele>
        <time>2015-01-12T14:57:45Z</time>
      </trkpt>
      <trkpt lat="43.32622" lon="2.66465">
        <ele>137.13</ele>
        <time>2015-01-12T14:57:58Z</time>
      </trkpt>
      <trkpt lat="43.32619" lon="2.66472">
        <ele>140.97</ele>
        <time>2015-01-12T14:58:03Z</time>
      </trkpt>
      <trkpt lat="43.32618" lon="2.66473">
        <ele>137.13</ele>
        <time>2015-01-12T14:58:04Z</time>
      </trkpt>
      <trkpt lat="43.32614" lon="2.66487">
        <ele>136.16</ele>
        <time>2015-01-12T14:58:14Z</time>
      </trkpt>
      <trkpt lat="43.3261" lon="2.66494">
        <ele>139.53</ele>
        <time>2015-01-12T14:58:19Z</time>
      </trkpt>
      <trkpt lat="43.32609" lon="2.66495">
        <ele>138.09</ele>
        <time>2015-01-12T14:58:20Z</time>
      </trkpt>
      <trkpt lat="43.32608" lon="2.66498">
        <ele>135.2</ele>
        <time>2015-01-12T14:58:22Z</time>
      </trkpt>
      <trkpt lat="43.32607" lon="2.66499">
        <ele>140.49</ele>
        <time>2015-01-12T14:58:23Z</time>
      </trkpt>
      <trkpt lat="43.32606" lon="2.66501">
        <ele>135.2</ele>
        <time>2015-01-12T14:58:25Z</time>
      </trkpt>
      <trkpt lat="43.32606" lon="2.66502">
        <ele>136.64</ele>
        <time>2015-01-12T14:58:26Z</time>
      </trkpt>
      <trkpt lat="43.32599" lon="2.66516">
        <ele>133.76</ele>
        <time>2015-01-12T14:58:39Z</time>
      </trkpt>
      <trkpt lat="43.32597" lon="2.6652">
        <ele>137.61</ele>
        <time>2015-01-12T14:58:42Z</time>
      </trkpt>
      <trkpt lat="43.32596" lon="2.66521">
        <ele>134.72</ele>
        <time>2015-01-12T14:58:43Z</time>
      </trkpt>
      <trkpt lat="43.32595" lon="2.6654">
        <ele>136.64</ele>
        <time>2015-01-12T14:58:55Z</time>
      </trkpt>
      <trkpt lat="43.32597" lon="2.66543">
        <ele>132.32</ele>
        <time>2015-01-12T14:58:57Z</time>
      </trkpt>
      <trkpt lat="43.326" lon="2.66553">
        <ele>138.09</ele>
        <time>2015-01-12T14:59:04Z</time>
      </trkpt>
      <trkpt lat="43.326" lon="2.66554">
        <ele>133.28</ele>
        <time>2015-01-12T14:59:05Z</time>
      </trkpt>
      <trkpt lat="43.32601" lon="2.66559">
        <ele>136.16</ele>
        <time>2015-01-12T14:59:12Z</time>
      </trkpt>
      <trkpt lat="43.326" lon="2.66567">
        <ele>137.13</ele>
        <time>2015-01-12T14:59:19Z</time>
      </trkpt>
      <trkpt lat="43.326" lon="2.66568">
        <ele>131.84</ele>
        <time>2015-01-12T14:59:20Z</time>
      </trkpt>
      <trkpt lat="43.32599" lon="2.66568">
        <ele>132.8</ele>
        <time>2015-01-12T14:59:21Z</time>
      </trkpt>
      <trkpt lat="43.32598" lon="2.66575">
        <ele>134.24</ele>
        <time>2015-01-12T14:59:33Z</time>
      </trkpt>
      <trkpt lat="43.32599" lon="2.66578">
        <ele>134.72</ele>
        <time>2015-01-12T14:59:37Z</time>
      </trkpt>
      <trkpt lat="43.326" lon="2.66582">
        <ele>133.28</ele>
        <time>2015-01-12T14:59:53Z</time>
      </trkpt>
      <trkpt lat="43.32595" lon="2.66579">
        <ele>132.8</ele>
        <time>2015-01-12T15:00:01Z</time>
      </trkpt>
      <trkpt lat="43.32583" lon="2.6657">
        <ele>131.36</ele>
        <time>2015-01-12T15:00:16Z</time>
      </trkpt>
      <trkpt lat="43.32572" lon="2.66564">
        <ele>135.2</ele>
        <time>2015-01-12T15:00:28Z</time>
      </trkpt>
      <trkpt lat="43.32571" lon="2.66563">
        <ele>131.36</ele>
        <time>2015-01-12T15:00:29Z</time>
      </trkpt>
      <trkpt lat="43.32571" lon="2.66562">
        <ele>135.2</ele>
        <time>2015-01-12T15:00:30Z</time>
      </trkpt>
      <trkpt lat="43.32569" lon="2.66561">
        <ele>131.36</ele>
        <time>2015-01-12T15:00:33Z</time>
      </trkpt>
      <trkpt lat="43.32569" lon="2.6656">
        <ele>132.32</ele>
        <time>2015-01-12T15:00:34Z</time>
      </trkpt>
      <trkpt lat="43.32566" lon="2.66558">
        <ele>132.32</ele>
        <time>2015-01-12T15:00:47Z</time>
      </trkpt>
      <trkpt lat="43.32565" lon="2.66557">
        <ele>131.84</ele>
        <time>2015-01-12T15:01:03Z</time>
      </trkpt>
      <trkpt lat="43.32564" lon="2.66557">
        <ele>132.32</ele>
        <time>2015-01-12T15:01:11Z</time>
      </trkpt>
      <trkpt lat="43.3256" lon="2.66556">
        <ele>128.95</ele>
        <time>2015-01-12T15:01:18Z</time>
      </trkpt>
      <trkpt lat="43.32559" lon="2.66556">
        <ele>132.32</ele>
        <time>2015-01-12T15:01:19Z</time>
      </trkpt>
      <trkpt lat="43.32554" lon="2.66553">
        <ele>129.43</ele>
        <time>2015-01-12T15:01:23Z</time>
      </trkpt>
      <trkpt lat="43.32552" lon="2.66552">
        <ele>131.84</ele>
        <time>2015-01-12T15:01:25Z</time>
      </trkpt>
      <trkpt lat="43.3255" lon="2.66549">
        <ele>132.8</ele>
        <time>2015-01-12T15:01:39Z</time>
      </trkpt>
      <trkpt lat="43.3255" lon="2.66549">
        <ele>129.92</ele>
        <time>2015-01-12T15:01:40Z</time>
      </trkpt>
      <trkpt lat="43.32546" lon="2.66547">
        <ele>133.28</ele>
        <time>2015-01-12T15:01:46Z</time>
      </trkpt>
      <trkpt lat="43.32544" lon="2.66545">
        <ele>129.43</ele>
        <time>2015-01-12T15:01:48Z</time>
      </trkpt>
      <trkpt lat="43.32544" lon="2.66544">
        <ele>129.92</ele>
        <time>2015-01-12T15:01:49Z</time>
      </trkpt>
      <trkpt lat="43.3254" lon="2.66542">
        <ele>134.24</ele>
        <time>2015-01-12T15:01:52Z</time>
      </trkpt>
      <trkpt lat="43.32537" lon="2.66541">
        <ele>128.47</ele>
        <time>2015-01-12T15:01:55Z</time>
      </trkpt>
      <trkpt lat="43.32531" lon="2.66536">
        <ele>132.32</ele>
        <time>2015-01-12T15:02:01Z</time>
      </trkpt>
      <trkpt lat="43.3253" lon="2.66535">
        <ele>132.8</ele>
        <time>2015-01-12T15:02:02Z</time>
      </trkpt>
      <trkpt lat="43.32528" lon="2.66535">
        <ele>130.4</ele>
        <time>2015-01-12T15:02:04Z</time>
      </trkpt>
      <trkpt lat="43.32525" lon="2.66533">
        <ele>134.72</ele>
        <time>2015-01-12T15:02:07Z</time>
      </trkpt>
      <trkpt lat="43.32524" lon="2.66533">
        <ele>130.4</ele>
        <time>2015-01-12T15:02:08Z</time>
      </trkpt>
      <trkpt lat="43.32518" lon="2.66527">
        <ele>126.55</ele>
        <time>2015-01-12T15:02:14Z</time>
      </trkpt>
      <trkpt lat="43.32515" lon="2.66525">
        <ele>127.51</ele>
        <time>2015-01-12T15:02:16Z</time>
      </trkpt>
      <trkpt lat="43.32512" lon="2.66524">
        <ele>134.24</ele>
        <time>2015-01-12T15:02:27Z</time>
      </trkpt>
      <trkpt lat="43.32512" lon="2.66524">
        <ele>128.47</ele>
        <time>2015-01-12T15:02:28Z</time>
      </trkpt>
      <trkpt lat="43.32505" lon="2.66517">
        <ele>128.95</ele>
        <time>2015-01-12T15:02:37Z</time>
      </trkpt>
      <trkpt lat="43.32504" lon="2.66513">
        <ele>127.99</ele>
        <time>2015-01-12T15:02:40Z</time>
      </trkpt>
      <trkpt lat="43.32503" lon="2.6651">
        <ele>127.03</ele>
        <time>2015-01-12T15:02:42Z</time>
      </trkpt>
      <trkpt lat="43.32501" lon="2.66503">
        <ele>131.84</ele>
        <time>2015-01-12T15:02:48Z</time>
      </trkpt>
      <trkpt lat="43.325" lon="2.66502">
        <ele>126.07</ele>
        <time>2015-01-12T15:02:49Z</time>
      </trkpt>
      <trkpt lat="43.32499" lon="2.665">
        <ele>129.92</ele>
        <time>2015-01-12T15:02:51Z</time>
      </trkpt>
      <trkpt lat="43.32496" lon="2.66497">
        <ele>129.43</ele>
        <time>2015-01-12T15:02:59Z</time>
      </trkpt>
      <trkpt lat="43.3249" lon="2.66489">
        <ele>126.07</ele>
        <time>2015-01-12T15:03:10Z</time>
      </trkpt>
      <trkpt lat="43.32489" lon="2.66488">
        <ele>131.36</ele>
        <time>2015-01-12T15:03:11Z</time>
      </trkpt>
      <trkpt lat="43.32488" lon="2.66488">
        <ele>126.07</ele>
        <time>2015-01-12T15:03:12Z</time>
      </trkpt>
      <trkpt lat="43.32487" lon="2.66487">
        <ele>128.95</ele>
        <time>2015-01-12T15:03:14Z</time>
      </trkpt>
      <trkpt lat="43.32485" lon="2.66486">
        <ele>132.32</ele>
        <time>2015-01-12T15:03:16Z</time>
      </trkpt>
      <trkpt lat="43.32485" lon="2.66485">
        <ele>126.55</ele>
        <time>2015-01-12T15:03:17Z</time>
      </trkpt>
      <trkpt lat="43.32483" lon="2.66485">
        <ele>128.47</ele>
        <time>2015-01-12T15:03:20Z</time>
      </trkpt>
      <trkpt lat="43.3248" lon="2.66486">
        <ele>125.11</ele>
        <time>2015-01-12T15:03:30Z</time>
      </trkpt>
      <trkpt lat="43.3248" lon="2.66486">
        <ele>128.95</ele>
        <time>2015-01-12T15:03:31Z</time>
      </trkpt>
      <trkpt lat="43.32479" lon="2.66484">
        <ele>128.47</ele>
        <time>2015-01-12T15:03:45Z</time>
      </trkpt>
      <trkpt lat="43.32477" lon="2.66484">
        <ele>127.03</ele>
        <time>2015-01-12T15:03:52Z</time>
      </trkpt>
      <trkpt lat="43.32469" lon="2.66491">
        <ele>129.92</ele>
        <time>2015-01-12T15:04:04Z</time>
      </trkpt>
      <trkpt lat="43.32467" lon="2.66491">
        <ele>126.07</ele>
        <time>2015-01-12T15:04:06Z</time>
      </trkpt>
      <trkpt lat="43.32466" lon="2.66491">
        <ele>129.92</ele>
        <time>2015-01-12T15:04:08Z</time>
      </trkpt>
      <trkpt lat="43.32462" lon="2.66493">
        <ele>126.07</ele>
        <time>2015-01-12T15:04:12Z</time>
      </trkpt>
      <trkpt lat="43.32461" lon="2.66493">
        <ele>129.43</ele>
        <time>2015-01-12T15:04:13Z</time>
      </trkpt>
      <trkpt lat="43.32458" lon="2.66495">
        <ele>125.59</ele>
        <time>2015-01-12T15:04:16Z</time>
      </trkpt>
      <trkpt lat="43.32457" lon="2.66496">
        <ele>129.92</ele>
        <time>2015-01-12T15:04:17Z</time>
      </trkpt>
      <trkpt lat="43.32456" lon="2.66496">
        <ele>126.07</ele>
        <time>2015-01-12T15:04:18Z</time>
      </trkpt>
      <trkpt lat="43.32454" lon="2.66497">
        <ele>127.03</ele>
        <time>2015-01-12T15:04:20Z</time>
      </trkpt>
      <trkpt lat="43.32448" lon="2.66502">
        <ele>123.67</ele>
        <time>2015-01-12T15:04:26Z</time>
      </trkpt>
      <trkpt lat="43.32447" lon="2.66502">
        <ele>127.03</ele>
        <time>2015-01-12T15:04:27Z</time>
      </trkpt>
      <trkpt lat="43.32442" lon="2.66502">
        <ele>122.71</ele>
        <time>2015-01-12T15:04:34Z</time>
      </trkpt>
      <trkpt lat="43.3244" lon="2.66502">
        <ele>126.55</ele>
        <time>2015-01-12T15:04:36Z</time>
      </trkpt>
      <trkpt lat="43.32436" lon="2.66501">
        <ele>121.26</ele>
        <time>2015-01-12T15:04:41Z</time>
      </trkpt>
      <trkpt lat="43.32435" lon="2.66501">
        <ele>122.22</ele>
        <time>2015-01-12T15:04:42Z</time>
      </trkpt>
      <trkpt lat="43.32432" lon="2.66501">
        <ele>122.71</ele>
        <time>2015-01-12T15:04:45Z</time>
      </trkpt>
      <trkpt lat="43.32427" lon="2.66503">
        <ele>122.22</ele>
        <time>2015-01-12T15:04:49Z</time>
      </trkpt>
      <trkpt lat="43.32419" lon="2.66503">
        <ele>127.03</ele>
        <time>2015-01-12T15:04:56Z</time>
      </trkpt>
      <trkpt lat="43.32418" lon="2.66505">
        <ele>124.63</ele>
        <time>2015-01-12T15:04:58Z</time>
      </trkpt>
      <trkpt lat="43.32414" lon="2.66507">
        <ele>121.74</ele>
        <time>2015-01-12T15:05:02Z</time>
      </trkpt>
      <trkpt lat="43.32411" lon="2.66508">
        <ele>125.11</ele>
        <time>2015-01-12T15:05:06Z</time>
      </trkpt>
      <trkpt lat="43.32409" lon="2.6651">
        <ele>121.26</ele>
        <time>2015-01-12T15:05:08Z</time>
      </trkpt>
      <trkpt lat="43.32402" lon="2.66515">
        <ele>121.26</ele>
        <time>2015-01-12T15:05:17Z</time>
      </trkpt>
      <trkpt lat="43.32396" lon="2.66518">
        <ele>125.59</ele>
        <time>2015-01-12T15:05:25Z</time>
      </trkpt>
      <trkpt lat="43.32395" lon="2.66519">
        <ele>121.74</ele>
        <time>2015-01-12T15:05:26Z</time>
      </trkpt>
      <trkpt lat="43.32378" lon="2.66527">
        <ele>120.3</ele>
        <time>2015-01-12T15:05:43Z</time>
      </trkpt>
      <trkpt lat="43.3237" lon="2.6653">
        <ele>116.94</ele>
        <time>2015-01-12T15:05:50Z</time>
      </trkpt>
      <trkpt lat="43.32368" lon="2.6653">
        <ele>120.3</ele>
        <time>2015-01-12T15:05:52Z</time>
      </trkpt>
      <trkpt lat="43.32365" lon="2.66531">
        <ele>121.26</ele>
        <time>2015-01-12T15:05:55Z</time>
      </trkpt>
      <trkpt lat="43.32364" lon="2.66531">
        <ele>117.42</ele>
        <time>2015-01-12T15:05:56Z</time>
      </trkpt>
      <trkpt lat="43.32358" lon="2.66534">
        <ele>118.86</ele>
        <time>2015-01-12T15:06:01Z</time>
      </trkpt>
      <trkpt lat="43.32352" lon="2.66537">
        <ele>118.86</ele>
        <time>2015-01-12T15:06:15Z</time>
      </trkpt>
      <trkpt lat="43.3235" lon="2.66546">
        <ele>117.42</ele>
        <time>2015-01-12T15:06:30Z</time>
      </trkpt>
      <trkpt lat="43.32346" lon="2.66559">
        <ele>116.94</ele>
        <time>2015-01-12T15:06:46Z</time>
      </trkpt>
      <trkpt lat="43.32345" lon="2.66561">
        <ele>120.3</ele>
        <time>2015-01-12T15:06:48Z</time>
      </trkpt>
      <trkpt lat="43.32345" lon="2.66562">
        <ele>116.46</ele>
        <time>2015-01-12T15:06:49Z</time>
      </trkpt>
      <trkpt lat="43.32344" lon="2.66569">
        <ele>121.26</ele>
        <time>2015-01-12T15:06:55Z</time>
      </trkpt>
      <trkpt lat="43.32344" lon="2.6657">
        <ele>115.5</ele>
        <time>2015-01-12T15:06:56Z</time>
      </trkpt>
      <trkpt lat="43.32344" lon="2.66571">
        <ele>119.34</ele>
        <time>2015-01-12T15:06:58Z</time>
      </trkpt>
      <trkpt lat="43.32344" lon="2.66572">
        <ele>115.98</ele>
        <time>2015-01-12T15:06:59Z</time>
      </trkpt>
      <trkpt lat="43.32345" lon="2.66575">
        <ele>117.9</ele>
        <time>2015-01-12T15:07:02Z</time>
      </trkpt>
      <trkpt lat="43.32343" lon="2.66593">
        <ele>115.98</ele>
        <time>2015-01-12T15:07:21Z</time>
      </trkpt>
      <trkpt lat="43.32343" lon="2.66593">
        <ele>118.86</ele>
        <time>2015-01-12T15:07:23Z</time>
      </trkpt>
      <trkpt lat="43.32343" lon="2.66597">
        <ele>115.5</ele>
        <time>2015-01-12T15:07:26Z</time>
      </trkpt>
      <trkpt lat="43.32343" lon="2.66601">
        <ele>115.5</ele>
        <time>2015-01-12T15:07:29Z</time>
      </trkpt>
      <trkpt lat="43.32344" lon="2.66606">
        <ele>115.98</ele>
        <time>2015-01-12T15:07:33Z</time>
      </trkpt>
      <trkpt lat="43.32351" lon="2.66621">
        <ele>115.5</ele>
        <time>2015-01-12T15:07:48Z</time>
      </trkpt>
      <trkpt lat="43.32355" lon="2.66627">
        <ele>114.53</ele>
        <time>2015-01-12T15:08:04Z</time>
      </trkpt>
      <trkpt lat="43.32356" lon="2.66629">
        <ele>116.46</ele>
        <time>2015-01-12T15:08:07Z</time>
      </trkpt>
      <trkpt lat="43.32358" lon="2.66632">
        <ele>116.94</ele>
        <time>2015-01-12T15:08:14Z</time>
      </trkpt>
      <trkpt lat="43.3236" lon="2.66635">
        <ele>116.46</ele>
        <time>2015-01-12T15:08:17Z</time>
      </trkpt>
      <trkpt lat="43.3236" lon="2.66638">
        <ele>115.5</ele>
        <time>2015-01-12T15:08:19Z</time>
      </trkpt>
      <trkpt lat="43.32363" lon="2.66644">
        <ele>119.34</ele>
        <time>2015-01-12T15:08:23Z</time>
      </trkpt>
      <trkpt lat="43.32363" lon="2.66645">
        <ele>114.53</ele>
        <time>2015-01-12T15:08:24Z</time>
      </trkpt>
      <trkpt lat="43.32366" lon="2.6665">
        <ele>117.9</ele>
        <time>2015-01-12T15:08:29Z</time>
      </trkpt>
      <trkpt lat="43.32368" lon="2.66655">
        <ele>114.53</ele>
        <time>2015-01-12T15:08:35Z</time>
      </trkpt>
      <trkpt lat="43.3237" lon="2.66658">
        <ele>118.38</ele>
        <time>2015-01-12T15:08:38Z</time>
      </trkpt>
      <trkpt lat="43.32371" lon="2.6666">
        <ele>114.53</ele>
        <time>2015-01-12T15:08:40Z</time>
      </trkpt>
      <trkpt lat="43.32371" lon="2.66667">
        <ele>117.9</ele>
        <time>2015-01-12T15:08:52Z</time>
      </trkpt>
      <trkpt lat="43.32371" lon="2.66667">
        <ele>116.94</ele>
        <time>2015-01-12T15:08:53Z</time>
      </trkpt>
      <trkpt lat="43.32371" lon="2.66668">
        <ele>114.05</ele>
        <time>2015-01-12T15:08:54Z</time>
      </trkpt>
      <trkpt lat="43.3237" lon="2.6667">
        <ele>120.78</ele>
        <time>2015-01-12T15:08:56Z</time>
      </trkpt>
      <trkpt lat="43.3237" lon="2.66672">
        <ele>119.82</ele>
        <time>2015-01-12T15:08:57Z</time>
      </trkpt>
      <trkpt lat="43.32369" lon="2.66673">
        <ele>115.98</ele>
        <time>2015-01-12T15:08:58Z</time>
      </trkpt>
      <trkpt lat="43.32366" lon="2.6668">
        <ele>116.46</ele>
        <time>2015-01-12T15:09:04Z</time>
      </trkpt>
      <trkpt lat="43.32365" lon="2.66683">
        <ele>113.09</ele>
        <time>2015-01-12T15:09:06Z</time>
      </trkpt>
      <trkpt lat="43.32363" lon="2.66687">
        <ele>112.61</ele>
        <time>2015-01-12T15:09:10Z</time>
      </trkpt>
      <trkpt lat="43.32361" lon="2.66692">
        <ele>112.13</ele>
        <time>2015-01-12T15:09:15Z</time>
      </trkpt>
      <trkpt lat="43.32355" lon="2.66705">
        <ele>114.53</ele>
        <time>2015-01-12T15:09:28Z</time>
      </trkpt>
      <trkpt lat="43.32354" lon="2.66708">
        <ele>110.69</ele>
        <time>2015-01-12T15:09:30Z</time>
      </trkpt>
      <trkpt lat="43.32353" lon="2.66709">
        <ele>112.61</ele>
        <time>2015-01-12T15:09:31Z</time>
      </trkpt>
      <trkpt lat="43.32353" lon="2.6671">
        <ele>113.57</ele>
        <time>2015-01-12T15:09:32Z</time>
      </trkpt>
      <trkpt lat="43.32351" lon="2.66716">
        <ele>111.65</ele>
        <time>2015-01-12T15:09:35Z</time>
      </trkpt>
      <trkpt lat="43.32349" lon="2.66723">
        <ele>114.05</ele>
        <time>2015-01-12T15:09:39Z</time>
      </trkpt>
      <trkpt lat="43.32349" lon="2.66727">
        <ele>112.61</ele>
        <time>2015-01-12T15:09:41Z</time>
      </trkpt>
      <trkpt lat="43.32351" lon="2.66738">
        <ele>114.05</ele>
        <time>2015-01-12T15:09:49Z</time>
      </trkpt>
      <trkpt lat="43.32351" lon="2.66746">
        <ele>110.69</ele>
        <time>2015-01-12T15:09:56Z</time>
      </trkpt>
      <trkpt lat="43.32351" lon="2.66747">
        <ele>111.65</ele>
        <time>2015-01-12T15:09:57Z</time>
      </trkpt>
      <trkpt lat="43.32351" lon="2.66751">
        <ele>116.46</ele>
        <time>2015-01-12T15:10:01Z</time>
      </trkpt>
      <trkpt lat="43.32351" lon="2.66753">
        <ele>112.61</ele>
        <time>2015-01-12T15:10:02Z</time>
      </trkpt>
      <trkpt lat="43.32355" lon="2.66773">
        <ele>115.98</ele>
        <time>2015-01-12T15:10:14Z</time>
      </trkpt>
      <trkpt lat="43.32356" lon="2.66775">
        <ele>112.13</ele>
        <time>2015-01-12T15:10:15Z</time>
      </trkpt>
      <trkpt lat="43.32357" lon="2.66785">
        <ele>115.5</ele>
        <time>2015-01-12T15:10:22Z</time>
      </trkpt>
      <trkpt lat="43.32358" lon="2.66787">
        <ele>111.65</ele>
        <time>2015-01-12T15:10:24Z</time>
      </trkpt>
      <trkpt lat="43.32359" lon="2.6679">
        <ele>115.5</ele>
        <time>2015-01-12T15:10:27Z</time>
      </trkpt>
      <trkpt lat="43.32359" lon="2.66793">
        <ele>112.61</ele>
        <time>2015-01-12T15:10:29Z</time>
      </trkpt>
      <trkpt lat="43.3236" lon="2.66797">
        <ele>115.01</ele>
        <time>2015-01-12T15:10:32Z</time>
      </trkpt>
      <trkpt lat="43.32362" lon="2.66801">
        <ele>111.65</ele>
        <time>2015-01-12T15:10:35Z</time>
      </trkpt>
      <trkpt lat="43.32363" lon="2.66805">
        <ele>113.57</ele>
        <time>2015-01-12T15:10:38Z</time>
      </trkpt>
      <trkpt lat="43.32365" lon="2.66811">
        <ele>114.53</ele>
        <time>2015-01-12T15:10:43Z</time>
      </trkpt>
      <trkpt lat="43.32369" lon="2.66818">
        <ele>111.65</ele>
        <time>2015-01-12T15:10:49Z</time>
      </trkpt>
      <trkpt lat="43.32371" lon="2.66822">
        <ele>116.46</ele>
        <time>2015-01-12T15:10:53Z</time>
      </trkpt>
      <trkpt lat="43.32371" lon="2.66823">
        <ele>112.13</ele>
        <time>2015-01-12T15:10:54Z</time>
      </trkpt>
      <trkpt lat="43.32372" lon="2.66826">
        <ele>111.17</ele>
        <time>2015-01-12T15:10:56Z</time>
      </trkpt>
      <trkpt lat="43.32375" lon="2.6683">
        <ele>115.01</ele>
        <time>2015-01-12T15:11:00Z</time>
      </trkpt>
      <trkpt lat="43.32376" lon="2.6683">
        <ele>114.05</ele>
        <time>2015-01-12T15:11:01Z</time>
      </trkpt>
      <trkpt lat="43.32378" lon="2.66835">
        <ele>115.5</ele>
        <time>2015-01-12T15:11:04Z</time>
      </trkpt>
      <trkpt lat="43.3238" lon="2.6684">
        <ele>111.17</ele>
        <time>2015-01-12T15:11:07Z</time>
      </trkpt>
      <trkpt lat="43.32386" lon="2.66856">
        <ele>111.17</ele>
        <time>2015-01-12T15:11:18Z</time>
      </trkpt>
      <trkpt lat="43.32387" lon="2.66861">
        <ele>116.46</ele>
        <time>2015-01-12T15:11:21Z</time>
      </trkpt>
      <trkpt lat="43.32387" lon="2.66862">
        <ele>114.05</ele>
        <time>2015-01-12T15:11:22Z</time>
      </trkpt>
      <trkpt lat="43.32388" lon="2.66865">
        <ele>112.13</ele>
        <time>2015-01-12T15:11:24Z</time>
      </trkpt>
      <trkpt lat="43.32389" lon="2.66883">
        <ele>113.57</ele>
        <time>2015-01-12T15:11:38Z</time>
      </trkpt>
      <trkpt lat="43.3239" lon="2.66888">
        <ele>110.21</ele>
        <time>2015-01-12T15:11:42Z</time>
      </trkpt>
      <trkpt lat="43.32389" lon="2.66889">
        <ele>111.17</ele>
        <time>2015-01-12T15:11:43Z</time>
      </trkpt>
      <trkpt lat="43.3239" lon="2.66891">
        <ele>112.13</ele>
        <time>2015-01-12T15:11:45Z</time>
      </trkpt>
      <trkpt lat="43.3239" lon="2.66902">
        <ele>115.5</ele>
        <time>2015-01-12T15:11:53Z</time>
      </trkpt>
      <trkpt lat="43.3239" lon="2.66903">
        <ele>112.13</ele>
        <time>2015-01-12T15:11:54Z</time>
      </trkpt>
      <trkpt lat="43.32392" lon="2.66912">
        <ele>112.13</ele>
        <time>2015-01-12T15:12:01Z</time>
      </trkpt>
      <trkpt lat="43.32393" lon="2.66913">
        <ele>115.01</ele>
        <time>2015-01-12T15:12:02Z</time>
      </trkpt>
      <trkpt lat="43.32394" lon="2.66921">
        <ele>110.21</ele>
        <time>2015-01-12T15:12:07Z</time>
      </trkpt>
      <trkpt lat="43.32394" lon="2.66922">
        <ele>113.57</ele>
        <time>2015-01-12T15:12:08Z</time>
      </trkpt>
      <trkpt lat="43.32395" lon="2.66924">
        <ele>113.09</ele>
        <time>2015-01-12T15:12:16Z</time>
      </trkpt>
      <trkpt lat="43.32397" lon="2.66926">
        <ele>117.42</ele>
        <time>2015-01-12T15:12:18Z</time>
      </trkpt>
      <trkpt lat="43.32398" lon="2.66928">
        <ele>114.53</ele>
        <time>2015-01-12T15:12:19Z</time>
      </trkpt>
      <trkpt lat="43.324" lon="2.66931">
        <ele>110.21</ele>
        <time>2015-01-12T15:12:21Z</time>
      </trkpt>
      <trkpt lat="43.32401" lon="2.66932">
        <ele>110.21</ele>
        <time>2015-01-12T15:12:22Z</time>
      </trkpt>
      <trkpt lat="43.32403" lon="2.66937">
        <ele>111.65</ele>
        <time>2015-01-12T15:12:24Z</time>
      </trkpt>
      <trkpt lat="43.32408" lon="2.66952">
        <ele>111.65</ele>
        <time>2015-01-12T15:12:34Z</time>
      </trkpt>
      <trkpt lat="43.32409" lon="2.66958">
        <ele>116.46</ele>
        <time>2015-01-12T15:12:38Z</time>
      </trkpt>
      <trkpt lat="43.32409" lon="2.6696">
        <ele>110.21</ele>
        <time>2015-01-12T15:12:39Z</time>
      </trkpt>
      <trkpt lat="43.3241" lon="2.66962">
        <ele>111.17</ele>
        <time>2015-01-12T15:12:41Z</time>
      </trkpt>
      <trkpt lat="43.3241" lon="2.66966">
        <ele>111.65</ele>
        <time>2015-01-12T15:12:44Z</time>
      </trkpt>
      <trkpt lat="43.3241" lon="2.66972">
        <ele>111.65</ele>
        <time>2015-01-12T15:12:47Z</time>
      </trkpt>
      <trkpt lat="43.32411" lon="2.66989">
        <ele>110.69</ele>
        <time>2015-01-12T15:12:59Z</time>
      </trkpt>
      <trkpt lat="43.32412" lon="2.6699">
        <ele>116.94</ele>
        <time>2015-01-12T15:13:00Z</time>
      </trkpt>
      <trkpt lat="43.32412" lon="2.66992">
        <ele>112.61</ele>
        <time>2015-01-12T15:13:01Z</time>
      </trkpt>
      <trkpt lat="43.32412" lon="2.66997">
        <ele>111.17</ele>
        <time>2015-01-12T15:13:03Z</time>
      </trkpt>
      <trkpt lat="43.32411" lon="2.67003">
        <ele>114.53</ele>
        <time>2015-01-12T15:13:06Z</time>
      </trkpt>
      <trkpt lat="43.32411" lon="2.67005">
        <ele>114.05</ele>
        <time>2015-01-12T15:13:07Z</time>
      </trkpt>
      <trkpt lat="43.32411" lon="2.67007">
        <ele>110.69</ele>
        <time>2015-01-12T15:13:08Z</time>
      </trkpt>
      <trkpt lat="43.32411" lon="2.67008">
        <ele>111.65</ele>
        <time>2015-01-12T15:13:09Z</time>
      </trkpt>
      <trkpt lat="43.32411" lon="2.67016">
        <ele>110.69</ele>
        <time>2015-01-12T15:13:14Z</time>
      </trkpt>
      <trkpt lat="43.32411" lon="2.6702">
        <ele>114.53</ele>
        <time>2015-01-12T15:13:17Z</time>
      </trkpt>
      <trkpt lat="43.32411" lon="2.67021">
        <ele>114.05</ele>
        <time>2015-01-12T15:13:18Z</time>
      </trkpt>
      <trkpt lat="43.32411" lon="2.67024">
        <ele>110.69</ele>
        <time>2015-01-12T15:13:20Z</time>
      </trkpt>
      <trkpt lat="43.32411" lon="2.67038">
        <ele>115.01</ele>
        <time>2015-01-12T15:13:28Z</time>
      </trkpt>
      <trkpt lat="43.32411" lon="2.67039">
        <ele>114.53</ele>
        <time>2015-01-12T15:13:29Z</time>
      </trkpt>
      <trkpt lat="43.32411" lon="2.67042">
        <ele>109.25</ele>
        <time>2015-01-12T15:13:31Z</time>
      </trkpt>
      <trkpt lat="43.3241" lon="2.67044">
        <ele>111.17</ele>
        <time>2015-01-12T15:13:32Z</time>
      </trkpt>
      <trkpt lat="43.32409" lon="2.67057">
        <ele>115.5</ele>
        <time>2015-01-12T15:13:40Z</time>
      </trkpt>
      <trkpt lat="43.32409" lon="2.6706">
        <ele>111.65</ele>
        <time>2015-01-12T15:13:42Z</time>
      </trkpt>
      <trkpt lat="43.32407" lon="2.67085">
        <ele>115.01</ele>
        <time>2015-01-12T15:13:57Z</time>
      </trkpt>
      <trkpt lat="43.32407" lon="2.67086">
        <ele>113.09</ele>
        <time>2015-01-12T15:13:58Z</time>
      </trkpt>
      <trkpt lat="43.32407" lon="2.6709">
        <ele>109.73</ele>
        <time>2015-01-12T15:14:00Z</time>
      </trkpt>
      <trkpt lat="43.32407" lon="2.67097">
        <ele>112.61</ele>
        <time>2015-01-12T15:14:04Z</time>
      </trkpt>
      <trkpt lat="43.32407" lon="2.67102">
        <ele>109.73</ele>
        <time>2015-01-12T15:14:08Z</time>
      </trkpt>
      <trkpt lat="43.32406" lon="2.67108">
        <ele>109.73</ele>
        <time>2015-01-12T15:14:12Z</time>
      </trkpt>
      <trkpt lat="43.32406" lon="2.67109">
        <ele>112.61</ele>
        <time>2015-01-12T15:14:13Z</time>
      </trkpt>
      <trkpt lat="43.32406" lon="2.6711">
        <ele>109.25</ele>
        <time>2015-01-12T15:14:14Z</time>
      </trkpt>
      <trkpt lat="43.32406" lon="2.67112">
        <ele>112.61</ele>
        <time>2015-01-12T15:14:15Z</time>
      </trkpt>
      <trkpt lat="43.32405" lon="2.67119">
        <ele>109.25</ele>
        <time>2015-01-12T15:14:20Z</time>
      </trkpt>
      <trkpt lat="43.32404" lon="2.67127">
        <ele>113.57</ele>
        <time>2015-01-12T15:14:25Z</time>
      </trkpt>
      <trkpt lat="43.32404" lon="2.67128">
        <ele>110.21</ele>
        <time>2015-01-12T15:14:26Z</time>
      </trkpt>
      <trkpt lat="43.32404" lon="2.6713">
        <ele>110.21</ele>
        <time>2015-01-12T15:14:27Z</time>
      </trkpt>
      <trkpt lat="43.32404" lon="2.67135">
        <ele>113.57</ele>
        <time>2015-01-12T15:14:31Z</time>
      </trkpt>
      <trkpt lat="43.32405" lon="2.67139">
        <ele>110.21</ele>
        <time>2015-01-12T15:14:33Z</time>
      </trkpt>
      <trkpt lat="43.32405" lon="2.6714">
        <ele>114.05</ele>
        <time>2015-01-12T15:14:34Z</time>
      </trkpt>
      <trkpt lat="43.32405" lon="2.67142">
        <ele>110.69</ele>
        <time>2015-01-12T15:14:35Z</time>
      </trkpt>
      <trkpt lat="43.32405" lon="2.6715">
        <ele>114.05</ele>
        <time>2015-01-12T15:14:40Z</time>
      </trkpt>
      <trkpt lat="43.32405" lon="2.67152">
        <ele>110.21</ele>
        <time>2015-01-12T15:14:41Z</time>
      </trkpt>
      <trkpt lat="43.32404" lon="2.67153">
        <ele>109.73</ele>
        <time>2015-01-12T15:14:42Z</time>
      </trkpt>
      <trkpt lat="43.32404" lon="2.67161">
        <ele>113.57</ele>
        <time>2015-01-12T15:14:48Z</time>
      </trkpt>
      <trkpt lat="43.32404" lon="2.67162">
        <ele>111.65</ele>
        <time>2015-01-12T15:14:49Z</time>
      </trkpt>
      <trkpt lat="43.32403" lon="2.67166">
        <ele>111.17</ele>
        <time>2015-01-12T15:14:51Z</time>
      </trkpt>
      <trkpt lat="43.32402" lon="2.6717">
        <ele>114.05</ele>
        <time>2015-01-12T15:14:54Z</time>
      </trkpt>
      <trkpt lat="43.32402" lon="2.67171">
        <ele>112.61</ele>
        <time>2015-01-12T15:14:55Z</time>
      </trkpt>
      <trkpt lat="43.32402" lon="2.67174">
        <ele>111.17</ele>
        <time>2015-01-12T15:14:57Z</time>
      </trkpt>
      <trkpt lat="43.32399" lon="2.67186">
        <ele>111.65</ele>
        <time>2015-01-12T15:15:05Z</time>
      </trkpt>
      <trkpt lat="43.32398" lon="2.67211">
        <ele>112.13</ele>
        <time>2015-01-12T15:15:21Z</time>
      </trkpt>
      <trkpt lat="43.32398" lon="2.67215">
        <ele>112.61</ele>
        <time>2015-01-12T15:15:24Z</time>
      </trkpt>
      <trkpt lat="43.32397" lon="2.67222">
        <ele>115.5</ele>
        <time>2015-01-12T15:15:29Z</time>
      </trkpt>
      <trkpt lat="43.32397" lon="2.67224">
        <ele>112.13</ele>
        <time>2015-01-12T15:15:30Z</time>
      </trkpt>
      <trkpt lat="43.32397" lon="2.67227">
        <ele>110.69</ele>
        <time>2015-01-12T15:15:32Z</time>
      </trkpt>
      <trkpt lat="43.32396" lon="2.67236">
        <ele>109.73</ele>
        <time>2015-01-12T15:15:38Z</time>
      </trkpt>
      <trkpt lat="43.32397" lon="2.67242">
        <ele>115.01</ele>
        <time>2015-01-12T15:15:42Z</time>
      </trkpt>
      <trkpt lat="43.32397" lon="2.67243">
        <ele>111.17</ele>
        <time>2015-01-12T15:15:43Z</time>
      </trkpt>
      <trkpt lat="43.32396" lon="2.67248">
        <ele>114.53</ele>
        <time>2015-01-12T15:15:47Z</time>
      </trkpt>
      <trkpt lat="43.32396" lon="2.67251">
        <ele>109.73</ele>
        <time>2015-01-12T15:15:49Z</time>
      </trkpt>
      <trkpt lat="43.32395" lon="2.67258">
        <ele>113.57</ele>
        <time>2015-01-12T15:15:54Z</time>
      </trkpt>
      <trkpt lat="43.32395" lon="2.67261">
        <ele>113.57</ele>
        <time>2015-01-12T15:15:59Z</time>
      </trkpt>
      <trkpt lat="43.32394" lon="2.67264">
        <ele>111.17</ele>
        <time>2015-01-12T15:16:01Z</time>
      </trkpt>
      <trkpt lat="43.32393" lon="2.67269">
        <ele>114.05</ele>
        <time>2015-01-12T15:16:04Z</time>
      </trkpt>
      <trkpt lat="43.32385" lon="2.67285">
        <ele>110.69</ele>
        <time>2015-01-12T15:16:16Z</time>
      </trkpt>
      <trkpt lat="43.3238" lon="2.67292">
        <ele>115.5</ele>
        <time>2015-01-12T15:16:23Z</time>
      </trkpt>
      <trkpt lat="43.3238" lon="2.67293">
        <ele>111.65</ele>
        <time>2015-01-12T15:16:24Z</time>
      </trkpt>
      <trkpt lat="43.32373" lon="2.67301">
        <ele>113.09</ele>
        <time>2015-01-12T15:16:32Z</time>
      </trkpt>
      <trkpt lat="43.32365" lon="2.67312">
        <ele>112.13</ele>
        <time>2015-01-12T15:16:43Z</time>
      </trkpt>
      <trkpt lat="43.32363" lon="2.67313">
        <ele>113.57</ele>
        <time>2015-01-12T15:16:46Z</time>
      </trkpt>
      <trkpt lat="43.32361" lon="2.67314">
        <ele>111.17</ele>
        <time>2015-01-12T15:16:48Z</time>
      </trkpt>
      <trkpt lat="43.32359" lon="2.67314">
        <ele>112.13</ele>
        <time>2015-01-12T15:16:49Z</time>
      </trkpt>
      <trkpt lat="43.32357" lon="2.67316">
        <ele>113.09</ele>
        <time>2015-01-12T15:16:51Z</time>
      </trkpt>
      <trkpt lat="43.32352" lon="2.67318">
        <ele>113.57</ele>
        <time>2015-01-12T15:16:55Z</time>
      </trkpt>
      <trkpt lat="43.3235" lon="2.67319">
        <ele>111.65</ele>
        <time>2015-01-12T15:16:57Z</time>
      </trkpt>
      <trkpt lat="43.32346" lon="2.67321">
        <ele>112.61</ele>
        <time>2015-01-12T15:17:01Z</time>
      </trkpt>
      <trkpt lat="43.3234" lon="2.67324">
        <ele>111.17</ele>
        <time>2015-01-12T15:17:12Z</time>
      </trkpt>
      <trkpt lat="43.32339" lon="2.67325">
        <ele>114.53</ele>
        <time>2015-01-12T15:17:13Z</time>
      </trkpt>
      <trkpt lat="43.32337" lon="2.67326">
        <ele>111.65</ele>
        <time>2015-01-12T15:17:15Z</time>
      </trkpt>
      <trkpt lat="43.32335" lon="2.67327">
        <ele>111.65</ele>
        <time>2015-01-12T15:17:17Z</time>
      </trkpt>
      <trkpt lat="43.32329" lon="2.67329">
        <ele>116.94</ele>
        <time>2015-01-12T15:17:22Z</time>
      </trkpt>
      <trkpt lat="43.32329" lon="2.67329">
        <ele>114.05</ele>
        <time>2015-01-12T15:17:23Z</time>
      </trkpt>
      <trkpt lat="43.32327" lon="2.6733">
        <ele>113.57</ele>
        <time>2015-01-12T15:17:25Z</time>
      </trkpt>
      <trkpt lat="43.32322" lon="2.67332">
        <ele>110.21</ele>
        <time>2015-01-12T15:17:29Z</time>
      </trkpt>
      <trkpt lat="43.32321" lon="2.67332">
        <ele>111.65</ele>
        <time>2015-01-12T15:17:30Z</time>
      </trkpt>
      <trkpt lat="43.32315" lon="2.67336">
        <ele>113.57</ele>
        <time>2015-01-12T15:17:36Z</time>
      </trkpt>
      <trkpt lat="43.3231" lon="2.67338">
        <ele>114.53</ele>
        <time>2015-01-12T15:17:41Z</time>
      </trkpt>
      <trkpt lat="43.32308" lon="2.67339">
        <ele>110.21</ele>
        <time>2015-01-12T15:17:43Z</time>
      </trkpt>
      <trkpt lat="43.32307" lon="2.6734">
        <ele>111.17</ele>
        <time>2015-01-12T15:17:44Z</time>
      </trkpt>
      <trkpt lat="43.32305" lon="2.67341">
        <ele>111.65</ele>
        <time>2015-01-12T15:17:46Z</time>
      </trkpt>
      <trkpt lat="43.32299" lon="2.67345">
        <ele>115.01</ele>
        <time>2015-01-12T15:17:52Z</time>
      </trkpt>
      <trkpt lat="43.32298" lon="2.67345">
        <ele>111.65</ele>
        <time>2015-01-12T15:17:53Z</time>
      </trkpt>
      <trkpt lat="43.32287" lon="2.67352">
        <ele>111.65</ele>
        <time>2015-01-12T15:18:06Z</time>
      </trkpt>
      <trkpt lat="43.32285" lon="2.67354">
        <ele>114.53</ele>
        <time>2015-01-12T15:18:08Z</time>
      </trkpt>
      <trkpt lat="43.32285" lon="2.67355">
        <ele>111.17</ele>
        <time>2015-01-12T15:18:09Z</time>
      </trkpt>
      <trkpt lat="43.32284" lon="2.67355">
        <ele>114.53</ele>
        <time>2015-01-12T15:18:10Z</time>
      </trkpt>
      <trkpt lat="43.32281" lon="2.67356">
        <ele>110.21</ele>
        <time>2015-01-12T15:18:12Z</time>
      </trkpt>
      <trkpt lat="43.3228" lon="2.67357">
        <ele>112.13</ele>
        <time>2015-01-12T15:18:13Z</time>
      </trkpt>
      <trkpt lat="43.32277" lon="2.6736">
        <ele>110.69</ele>
        <time>2015-01-12T15:18:17Z</time>
      </trkpt>
      <trkpt lat="43.32276" lon="2.67365">
        <ele>116.46</ele>
        <time>2015-01-12T15:18:20Z</time>
      </trkpt>
      <trkpt lat="43.32277" lon="2.67366">
        <ele>111.65</ele>
        <time>2015-01-12T15:18:21Z</time>
      </trkpt>
      <trkpt lat="43.32284" lon="2.67369">
        <ele>112.13</ele>
        <time>2015-01-12T15:18:31Z</time>
      </trkpt>
      <trkpt lat="43.32289" lon="2.67372">
        <ele>112.61</ele>
        <time>2015-01-12T15:18:37Z</time>
      </trkpt>
      <trkpt lat="43.32294" lon="2.67375">
        <ele>116.46</ele>
        <time>2015-01-12T15:18:43Z</time>
      </trkpt>
      <trkpt lat="43.32295" lon="2.67376">
        <ele>112.61</ele>
        <time>2015-01-12T15:18:44Z</time>
      </trkpt>
      <trkpt lat="43.32302" lon="2.67382">
        <ele>114.53</ele>
        <time>2015-01-12T15:18:54Z</time>
      </trkpt>
      <trkpt lat="43.32303" lon="2.67382">
        <ele>112.13</ele>
        <time>2015-01-12T15:18:55Z</time>
      </trkpt>
      <trkpt lat="43.32308" lon="2.67385">
        <ele>111.65</ele>
        <time>2015-01-12T15:19:01Z</time>
      </trkpt>
      <trkpt lat="43.32316" lon="2.67389">
        <ele>113.57</ele>
        <time>2015-01-12T15:19:12Z</time>
      </trkpt>
      <trkpt lat="43.32321" lon="2.6739">
        <ele>114.53</ele>
        <time>2015-01-12T15:19:17Z</time>
      </trkpt>
      <trkpt lat="43.32322" lon="2.6739">
        <ele>111.17</ele>
        <time>2015-01-12T15:19:18Z</time>
      </trkpt>
      <trkpt lat="43.32324" lon="2.67391">
        <ele>114.53</ele>
        <time>2015-01-12T15:19:21Z</time>
      </trkpt>
      <trkpt lat="43.32325" lon="2.67391">
        <ele>111.17</ele>
        <time>2015-01-12T15:19:22Z</time>
      </trkpt>
      <trkpt lat="43.32335" lon="2.67399">
        <ele>111.65</ele>
        <time>2015-01-12T15:19:38Z</time>
      </trkpt>
      <trkpt lat="43.3234" lon="2.67403">
        <ele>108.29</ele>
        <time>2015-01-12T15:19:44Z</time>
      </trkpt>
      <trkpt lat="43.32341" lon="2.67403">
        <ele>110.69</ele>
        <time>2015-01-12T15:19:45Z</time>
      </trkpt>
      <trkpt lat="43.32345" lon="2.67406">
        <ele>108.29</ele>
        <time>2015-01-12T15:19:50Z</time>
      </trkpt>
      <trkpt lat="43.32349" lon="2.67412">
        <ele>108.77</ele>
        <time>2015-01-12T15:19:57Z</time>
      </trkpt>
      <trkpt lat="43.32355" lon="2.67417">
        <ele>105.4</ele>
        <time>2015-01-12T15:20:07Z</time>
      </trkpt>
      <trkpt lat="43.32357" lon="2.67417">
        <ele>110.69</ele>
        <time>2015-01-12T15:20:09Z</time>
      </trkpt>
      <trkpt lat="43.32359" lon="2.67418">
        <ele>106.84</ele>
        <time>2015-01-12T15:20:11Z</time>
      </trkpt>
      <trkpt lat="43.3236" lon="2.67419">
        <ele>108.77</ele>
        <time>2015-01-12T15:20:13Z</time>
      </trkpt>
      <trkpt lat="43.32362" lon="2.67421">
        <ele>105.4</ele>
        <time>2015-01-12T15:20:15Z</time>
      </trkpt>
      <trkpt lat="43.32362" lon="2.67421">
        <ele>105.4</ele>
        <time>2015-01-12T15:20:16Z</time>
      </trkpt>
      <trkpt lat="43.32366" lon="2.67426">
        <ele>104.92</ele>
        <time>2015-01-12T15:20:29Z</time>
      </trkpt>
      <trkpt lat="43.32366" lon="2.67428">
        <ele>105.4</ele>
        <time>2015-01-12T15:20:52Z</time>
      </trkpt>
      <trkpt lat="43.32366" lon="2.67429">
        <ele>103.48</ele>
        <time>2015-01-12T15:21:15Z</time>
      </trkpt>
      <trkpt lat="43.32371" lon="2.67434">
        <ele>104.44</ele>
        <time>2015-01-12T15:21:30Z</time>
      </trkpt>
      <trkpt lat="43.32371" lon="2.67435">
        <ele>107.81</ele>
        <time>2015-01-12T15:21:47Z</time>
      </trkpt>
      <trkpt lat="43.32371" lon="2.67435">
        <ele>102.04</ele>
        <time>2015-01-12T15:21:48Z</time>
      </trkpt>
      <trkpt lat="43.32371" lon="2.67435">
        <ele>105.4</ele>
        <time>2015-01-12T15:21:50Z</time>
      </trkpt>
      <trkpt lat="43.32371" lon="2.67436">
        <ele>104.92</ele>
        <time>2015-01-12T15:21:54Z</time>
      </trkpt>
      <trkpt lat="43.32372" lon="2.67436">
        <ele>103</ele>
        <time>2015-01-12T15:21:57Z</time>
      </trkpt>
      <trkpt lat="43.32372" lon="2.67445">
        <ele>102.52</ele>
        <time>2015-01-12T15:22:09Z</time>
      </trkpt>
      <trkpt lat="43.32372" lon="2.67447">
        <ele>99.15</ele>
        <time>2015-01-12T15:22:11Z</time>
      </trkpt>
      <trkpt lat="43.32372" lon="2.67448">
        <ele>100.11</ele>
        <time>2015-01-12T15:22:12Z</time>
      </trkpt>
      <trkpt lat="43.32373" lon="2.6745">
        <ele>100.11</ele>
        <time>2015-01-12T15:22:31Z</time>
      </trkpt>
      <trkpt lat="43.32371" lon="2.67453">
        <ele>96.75</ele>
        <time>2015-01-12T15:22:45Z</time>
      </trkpt>
      <trkpt lat="43.32371" lon="2.67455">
        <ele>100.6</ele>
        <time>2015-01-12T15:22:47Z</time>
      </trkpt>
      <trkpt lat="43.32373" lon="2.67455">
        <ele>99.63</ele>
        <time>2015-01-12T15:22:50Z</time>
      </trkpt>
      <trkpt lat="43.32374" lon="2.67455">
        <ele>100.6</ele>
        <time>2015-01-12T15:22:52Z</time>
      </trkpt>
      <trkpt lat="43.32378" lon="2.67461">
        <ele>103.96</ele>
        <time>2015-01-12T15:23:02Z</time>
      </trkpt>
      <trkpt lat="43.32377" lon="2.67467">
        <ele>103.96</ele>
        <time>2015-01-12T15:23:07Z</time>
      </trkpt>
      <trkpt lat="43.32377" lon="2.67469">
        <ele>100.6</ele>
        <time>2015-01-12T15:23:08Z</time>
      </trkpt>
      <trkpt lat="43.32377" lon="2.67473">
        <ele>103.96</ele>
        <time>2015-01-12T15:23:10Z</time>
      </trkpt>
      <trkpt lat="43.32377" lon="2.67474">
        <ele>103.48</ele>
        <time>2015-01-12T15:23:11Z</time>
      </trkpt>
      <trkpt lat="43.32377" lon="2.67476">
        <ele>100.6</ele>
        <time>2015-01-12T15:23:12Z</time>
      </trkpt>
      <trkpt lat="43.32377" lon="2.67477">
        <ele>104.44</ele>
        <time>2015-01-12T15:23:13Z</time>
      </trkpt>
      <trkpt lat="43.32377" lon="2.67479">
        <ele>101.08</ele>
        <time>2015-01-12T15:23:14Z</time>
      </trkpt>
      <trkpt lat="43.32381" lon="2.67489">
        <ele>104.44</ele>
        <time>2015-01-12T15:23:22Z</time>
      </trkpt>
      <trkpt lat="43.32382" lon="2.67493">
        <ele>103.48</ele>
        <time>2015-01-12T15:23:26Z</time>
      </trkpt>
      <trkpt lat="43.32388" lon="2.67507">
        <ele>102.52</ele>
        <time>2015-01-12T15:23:39Z</time>
      </trkpt>
      <trkpt lat="43.32393" lon="2.67523">
        <ele>106.36</ele>
        <time>2015-01-12T15:23:54Z</time>
      </trkpt>
      <trkpt lat="43.32394" lon="2.67524">
        <ele>101.08</ele>
        <time>2015-01-12T15:23:55Z</time>
      </trkpt>
      <trkpt lat="43.32398" lon="2.67532">
        <ele>102.52</ele>
        <time>2015-01-12T15:24:02Z</time>
      </trkpt>
      <trkpt lat="43.324" lon="2.67534">
        <ele>104.92</ele>
        <time>2015-01-12T15:24:04Z</time>
      </trkpt>
      <trkpt lat="43.32402" lon="2.67537">
        <ele>104.92</ele>
        <time>2015-01-12T15:24:06Z</time>
      </trkpt>
      <trkpt lat="43.32404" lon="2.6755">
        <ele>103</ele>
        <time>2015-01-12T15:24:16Z</time>
      </trkpt>
      <trkpt lat="43.32405" lon="2.67557">
        <ele>107.32</ele>
        <time>2015-01-12T15:24:22Z</time>
      </trkpt>
      <trkpt lat="43.32405" lon="2.67558">
        <ele>103.96</ele>
        <time>2015-01-12T15:24:23Z</time>
      </trkpt>
      <trkpt lat="43.32406" lon="2.67565">
        <ele>105.4</ele>
        <time>2015-01-12T15:24:28Z</time>
      </trkpt>
      <trkpt lat="43.32406" lon="2.67577">
        <ele>103.96</ele>
        <time>2015-01-12T15:24:36Z</time>
      </trkpt>
      <trkpt lat="43.32405" lon="2.67579">
        <ele>105.4</ele>
        <time>2015-01-12T15:24:38Z</time>
      </trkpt>
      <trkpt lat="43.32404" lon="2.67584">
        <ele>105.88</ele>
        <time>2015-01-12T15:24:41Z</time>
      </trkpt>
      <trkpt lat="43.32402" lon="2.6759">
        <ele>102.52</ele>
        <time>2015-01-12T15:24:45Z</time>
      </trkpt>
      <trkpt lat="43.32402" lon="2.67591">
        <ele>109.25</ele>
        <time>2015-01-12T15:24:46Z</time>
      </trkpt>
      <trkpt lat="43.32401" lon="2.67592">
        <ele>103.96</ele>
        <time>2015-01-12T15:24:47Z</time>
      </trkpt>
      <trkpt lat="43.32392" lon="2.6761">
        <ele>107.32</ele>
        <time>2015-01-12T15:25:04Z</time>
      </trkpt>
      <trkpt lat="43.32391" lon="2.67612">
        <ele>105.88</ele>
        <time>2015-01-12T15:25:05Z</time>
      </trkpt>
      <trkpt lat="43.3239" lon="2.67614">
        <ele>105.4</ele>
        <time>2015-01-12T15:25:07Z</time>
      </trkpt>
      <trkpt lat="43.3238" lon="2.67634">
        <ele>105.4</ele>
        <time>2015-01-12T15:25:23Z</time>
      </trkpt>
      <trkpt lat="43.32379" lon="2.67638">
        <ele>107.32</ele>
        <time>2015-01-12T15:25:26Z</time>
      </trkpt>
      <trkpt lat="43.32378" lon="2.67639">
        <ele>102.52</ele>
        <time>2015-01-12T15:25:27Z</time>
      </trkpt>
      <trkpt lat="43.32377" lon="2.6764">
        <ele>106.84</ele>
        <time>2015-01-12T15:25:28Z</time>
      </trkpt>
      <trkpt lat="43.32371" lon="2.67655">
        <ele>103.96</ele>
        <time>2015-01-12T15:25:40Z</time>
      </trkpt>
      <trkpt lat="43.32369" lon="2.67658">
        <ele>107.32</ele>
        <time>2015-01-12T15:25:44Z</time>
      </trkpt>
      <trkpt lat="43.32368" lon="2.6766">
        <ele>106.84</ele>
        <time>2015-01-12T15:25:51Z</time>
      </trkpt>
      <trkpt lat="43.32367" lon="2.67662">
        <ele>104.92</ele>
        <time>2015-01-12T15:25:53Z</time>
      </trkpt>
      <trkpt lat="43.32367" lon="2.67663">
        <ele>105.88</ele>
        <time>2015-01-12T15:25:55Z</time>
      </trkpt>
      <trkpt lat="43.32365" lon="2.67665">
        <ele>107.32</ele>
        <time>2015-01-12T15:25:59Z</time>
      </trkpt>
      <trkpt lat="43.32364" lon="2.67668">
        <ele>105.88</ele>
        <time>2015-01-12T15:26:01Z</time>
      </trkpt>
      <trkpt lat="43.32362" lon="2.67671">
        <ele>108.29</ele>
        <time>2015-01-12T15:26:03Z</time>
      </trkpt>
      <trkpt lat="43.32361" lon="2.67674">
        <ele>106.36</ele>
        <time>2015-01-12T15:26:06Z</time>
      </trkpt>
      <trkpt lat="43.32359" lon="2.67678">
        <ele>109.73</ele>
        <time>2015-01-12T15:26:09Z</time>
      </trkpt>
      <trkpt lat="43.32359" lon="2.67679">
        <ele>105.88</ele>
        <time>2015-01-12T15:26:10Z</time>
      </trkpt>
      <trkpt lat="43.32358" lon="2.67681">
        <ele>108.77</ele>
        <time>2015-01-12T15:26:11Z</time>
      </trkpt>
      <trkpt lat="43.32357" lon="2.67684">
        <ele>104.92</ele>
        <time>2015-01-12T15:26:13Z</time>
      </trkpt>
      <trkpt lat="43.32356" lon="2.67685">
        <ele>107.32</ele>
        <time>2015-01-12T15:26:14Z</time>
      </trkpt>
      <trkpt lat="43.32355" lon="2.67692">
        <ele>104.44</ele>
        <time>2015-01-12T15:26:19Z</time>
      </trkpt>
      <trkpt lat="43.32361" lon="2.67692">
        <ele>107.81</ele>
        <time>2015-01-12T15:26:29Z</time>
      </trkpt>
      <trkpt lat="43.32362" lon="2.67688">
        <ele>109.25</ele>
        <time>2015-01-12T15:26:33Z</time>
      </trkpt>
      <trkpt lat="43.32362" lon="2.67687">
        <ele>108.29</ele>
        <time>2015-01-12T15:26:34Z</time>
      </trkpt>
      <trkpt lat="43.32362" lon="2.67684">
        <ele>104.92</ele>
        <time>2015-01-12T15:26:37Z</time>
      </trkpt>
      <trkpt lat="43.32363" lon="2.67681">
        <ele>107.81</ele>
        <time>2015-01-12T15:26:39Z</time>
      </trkpt>
      <trkpt lat="43.32366" lon="2.67676">
        <ele>105.88</ele>
        <time>2015-01-12T15:26:43Z</time>
      </trkpt>
      <trkpt lat="43.32367" lon="2.67674">
        <ele>106.36</ele>
        <time>2015-01-12T15:26:45Z</time>
      </trkpt>
      <trkpt lat="43.32368" lon="2.67671">
        <ele>105.4</ele>
        <time>2015-01-12T15:26:47Z</time>
      </trkpt>
      <trkpt lat="43.32369" lon="2.6767">
        <ele>109.73</ele>
        <time>2015-01-12T15:26:48Z</time>
      </trkpt>
      <trkpt lat="43.32371" lon="2.67668">
        <ele>105.88</ele>
        <time>2015-01-12T15:26:50Z</time>
      </trkpt>
      <trkpt lat="43.32372" lon="2.67664">
        <ele>109.25</ele>
        <time>2015-01-12T15:26:53Z</time>
      </trkpt>
      <trkpt lat="43.32375" lon="2.6766">
        <ele>105.88</ele>
        <time>2015-01-12T15:26:57Z</time>
      </trkpt>
      <trkpt lat="43.32376" lon="2.67657">
        <ele>110.69</ele>
        <time>2015-01-12T15:27:00Z</time>
      </trkpt>
      <trkpt lat="43.32376" lon="2.67656">
        <ele>108.29</ele>
        <time>2015-01-12T15:27:01Z</time>
      </trkpt>
      <trkpt lat="43.32377" lon="2.67653">
        <ele>107.32</ele>
        <time>2015-01-12T15:27:03Z</time>
      </trkpt>
      <trkpt lat="43.32385" lon="2.67635">
        <ele>105.88</ele>
        <time>2015-01-12T15:27:18Z</time>
      </trkpt>
      <trkpt lat="43.32387" lon="2.67632">
        <ele>110.69</ele>
        <time>2015-01-12T15:27:27Z</time>
      </trkpt>
      <trkpt lat="43.32387" lon="2.6763">
        <ele>106.36</ele>
        <time>2015-01-12T15:27:28Z</time>
      </trkpt>
      <trkpt lat="43.3239" lon="2.67625">
        <ele>109.73</ele>
        <time>2015-01-12T15:27:32Z</time>
      </trkpt>
      <trkpt lat="43.3239" lon="2.67624">
        <ele>105.88</ele>
        <time>2015-01-12T15:27:33Z</time>
      </trkpt>
      <trkpt lat="43.32391" lon="2.67622">
        <ele>111.65</ele>
        <time>2015-01-12T15:27:34Z</time>
      </trkpt>
      <trkpt lat="43.32392" lon="2.6762">
        <ele>105.4</ele>
        <time>2015-01-12T15:27:36Z</time>
      </trkpt>
      <trkpt lat="43.32396" lon="2.67613">
        <ele>111.17</ele>
        <time>2015-01-12T15:27:41Z</time>
      </trkpt>
      <trkpt lat="43.32397" lon="2.6761">
        <ele>106.84</ele>
        <time>2015-01-12T15:27:43Z</time>
      </trkpt>
      <trkpt lat="43.32398" lon="2.6761">
        <ele>110.69</ele>
        <time>2015-01-12T15:27:44Z</time>
      </trkpt>
      <trkpt lat="43.324" lon="2.67607">
        <ele>105.4</ele>
        <time>2015-01-12T15:27:47Z</time>
      </trkpt>
      <trkpt lat="43.32401" lon="2.67606">
        <ele>106.36</ele>
        <time>2015-01-12T15:27:48Z</time>
      </trkpt>
      <trkpt lat="43.32404" lon="2.67602">
        <ele>110.21</ele>
        <time>2015-01-12T15:27:51Z</time>
      </trkpt>
      <trkpt lat="43.32407" lon="2.67598">
        <ele>107.81</ele>
        <time>2015-01-12T15:27:54Z</time>
      </trkpt>
      <trkpt lat="43.32408" lon="2.67597">
        <ele>104.44</ele>
        <time>2015-01-12T15:27:55Z</time>
      </trkpt>
      <trkpt lat="43.32409" lon="2.67595">
        <ele>108.29</ele>
        <time>2015-01-12T15:27:57Z</time>
      </trkpt>
      <trkpt lat="43.3241" lon="2.67594">
        <ele>104.44</ele>
        <time>2015-01-12T15:27:58Z</time>
      </trkpt>
      <trkpt lat="43.32411" lon="2.67593">
        <ele>105.4</ele>
        <time>2015-01-12T15:27:59Z</time>
      </trkpt>
      <trkpt lat="43.32412" lon="2.6759">
        <ele>105.4</ele>
        <time>2015-01-12T15:28:01Z</time>
      </trkpt>
      <trkpt lat="43.32413" lon="2.67586">
        <ele>110.69</ele>
        <time>2015-01-12T15:28:04Z</time>
      </trkpt>
      <trkpt lat="43.32414" lon="2.67583">
        <ele>102.52</ele>
        <time>2015-01-12T15:28:06Z</time>
      </trkpt>
      <trkpt lat="43.32415" lon="2.67581">
        <ele>104.44</ele>
        <time>2015-01-12T15:28:07Z</time>
      </trkpt>
      <trkpt lat="43.32416" lon="2.6758">
        <ele>107.81</ele>
        <time>2015-01-12T15:28:08Z</time>
      </trkpt>
      <trkpt lat="43.32418" lon="2.67578">
        <ele>106.36</ele>
        <time>2015-01-12T15:28:11Z</time>
      </trkpt>
      <trkpt lat="43.32425" lon="2.67563">
        <ele>109.73</ele>
        <time>2015-01-12T15:28:23Z</time>
      </trkpt>
      <trkpt lat="43.32429" lon="2.67559">
        <ele>110.69</ele>
        <time>2015-01-12T15:28:27Z</time>
      </trkpt>
      <trkpt lat="43.3243" lon="2.67558">
        <ele>107.81</ele>
        <time>2015-01-12T15:28:28Z</time>
      </trkpt>
      <trkpt lat="43.32436" lon="2.67551">
        <ele>110.21</ele>
        <time>2015-01-12T15:28:41Z</time>
      </trkpt>
      <trkpt lat="43.32438" lon="2.67552">
        <ele>110.21</ele>
        <time>2015-01-12T15:28:45Z</time>
      </trkpt>
      <trkpt lat="43.32439" lon="2.67553">
        <ele>108.29</ele>
        <time>2015-01-12T15:28:47Z</time>
      </trkpt>
      <trkpt lat="43.32446" lon="2.67552">
        <ele>112.61</ele>
        <time>2015-01-12T15:28:53Z</time>
      </trkpt>
      <trkpt lat="43.32447" lon="2.67552">
        <ele>112.13</ele>
        <time>2015-01-12T15:28:54Z</time>
      </trkpt>
      <trkpt lat="43.32448" lon="2.67554">
        <ele>107.32</ele>
        <time>2015-01-12T15:28:56Z</time>
      </trkpt>
      <trkpt lat="43.32449" lon="2.67554">
        <ele>110.69</ele>
        <time>2015-01-12T15:28:57Z</time>
      </trkpt>
      <trkpt lat="43.32452" lon="2.67556">
        <ele>115.01</ele>
        <time>2015-01-12T15:29:01Z</time>
      </trkpt>
      <trkpt lat="43.32455" lon="2.67557">
        <ele>114.05</ele>
        <time>2015-01-12T15:29:03Z</time>
      </trkpt>
      <trkpt lat="43.32459" lon="2.67558">
        <ele>109.25</ele>
        <time>2015-01-12T15:29:05Z</time>
      </trkpt>
      <trkpt lat="43.32461" lon="2.67558">
        <ele>112.13</ele>
        <time>2015-01-12T15:29:06Z</time>
      </trkpt>
      <trkpt lat="43.32474" lon="2.67557">
        <ele>114.05</ele>
        <time>2015-01-12T15:29:17Z</time>
      </trkpt>
      <trkpt lat="43.32478" lon="2.67557">
        <ele>113.57</ele>
        <time>2015-01-12T15:29:23Z</time>
      </trkpt>
      <trkpt lat="43.32479" lon="2.67557">
        <ele>115.01</ele>
        <time>2015-01-12T15:29:25Z</time>
      </trkpt>
      <trkpt lat="43.32484" lon="2.6755">
        <ele>117.9</ele>
        <time>2015-01-12T15:29:33Z</time>
      </trkpt>
      <trkpt lat="43.32485" lon="2.67549">
        <ele>113.57</ele>
        <time>2015-01-12T15:29:34Z</time>
      </trkpt>
      <trkpt lat="43.32488" lon="2.67547">
        <ele>116.94</ele>
        <time>2015-01-12T15:29:37Z</time>
      </trkpt>
      <trkpt lat="43.32489" lon="2.67547">
        <ele>113.09</ele>
        <time>2015-01-12T15:29:38Z</time>
      </trkpt>
      <trkpt lat="43.3249" lon="2.67546">
        <ele>117.42</ele>
        <time>2015-01-12T15:29:40Z</time>
      </trkpt>
      <trkpt lat="43.32491" lon="2.67545">
        <ele>114.53</ele>
        <time>2015-01-12T15:29:41Z</time>
      </trkpt>
      <trkpt lat="43.32493" lon="2.67541">
        <ele>117.42</ele>
        <time>2015-01-12T15:29:45Z</time>
      </trkpt>
      <trkpt lat="43.32495" lon="2.67539">
        <ele>114.53</ele>
        <time>2015-01-12T15:29:47Z</time>
      </trkpt>
      <trkpt lat="43.32501" lon="2.67533">
        <ele>116.94</ele>
        <time>2015-01-12T15:29:58Z</time>
      </trkpt>
      <trkpt lat="43.32502" lon="2.67528">
        <ele>121.26</ele>
        <time>2015-01-12T15:30:07Z</time>
      </trkpt>
      <trkpt lat="43.32503" lon="2.67527">
        <ele>116.94</ele>
        <time>2015-01-12T15:30:08Z</time>
      </trkpt>
      <trkpt lat="43.32505" lon="2.67525">
        <ele>115.01</ele>
        <time>2015-01-12T15:30:10Z</time>
      </trkpt>
      <trkpt lat="43.32506" lon="2.67521">
        <ele>121.74</ele>
        <time>2015-01-12T15:30:14Z</time>
      </trkpt>
      <trkpt lat="43.32507" lon="2.67519">
        <ele>116.46</ele>
        <time>2015-01-12T15:30:15Z</time>
      </trkpt>
      <trkpt lat="43.32507" lon="2.67517">
        <ele>121.26</ele>
        <time>2015-01-12T15:30:17Z</time>
      </trkpt>
      <trkpt lat="43.32507" lon="2.67515">
        <ele>117.9</ele>
        <time>2015-01-12T15:30:18Z</time>
      </trkpt>
      <trkpt lat="43.32508" lon="2.67511">
        <ele>121.74</ele>
        <time>2015-01-12T15:30:21Z</time>
      </trkpt>
      <trkpt lat="43.32509" lon="2.6751">
        <ele>118.38</ele>
        <time>2015-01-12T15:30:22Z</time>
      </trkpt>
      <trkpt lat="43.32509" lon="2.67509">
        <ele>118.38</ele>
        <time>2015-01-12T15:30:23Z</time>
      </trkpt>
      <trkpt lat="43.3251" lon="2.67508">
        <ele>122.22</ele>
        <time>2015-01-12T15:30:25Z</time>
      </trkpt>
      <trkpt lat="43.32511" lon="2.67507">
        <ele>118.86</ele>
        <time>2015-01-12T15:30:26Z</time>
      </trkpt>
      <trkpt lat="43.32512" lon="2.67506">
        <ele>121.74</ele>
        <time>2015-01-12T15:30:28Z</time>
      </trkpt>
      <trkpt lat="43.32512" lon="2.67505">
        <ele>120.3</ele>
        <time>2015-01-12T15:30:29Z</time>
      </trkpt>
      <trkpt lat="43.32515" lon="2.67501">
        <ele>111.65</ele>
        <time>2015-01-12T15:30:38Z</time>
      </trkpt>
      <trkpt lat="43.32515" lon="2.675">
        <ele>122.71</ele>
        <time>2015-01-12T15:30:39Z</time>
      </trkpt>
      <trkpt lat="43.32517" lon="2.67499">
        <ele>118.38</ele>
        <time>2015-01-12T15:30:44Z</time>
      </trkpt>
      <trkpt lat="43.3252" lon="2.67497">
        <ele>123.19</ele>
        <time>2015-01-12T15:30:49Z</time>
      </trkpt>
      <trkpt lat="43.3252" lon="2.67497">
        <ele>121.26</ele>
        <time>2015-01-12T15:30:50Z</time>
      </trkpt>
      <trkpt lat="43.32529" lon="2.6749">
        <ele>124.63</ele>
        <time>2015-01-12T15:31:03Z</time>
      </trkpt>
      <trkpt lat="43.3253" lon="2.67489">
        <ele>121.74</ele>
        <time>2015-01-12T15:31:05Z</time>
      </trkpt>
      <trkpt lat="43.32532" lon="2.67487">
        <ele>123.19</ele>
        <time>2015-01-12T15:31:07Z</time>
      </trkpt>
      <trkpt lat="43.3254" lon="2.67479">
        <ele>123.67</ele>
        <time>2015-01-12T15:31:21Z</time>
      </trkpt>
      <trkpt lat="43.32551" lon="2.6747">
        <ele>127.03</ele>
        <time>2015-01-12T15:31:33Z</time>
      </trkpt>
      <trkpt lat="43.32552" lon="2.6747">
        <ele>126.07</ele>
        <time>2015-01-12T15:31:34Z</time>
      </trkpt>
      <trkpt lat="43.32552" lon="2.67469">
        <ele>124.15</ele>
        <time>2015-01-12T15:31:36Z</time>
      </trkpt>
      <trkpt lat="43.32555" lon="2.67467">
        <ele>125.59</ele>
        <time>2015-01-12T15:31:50Z</time>
      </trkpt>
      <trkpt lat="43.32555" lon="2.67467">
        <ele>124.15</ele>
        <time>2015-01-12T15:31:58Z</time>
      </trkpt>
      <trkpt lat="43.32556" lon="2.67466">
        <ele>127.03</ele>
        <time>2015-01-12T15:32:01Z</time>
      </trkpt>
      <trkpt lat="43.32559" lon="2.67462">
        <ele>127.99</ele>
        <time>2015-01-12T15:32:11Z</time>
      </trkpt>
      <trkpt lat="43.32567" lon="2.67454">
        <ele>130.88</ele>
        <time>2015-01-12T15:32:20Z</time>
      </trkpt>
      <trkpt lat="43.32568" lon="2.67453">
        <ele>127.03</ele>
        <time>2015-01-12T15:32:21Z</time>
      </trkpt>
      <trkpt lat="43.32572" lon="2.6745">
        <ele>131.36</ele>
        <time>2015-01-12T15:32:25Z</time>
      </trkpt>
      <trkpt lat="43.32572" lon="2.67449">
        <ele>129.43</ele>
        <time>2015-01-12T15:32:26Z</time>
      </trkpt>
      <trkpt lat="43.32572" lon="2.6745">
        <ele>126.07</ele>
        <time>2015-01-12T15:32:27Z</time>
      </trkpt>
      <trkpt lat="43.32572" lon="2.6745">
        <ele>127.99</ele>
        <time>2015-01-12T15:32:28Z</time>
      </trkpt>
      <trkpt lat="43.32575" lon="2.67447">
        <ele>127.51</ele>
        <time>2015-01-12T15:32:37Z</time>
      </trkpt>
      <trkpt lat="43.32576" lon="2.67445">
        <ele>132.8</ele>
        <time>2015-01-12T15:32:39Z</time>
      </trkpt>
      <trkpt lat="43.32579" lon="2.67443">
        <ele>127.51</ele>
        <time>2015-01-12T15:32:42Z</time>
      </trkpt>
      <trkpt lat="43.3258" lon="2.67441">
        <ele>129.43</ele>
        <time>2015-01-12T15:32:43Z</time>
      </trkpt>
      <trkpt lat="43.32587" lon="2.67433">
        <ele>129.92</ele>
        <time>2015-01-12T15:32:50Z</time>
      </trkpt>
      <trkpt lat="43.32589" lon="2.67431">
        <ele>126.55</ele>
        <time>2015-01-12T15:32:52Z</time>
      </trkpt>
      <trkpt lat="43.32589" lon="2.6743">
        <ele>130.4</ele>
        <time>2015-01-12T15:32:53Z</time>
      </trkpt>
      <trkpt lat="43.32595" lon="2.67426">
        <ele>128.95</ele>
        <time>2015-01-12T15:32:59Z</time>
      </trkpt>
      <trkpt lat="43.32597" lon="2.67424">
        <ele>128.95</ele>
        <time>2015-01-12T15:33:01Z</time>
      </trkpt>
      <trkpt lat="43.32599" lon="2.67424">
        <ele>133.28</ele>
        <time>2015-01-12T15:33:03Z</time>
      </trkpt>
      <trkpt lat="43.326" lon="2.67423">
        <ele>132.32</ele>
        <time>2015-01-12T15:33:04Z</time>
      </trkpt>
      <trkpt lat="43.32602" lon="2.67422">
        <ele>129.43</ele>
        <time>2015-01-12T15:33:06Z</time>
      </trkpt>
      <trkpt lat="43.32602" lon="2.67421">
        <ele>134.24</ele>
        <time>2015-01-12T15:33:07Z</time>
      </trkpt>
      <trkpt lat="43.32603" lon="2.6742">
        <ele>128.95</ele>
        <time>2015-01-12T15:33:08Z</time>
      </trkpt>
      <trkpt lat="43.32606" lon="2.67418">
        <ele>133.76</ele>
        <time>2015-01-12T15:33:11Z</time>
      </trkpt>
      <trkpt lat="43.32607" lon="2.67418">
        <ele>130.88</ele>
        <time>2015-01-12T15:33:12Z</time>
      </trkpt>
      <trkpt lat="43.32617" lon="2.6741">
        <ele>131.84</ele>
        <time>2015-01-12T15:33:26Z</time>
      </trkpt>
      <trkpt lat="43.32621" lon="2.67408">
        <ele>130.88</ele>
        <time>2015-01-12T15:33:32Z</time>
      </trkpt>
      <trkpt lat="43.32623" lon="2.67406">
        <ele>128.47</ele>
        <time>2015-01-12T15:33:34Z</time>
      </trkpt>
      <trkpt lat="43.32624" lon="2.67404">
        <ele>132.8</ele>
        <time>2015-01-12T15:33:36Z</time>
      </trkpt>
      <trkpt lat="43.32625" lon="2.67403">
        <ele>131.36</ele>
        <time>2015-01-12T15:33:37Z</time>
      </trkpt>
      <trkpt lat="43.32629" lon="2.674">
        <ele>130.88</ele>
        <time>2015-01-12T15:33:42Z</time>
      </trkpt>
      <trkpt lat="43.32637" lon="2.67389">
        <ele>133.28</ele>
        <time>2015-01-12T15:33:56Z</time>
      </trkpt>
      <trkpt lat="43.32639" lon="2.67384">
        <ele>130.4</ele>
        <time>2015-01-12T15:34:02Z</time>
      </trkpt>
      <trkpt lat="43.3264" lon="2.67383">
        <ele>131.36</ele>
        <time>2015-01-12T15:34:03Z</time>
      </trkpt>
      <trkpt lat="43.32641" lon="2.67379">
        <ele>133.28</ele>
        <time>2015-01-12T15:34:06Z</time>
      </trkpt>
      <trkpt lat="43.32642" lon="2.67377">
        <ele>131.84</ele>
        <time>2015-01-12T15:34:07Z</time>
      </trkpt>
      <trkpt lat="43.32643" lon="2.6737">
        <ele>131.36</ele>
        <time>2015-01-12T15:34:13Z</time>
      </trkpt>
      <trkpt lat="43.32644" lon="2.67368">
        <ele>132.8</ele>
        <time>2015-01-12T15:34:15Z</time>
      </trkpt>
      <trkpt lat="43.32648" lon="2.67358">
        <ele>136.64</ele>
        <time>2015-01-12T15:34:24Z</time>
      </trkpt>
      <trkpt lat="43.32649" lon="2.67358">
        <ele>130.88</ele>
        <time>2015-01-12T15:34:25Z</time>
      </trkpt>
      <trkpt lat="43.32651" lon="2.67355">
        <ele>135.2</ele>
        <time>2015-01-12T15:34:28Z</time>
      </trkpt>
      <trkpt lat="43.32651" lon="2.67354">
        <ele>134.72</ele>
        <time>2015-01-12T15:34:29Z</time>
      </trkpt>
      <trkpt lat="43.32653" lon="2.67353">
        <ele>132.8</ele>
        <time>2015-01-12T15:34:32Z</time>
      </trkpt>
      <trkpt lat="43.32654" lon="2.67352">
        <ele>133.76</ele>
        <time>2015-01-12T15:34:34Z</time>
      </trkpt>
      <trkpt lat="43.32666" lon="2.67347">
        <ele>136.16</ele>
        <time>2015-01-12T15:34:46Z</time>
      </trkpt>
      <trkpt lat="43.32677" lon="2.6734">
        <ele>140.01</ele>
        <time>2015-01-12T15:35:00Z</time>
      </trkpt>
      <trkpt lat="43.32679" lon="2.67338">
        <ele>135.2</ele>
        <time>2015-01-12T15:35:03Z</time>
      </trkpt>
      <trkpt lat="43.3268" lon="2.67337">
        <ele>135.2</ele>
        <time>2015-01-12T15:35:04Z</time>
      </trkpt>
      <trkpt lat="43.32685" lon="2.67331">
        <ele>137.13</ele>
        <time>2015-01-12T15:35:16Z</time>
      </trkpt>
      <trkpt lat="43.32687" lon="2.67329">
        <ele>135.68</ele>
        <time>2015-01-12T15:35:18Z</time>
      </trkpt>
      <trkpt lat="43.32687" lon="2.67329">
        <ele>140.97</ele>
        <time>2015-01-12T15:35:19Z</time>
      </trkpt>
      <trkpt lat="43.32687" lon="2.67328">
        <ele>135.2</ele>
        <time>2015-01-12T15:35:20Z</time>
      </trkpt>
      <trkpt lat="43.32687" lon="2.67326">
        <ele>138.09</ele>
        <time>2015-01-12T15:35:22Z</time>
      </trkpt>
      <trkpt lat="43.32688" lon="2.67326">
        <ele>138.57</ele>
        <time>2015-01-12T15:35:23Z</time>
      </trkpt>
      <trkpt lat="43.32691" lon="2.67323">
        <ele>136.16</ele>
        <time>2015-01-12T15:35:38Z</time>
      </trkpt>
      <trkpt lat="43.32693" lon="2.67323">
        <ele>140.49</ele>
        <time>2015-01-12T15:35:40Z</time>
      </trkpt>
      <trkpt lat="43.32694" lon="2.67323">
        <ele>135.2</ele>
        <time>2015-01-12T15:35:41Z</time>
      </trkpt>
      <trkpt lat="43.32695" lon="2.67323">
        <ele>140.49</ele>
        <time>2015-01-12T15:35:42Z</time>
      </trkpt>
      <trkpt lat="43.32697" lon="2.67324">
        <ele>136.16</ele>
        <time>2015-01-12T15:35:44Z</time>
      </trkpt>
      <trkpt lat="43.32697" lon="2.67324">
        <ele>136.16</ele>
        <time>2015-01-12T15:35:45Z</time>
      </trkpt>
      <trkpt lat="43.32698" lon="2.67325">
        <ele>141.45</ele>
        <time>2015-01-12T15:35:46Z</time>
      </trkpt>
      <trkpt lat="43.32699" lon="2.67325">
        <ele>138.09</ele>
        <time>2015-01-12T15:35:47Z</time>
      </trkpt>
      <trkpt lat="43.32699" lon="2.67326">
        <ele>137.13</ele>
        <time>2015-01-12T15:35:48Z</time>
      </trkpt>
      <trkpt lat="43.32701" lon="2.67328">
        <ele>137.61</ele>
        <time>2015-01-12T15:35:50Z</time>
      </trkpt>
      <trkpt lat="43.32702" lon="2.67328">
        <ele>141.93</ele>
        <time>2015-01-12T15:35:51Z</time>
      </trkpt>
      <trkpt lat="43.32703" lon="2.67328">
        <ele>136.64</ele>
        <time>2015-01-12T15:35:52Z</time>
      </trkpt>
      <trkpt lat="43.32708" lon="2.67336">
        <ele>139.53</ele>
        <time>2015-01-12T15:36:04Z</time>
      </trkpt>
      <trkpt lat="43.32706" lon="2.67341">
        <ele>137.61</ele>
        <time>2015-01-12T15:36:10Z</time>
      </trkpt>
      <trkpt lat="43.32705" lon="2.67345">
        <ele>140.97</ele>
        <time>2015-01-12T15:36:13Z</time>
      </trkpt>
      <trkpt lat="43.32705" lon="2.67346">
        <ele>140.01</ele>
        <time>2015-01-12T15:36:14Z</time>
      </trkpt>
      <trkpt lat="43.32705" lon="2.67347">
        <ele>136.64</ele>
        <time>2015-01-12T15:36:15Z</time>
      </trkpt>
      <trkpt lat="43.32705" lon="2.67349">
        <ele>140.49</ele>
        <time>2015-01-12T15:36:16Z</time>
      </trkpt>
      <trkpt lat="43.32705" lon="2.67352">
        <ele>137.13</ele>
        <time>2015-01-12T15:36:18Z</time>
      </trkpt>
      <trkpt lat="43.32704" lon="2.67356">
        <ele>140.01</ele>
        <time>2015-01-12T15:36:21Z</time>
      </trkpt>
      <trkpt lat="43.32703" lon="2.67363">
        <ele>136.64</ele>
        <time>2015-01-12T15:36:26Z</time>
      </trkpt>
      <trkpt lat="43.32703" lon="2.67367">
        <ele>139.05</ele>
        <time>2015-01-12T15:36:30Z</time>
      </trkpt>
      <trkpt lat="43.32702" lon="2.67371">
        <ele>137.61</ele>
        <time>2015-01-12T15:36:37Z</time>
      </trkpt>
      <trkpt lat="43.32702" lon="2.67376">
        <ele>139.53</ele>
        <time>2015-01-12T15:36:41Z</time>
      </trkpt>
      <trkpt lat="43.32701" lon="2.67378">
        <ele>138.09</ele>
        <time>2015-01-12T15:36:43Z</time>
      </trkpt>
      <trkpt lat="43.327" lon="2.67384">
        <ele>140.97</ele>
        <time>2015-01-12T15:36:47Z</time>
      </trkpt>
      <trkpt lat="43.327" lon="2.67385">
        <ele>139.05</ele>
        <time>2015-01-12T15:36:48Z</time>
      </trkpt>
      <trkpt lat="43.32698" lon="2.67396">
        <ele>135.68</ele>
        <time>2015-01-12T15:36:57Z</time>
      </trkpt>
      <trkpt lat="43.32698" lon="2.67401">
        <ele>139.05</ele>
        <time>2015-01-12T15:37:00Z</time>
      </trkpt>
      <trkpt lat="43.32697" lon="2.67408">
        <ele>136.16</ele>
        <time>2015-01-12T15:37:05Z</time>
      </trkpt>
      <trkpt lat="43.32697" lon="2.67409">
        <ele>137.61</ele>
        <time>2015-01-12T15:37:06Z</time>
      </trkpt>
      <trkpt lat="43.32696" lon="2.67414">
        <ele>141.93</ele>
        <time>2015-01-12T15:37:09Z</time>
      </trkpt>
      <trkpt lat="43.32696" lon="2.67415">
        <ele>139.53</ele>
        <time>2015-01-12T15:37:10Z</time>
      </trkpt>
      <trkpt lat="43.32696" lon="2.67418">
        <ele>136.64</ele>
        <time>2015-01-12T15:37:12Z</time>
      </trkpt>
      <trkpt lat="43.32695" lon="2.67425">
        <ele>138.09</ele>
        <time>2015-01-12T15:37:17Z</time>
      </trkpt>
      <trkpt lat="43.32693" lon="2.67438">
        <ele>135.68</ele>
        <time>2015-01-12T15:37:27Z</time>
      </trkpt>
      <trkpt lat="43.32693" lon="2.67444">
        <ele>139.53</ele>
        <time>2015-01-12T15:37:31Z</time>
      </trkpt>
      <trkpt lat="43.32693" lon="2.67445">
        <ele>135.68</ele>
        <time>2015-01-12T15:37:32Z</time>
      </trkpt>
      <trkpt lat="43.32693" lon="2.67446">
        <ele>135.68</ele>
        <time>2015-01-12T15:37:33Z</time>
      </trkpt>
      <trkpt lat="43.32693" lon="2.67449">
        <ele>137.13</ele>
        <time>2015-01-12T15:37:35Z</time>
      </trkpt>
      <trkpt lat="43.32694" lon="2.67453">
        <ele>140.01</ele>
        <time>2015-01-12T15:37:38Z</time>
      </trkpt>
      <trkpt lat="43.32694" lon="2.67456">
        <ele>134.24</ele>
        <time>2015-01-12T15:37:40Z</time>
      </trkpt>
      <trkpt lat="43.32695" lon="2.67457">
        <ele>135.2</ele>
        <time>2015-01-12T15:37:41Z</time>
      </trkpt>
      <trkpt lat="43.32695" lon="2.67461">
        <ele>139.05</ele>
        <time>2015-01-12T15:37:44Z</time>
      </trkpt>
      <trkpt lat="43.32695" lon="2.67463">
        <ele>137.61</ele>
        <time>2015-01-12T15:37:45Z</time>
      </trkpt>
      <trkpt lat="43.32696" lon="2.67465">
        <ele>133.76</ele>
        <time>2015-01-12T15:37:47Z</time>
      </trkpt>
      <trkpt lat="43.32697" lon="2.67469">
        <ele>137.13</ele>
        <time>2015-01-12T15:37:50Z</time>
      </trkpt>
      <trkpt lat="43.32699" lon="2.67475">
        <ele>134.24</ele>
        <time>2015-01-12T15:37:55Z</time>
      </trkpt>
      <trkpt lat="43.32699" lon="2.67476">
        <ele>135.2</ele>
        <time>2015-01-12T15:37:56Z</time>
      </trkpt>
      <trkpt lat="43.32701" lon="2.67479">
        <ele>138.57</ele>
        <time>2015-01-12T15:37:59Z</time>
      </trkpt>
      <trkpt lat="43.32703" lon="2.67484">
        <ele>135.68</ele>
        <time>2015-01-12T15:38:03Z</time>
      </trkpt>
      <trkpt lat="43.32709" lon="2.67503">
        <ele>138.57</ele>
        <time>2015-01-12T15:38:18Z</time>
      </trkpt>
      <trkpt lat="43.3271" lon="2.67504">
        <ele>135.2</ele>
        <time>2015-01-12T15:38:19Z</time>
      </trkpt>
      <trkpt lat="43.32714" lon="2.67521">
        <ele>135.68</ele>
        <time>2015-01-12T15:38:32Z</time>
      </trkpt>
      <trkpt lat="43.32715" lon="2.67523">
        <ele>133.76</ele>
        <time>2015-01-12T15:38:34Z</time>
      </trkpt>
      <trkpt lat="43.3272" lon="2.67531">
        <ele>137.13</ele>
        <time>2015-01-12T15:38:41Z</time>
      </trkpt>
      <trkpt lat="43.3272" lon="2.67532">
        <ele>135.2</ele>
        <time>2015-01-12T15:38:42Z</time>
      </trkpt>
      <trkpt lat="43.32733" lon="2.67548">
        <ele>135.68</ele>
        <time>2015-01-12T15:38:59Z</time>
      </trkpt>
      <trkpt lat="43.3274" lon="2.67551">
        <ele>135.2</ele>
        <time>2015-01-12T15:39:06Z</time>
      </trkpt>
      <trkpt lat="43.32743" lon="2.67553">
        <ele>132.8</ele>
        <time>2015-01-12T15:39:09Z</time>
      </trkpt>
      <trkpt lat="43.32747" lon="2.67554">
        <ele>134.24</ele>
        <time>2015-01-12T15:39:12Z</time>
      </trkpt>
      <trkpt lat="43.32757" lon="2.67555">
        <ele>137.61</ele>
        <time>2015-01-12T15:39:20Z</time>
      </trkpt>
      <trkpt lat="43.32758" lon="2.67555">
        <ele>132.32</ele>
        <time>2015-01-12T15:39:21Z</time>
      </trkpt>
      <trkpt lat="43.32759" lon="2.67555">
        <ele>134.24</ele>
        <time>2015-01-12T15:39:22Z</time>
      </trkpt>
      <trkpt lat="43.32767" lon="2.67554">
        <ele>133.28</ele>
        <time>2015-01-12T15:39:34Z</time>
      </trkpt>
      <trkpt lat="43.32771" lon="2.67559">
        <ele>137.13</ele>
        <time>2015-01-12T15:39:40Z</time>
      </trkpt>
      <trkpt lat="43.32771" lon="2.6756">
        <ele>133.76</ele>
        <time>2015-01-12T15:39:41Z</time>
      </trkpt>
      <trkpt lat="43.32772" lon="2.67565">
        <ele>130.88</ele>
        <time>2015-01-12T15:39:47Z</time>
      </trkpt>
      <trkpt lat="43.32773" lon="2.67567">
        <ele>136.16</ele>
        <time>2015-01-12T15:39:48Z</time>
      </trkpt>
      <trkpt lat="43.32774" lon="2.67569">
        <ele>131.84</ele>
        <time>2015-01-12T15:39:49Z</time>
      </trkpt>
      <trkpt lat="43.32779" lon="2.67588">
        <ele>133.76</ele>
        <time>2015-01-12T15:40:03Z</time>
      </trkpt>
      <trkpt lat="43.32779" lon="2.67589">
        <ele>132.8</ele>
        <time>2015-01-12T15:40:04Z</time>
      </trkpt>
      <trkpt lat="43.32779" lon="2.67591">
        <ele>130.4</ele>
        <time>2015-01-12T15:40:07Z</time>
      </trkpt>
      <trkpt lat="43.32781" lon="2.67603">
        <ele>135.2</ele>
        <time>2015-01-12T15:40:15Z</time>
      </trkpt>
      <trkpt lat="43.32781" lon="2.67605">
        <ele>132.32</ele>
        <time>2015-01-12T15:40:16Z</time>
      </trkpt>
      <trkpt lat="43.32783" lon="2.67609">
        <ele>130.4</ele>
        <time>2015-01-12T15:40:22Z</time>
      </trkpt>
      <trkpt lat="43.32784" lon="2.6761">
        <ele>131.36</ele>
        <time>2015-01-12T15:40:24Z</time>
      </trkpt>
      <trkpt lat="43.32786" lon="2.6761">
        <ele>131.84</ele>
        <time>2015-01-12T15:40:43Z</time>
      </trkpt>
      <trkpt lat="43.32786" lon="2.67611">
        <ele>132.32</ele>
        <time>2015-01-12T15:40:45Z</time>
      </trkpt>
      <trkpt lat="43.32786" lon="2.67614">
        <ele>126.07</ele>
        <time>2015-01-12T15:40:47Z</time>
      </trkpt>
      <trkpt lat="43.32786" lon="2.67615">
        <ele>129.43</ele>
        <time>2015-01-12T15:40:48Z</time>
      </trkpt>
      <trkpt lat="43.32786" lon="2.67617">
        <ele>130.4</ele>
        <time>2015-01-12T15:40:49Z</time>
      </trkpt>
      <trkpt lat="43.32785" lon="2.67623">
        <ele>132.32</ele>
        <time>2015-01-12T15:40:54Z</time>
      </trkpt>
      <trkpt lat="43.32785" lon="2.67624">
        <ele>135.68</ele>
        <time>2015-01-12T15:40:55Z</time>
      </trkpt>
      <trkpt lat="43.32785" lon="2.67629">
        <ele>131.84</ele>
        <time>2015-01-12T15:40:58Z</time>
      </trkpt>
      <trkpt lat="43.32785" lon="2.67658">
        <ele>136.64</ele>
        <time>2015-01-12T15:41:15Z</time>
      </trkpt>
      <trkpt lat="43.32785" lon="2.6766">
        <ele>133.76</ele>
        <time>2015-01-12T15:41:16Z</time>
      </trkpt>
      <trkpt lat="43.32785" lon="2.67661">
        <ele>130.4</ele>
        <time>2015-01-12T15:41:17Z</time>
      </trkpt>
      <trkpt lat="43.32785" lon="2.67662">
        <ele>132.8</ele>
        <time>2015-01-12T15:41:18Z</time>
      </trkpt>
      <trkpt lat="43.32785" lon="2.67663">
        <ele>134.24</ele>
        <time>2015-01-12T15:41:19Z</time>
      </trkpt>
      <trkpt lat="43.32785" lon="2.67667">
        <ele>136.16</ele>
        <time>2015-01-12T15:41:22Z</time>
      </trkpt>
      <trkpt lat="43.32786" lon="2.67671">
        <ele>131.36</ele>
        <time>2015-01-12T15:41:25Z</time>
      </trkpt>
      <trkpt lat="43.32788" lon="2.67675">
        <ele>134.72</ele>
        <time>2015-01-12T15:41:29Z</time>
      </trkpt>
      <trkpt lat="43.32791" lon="2.6768">
        <ele>131.36</ele>
        <time>2015-01-12T15:41:34Z</time>
      </trkpt>
      <trkpt lat="43.32792" lon="2.67684">
        <ele>134.24</ele>
        <time>2015-01-12T15:41:37Z</time>
      </trkpt>
      <trkpt lat="43.32795" lon="2.67691">
        <ele>129.43</ele>
        <time>2015-01-12T15:41:43Z</time>
      </trkpt>
      <trkpt lat="43.32796" lon="2.67693">
        <ele>132.8</ele>
        <time>2015-01-12T15:41:44Z</time>
      </trkpt>
      <trkpt lat="43.32796" lon="2.677">
        <ele>131.36</ele>
        <time>2015-01-12T15:41:49Z</time>
      </trkpt>
      <trkpt lat="43.32795" lon="2.67703">
        <ele>130.4</ele>
        <time>2015-01-12T15:41:51Z</time>
      </trkpt>
      <trkpt lat="43.32795" lon="2.67707">
        <ele>131.84</ele>
        <time>2015-01-12T15:41:53Z</time>
      </trkpt>
      <trkpt lat="43.32796" lon="2.67713">
        <ele>136.64</ele>
        <time>2015-01-12T15:41:56Z</time>
      </trkpt>
      <trkpt lat="43.32797" lon="2.67716">
        <ele>131.84</ele>
        <time>2015-01-12T15:41:57Z</time>
      </trkpt>
      <trkpt lat="43.32799" lon="2.67719">
        <ele>134.24</ele>
        <time>2015-01-12T15:41:59Z</time>
      </trkpt>
      <trkpt lat="43.32799" lon="2.67724">
        <ele>130.4</ele>
        <time>2015-01-12T15:42:02Z</time>
      </trkpt>
      <trkpt lat="43.32799" lon="2.67732">
        <ele>135.68</ele>
        <time>2015-01-12T15:42:07Z</time>
      </trkpt>
      <trkpt lat="43.32799" lon="2.67735">
        <ele>130.88</ele>
        <time>2015-01-12T15:42:09Z</time>
      </trkpt>
      <trkpt lat="43.32799" lon="2.67738">
        <ele>133.28</ele>
        <time>2015-01-12T15:42:11Z</time>
      </trkpt>
      <trkpt lat="43.328" lon="2.67747">
        <ele>133.28</ele>
        <time>2015-01-12T15:42:17Z</time>
      </trkpt>
      <trkpt lat="43.32802" lon="2.67751">
        <ele>130.88</ele>
        <time>2015-01-12T15:42:21Z</time>
      </trkpt>
      <trkpt lat="43.32803" lon="2.67753">
        <ele>129.92</ele>
        <time>2015-01-12T15:42:23Z</time>
      </trkpt>
      <trkpt lat="43.32809" lon="2.67763">
        <ele>131.36</ele>
        <time>2015-01-12T15:42:36Z</time>
      </trkpt>
      <trkpt lat="43.3281" lon="2.67763">
        <ele>134.72</ele>
        <time>2015-01-12T15:42:37Z</time>
      </trkpt>
      <trkpt lat="43.3281" lon="2.67763">
        <ele>131.36</ele>
        <time>2015-01-12T15:42:38Z</time>
      </trkpt>
      <trkpt lat="43.3281" lon="2.67764">
        <ele>130.4</ele>
        <time>2015-01-12T15:42:39Z</time>
      </trkpt>
      <trkpt lat="43.32811" lon="2.67769">
        <ele>133.28</ele>
        <time>2015-01-12T15:42:43Z</time>
      </trkpt>
      <trkpt lat="43.32811" lon="2.67771">
        <ele>130.88</ele>
        <time>2015-01-12T15:42:44Z</time>
      </trkpt>
      <trkpt lat="43.32811" lon="2.67782">
        <ele>135.2</ele>
        <time>2015-01-12T15:42:50Z</time>
      </trkpt>
      <trkpt lat="43.32811" lon="2.67785">
        <ele>130.4</ele>
        <time>2015-01-12T15:42:52Z</time>
      </trkpt>
      <trkpt lat="43.32811" lon="2.67786">
        <ele>131.84</ele>
        <time>2015-01-12T15:42:53Z</time>
      </trkpt>
      <trkpt lat="43.32817" lon="2.678">
        <ele>131.84</ele>
        <time>2015-01-12T15:43:06Z</time>
      </trkpt>
      <trkpt lat="43.32817" lon="2.678">
        <ele>131.84</ele>
        <time>2015-01-12T15:43:17Z</time>
      </trkpt>
      <trkpt lat="43.32818" lon="2.67802">
        <ele>135.68</ele>
        <time>2015-01-12T15:43:19Z</time>
      </trkpt>
      <trkpt lat="43.3282" lon="2.67809">
        <ele>132.32</ele>
        <time>2015-01-12T15:43:24Z</time>
      </trkpt>
      <trkpt lat="43.32821" lon="2.67815">
        <ele>136.16</ele>
        <time>2015-01-12T15:43:28Z</time>
      </trkpt>
      <trkpt lat="43.32822" lon="2.67817">
        <ele>132.32</ele>
        <time>2015-01-12T15:43:30Z</time>
      </trkpt>
      <trkpt lat="43.32823" lon="2.67819">
        <ele>132.8</ele>
        <time>2015-01-12T15:43:31Z</time>
      </trkpt>
      <trkpt lat="43.32825" lon="2.67834">
        <ele>136.64</ele>
        <time>2015-01-12T15:43:41Z</time>
      </trkpt>
      <trkpt lat="43.32825" lon="2.67837">
        <ele>131.84</ele>
        <time>2015-01-12T15:43:43Z</time>
      </trkpt>
      <trkpt lat="43.32826" lon="2.67847">
        <ele>136.16</ele>
        <time>2015-01-12T15:43:50Z</time>
      </trkpt>
      <trkpt lat="43.32827" lon="2.67849">
        <ele>134.72</ele>
        <time>2015-01-12T15:43:51Z</time>
      </trkpt>
      <trkpt lat="43.32827" lon="2.67851">
        <ele>132.32</ele>
        <time>2015-01-12T15:43:53Z</time>
      </trkpt>
      <trkpt lat="43.32828" lon="2.67855">
        <ele>136.16</ele>
        <time>2015-01-12T15:43:56Z</time>
      </trkpt>
      <trkpt lat="43.32829" lon="2.67858">
        <ele>133.28</ele>
        <time>2015-01-12T15:43:59Z</time>
      </trkpt>
      <trkpt lat="43.32829" lon="2.6786">
        <ele>136.16</ele>
        <time>2015-01-12T15:44:00Z</time>
      </trkpt>
      <trkpt lat="43.3283" lon="2.67861">
        <ele>132.32</ele>
        <time>2015-01-12T15:44:01Z</time>
      </trkpt>
      <trkpt lat="43.3283" lon="2.67861">
        <ele>137.61</ele>
        <time>2015-01-12T15:44:02Z</time>
      </trkpt>
      <trkpt lat="43.32831" lon="2.67863">
        <ele>133.76</ele>
        <time>2015-01-12T15:44:04Z</time>
      </trkpt>
      <trkpt lat="43.32831" lon="2.67865">
        <ele>133.76</ele>
        <time>2015-01-12T15:44:05Z</time>
      </trkpt>
      <trkpt lat="43.32832" lon="2.67869">
        <ele>137.61</ele>
        <time>2015-01-12T15:44:08Z</time>
      </trkpt>
      <trkpt lat="43.32832" lon="2.6787">
        <ele>135.2</ele>
        <time>2015-01-12T15:44:09Z</time>
      </trkpt>
      <trkpt lat="43.32834" lon="2.67874">
        <ele>134.72</ele>
        <time>2015-01-12T15:44:13Z</time>
      </trkpt>
      <trkpt lat="43.32835" lon="2.67875">
        <ele>136.16</ele>
        <time>2015-01-12T15:44:17Z</time>
      </trkpt>
      <trkpt lat="43.32835" lon="2.67876">
        <ele>134.72</ele>
        <time>2015-01-12T15:44:18Z</time>
      </trkpt>
      <trkpt lat="43.32835" lon="2.67882">
        <ele>137.13</ele>
        <time>2015-01-12T15:44:22Z</time>
      </trkpt>
      <trkpt lat="43.32835" lon="2.67883">
        <ele>136.16</ele>
        <time>2015-01-12T15:44:23Z</time>
      </trkpt>
      <trkpt lat="43.32836" lon="2.67886">
        <ele>135.2</ele>
        <time>2015-01-12T15:44:25Z</time>
      </trkpt>
      <trkpt lat="43.32841" lon="2.67894">
        <ele>136.16</ele>
        <time>2015-01-12T15:44:34Z</time>
      </trkpt>
      <trkpt lat="43.32841" lon="2.67898">
        <ele>133.76</ele>
        <time>2015-01-12T15:44:37Z</time>
      </trkpt>
      <trkpt lat="43.32843" lon="2.679">
        <ele>136.64</ele>
        <time>2015-01-12T15:44:40Z</time>
      </trkpt>
      <trkpt lat="43.32843" lon="2.67903">
        <ele>135.2</ele>
        <time>2015-01-12T15:44:42Z</time>
      </trkpt>
      <trkpt lat="43.32845" lon="2.67916">
        <ele>138.09</ele>
        <time>2015-01-12T15:44:50Z</time>
      </trkpt>
      <trkpt lat="43.32844" lon="2.67919">
        <ele>133.28</ele>
        <time>2015-01-12T15:44:52Z</time>
      </trkpt>
      <trkpt lat="43.32844" lon="2.67921">
        <ele>134.72</ele>
        <time>2015-01-12T15:44:53Z</time>
      </trkpt>
      <trkpt lat="43.32845" lon="2.67925">
        <ele>135.2</ele>
        <time>2015-01-12T15:44:55Z</time>
      </trkpt>
      <trkpt lat="43.32846" lon="2.67932">
        <ele>134.72</ele>
        <time>2015-01-12T15:45:01Z</time>
      </trkpt>
      <trkpt lat="43.32846" lon="2.67934">
        <ele>137.61</ele>
        <time>2015-01-12T15:45:02Z</time>
      </trkpt>
      <trkpt lat="43.32846" lon="2.67939">
        <ele>133.76</ele>
        <time>2015-01-12T15:45:05Z</time>
      </trkpt>
      <trkpt lat="43.32847" lon="2.67941">
        <ele>133.76</ele>
        <time>2015-01-12T15:45:06Z</time>
      </trkpt>
      <trkpt lat="43.32847" lon="2.67942">
        <ele>133.76</ele>
        <time>2015-01-12T15:45:07Z</time>
      </trkpt>
      <trkpt lat="43.32848" lon="2.67954">
        <ele>133.28</ele>
        <time>2015-01-12T15:45:15Z</time>
      </trkpt>
      <trkpt lat="43.32848" lon="2.67964">
        <ele>132.32</ele>
        <time>2015-01-12T15:45:21Z</time>
      </trkpt>
      <trkpt lat="43.32849" lon="2.67979">
        <ele>135.68</ele>
        <time>2015-01-12T15:45:31Z</time>
      </trkpt>
      <trkpt lat="43.32849" lon="2.6798">
        <ele>131.84</ele>
        <time>2015-01-12T15:45:32Z</time>
      </trkpt>
      <trkpt lat="43.32849" lon="2.67988">
        <ele>135.68</ele>
        <time>2015-01-12T15:45:37Z</time>
      </trkpt>
      <trkpt lat="43.32849" lon="2.67989">
        <ele>130.88</ele>
        <time>2015-01-12T15:45:38Z</time>
      </trkpt>
      <trkpt lat="43.32854" lon="2.67992">
        <ele>135.68</ele>
        <time>2015-01-12T15:45:44Z</time>
      </trkpt>
      <trkpt lat="43.32856" lon="2.67992">
        <ele>133.28</ele>
        <time>2015-01-12T15:45:45Z</time>
      </trkpt>
      <trkpt lat="43.32869" lon="2.67993">
        <ele>133.28</ele>
        <time>2015-01-12T15:45:53Z</time>
      </trkpt>
      <trkpt lat="43.32873" lon="2.67993">
        <ele>131.36</ele>
        <time>2015-01-12T15:45:55Z</time>
      </trkpt>
      <trkpt lat="43.32879" lon="2.67995">
        <ele>130.88</ele>
        <time>2015-01-12T15:45:59Z</time>
      </trkpt>
      <trkpt lat="43.32881" lon="2.67995">
        <ele>136.16</ele>
        <time>2015-01-12T15:46:01Z</time>
      </trkpt>
      <trkpt lat="43.32882" lon="2.67996">
        <ele>134.24</ele>
        <time>2015-01-12T15:46:02Z</time>
      </trkpt>
      <trkpt lat="43.32884" lon="2.67995">
        <ele>131.84</ele>
        <time>2015-01-12T15:46:03Z</time>
      </trkpt>
      <trkpt lat="43.32886" lon="2.67995">
        <ele>129.92</ele>
        <time>2015-01-12T15:46:05Z</time>
      </trkpt>
      <trkpt lat="43.32886" lon="2.67995">
        <ele>133.28</ele>
        <time>2015-01-12T15:46:06Z</time>
      </trkpt>
      <trkpt lat="43.32886" lon="2.67995">
        <ele>132.32</ele>
        <time>2015-01-12T15:46:07Z</time>
      </trkpt>
      <trkpt lat="43.32886" lon="2.67995">
        <ele>132.32</ele>
        <time>2015-01-12T15:46:10Z</time>
      </trkpt>
      <trkpt lat="43.32889" lon="2.67996">
        <ele>129.92</ele>
        <time>2015-01-12T15:46:13Z</time>
      </trkpt>
      <trkpt lat="43.3289" lon="2.67996">
        <ele>135.2</ele>
        <time>2015-01-12T15:46:14Z</time>
      </trkpt>
      <trkpt lat="43.32895" lon="2.67997">
        <ele>131.84</ele>
        <time>2015-01-12T15:46:19Z</time>
      </trkpt>
      <trkpt lat="43.32896" lon="2.67998">
        <ele>135.2</ele>
        <time>2015-01-12T15:46:20Z</time>
      </trkpt>
      <trkpt lat="43.32905" lon="2.68">
        <ele>132.32</ele>
        <time>2015-01-12T15:46:28Z</time>
      </trkpt>
      <trkpt lat="43.32907" lon="2.68001">
        <ele>135.68</ele>
        <time>2015-01-12T15:46:30Z</time>
      </trkpt>
      <trkpt lat="43.32908" lon="2.68002">
        <ele>135.2</ele>
        <time>2015-01-12T15:46:31Z</time>
      </trkpt>
      <trkpt lat="43.32909" lon="2.68002">
        <ele>134.24</ele>
        <time>2015-01-12T15:46:32Z</time>
      </trkpt>
      <trkpt lat="43.32916" lon="2.68005">
        <ele>134.24</ele>
        <time>2015-01-12T15:46:37Z</time>
      </trkpt>
      <trkpt lat="43.3293" lon="2.68013">
        <ele>133.76</ele>
        <time>2015-01-12T15:46:50Z</time>
      </trkpt>
      <trkpt lat="43.32932" lon="2.68016">
        <ele>137.13</ele>
        <time>2015-01-12T15:46:53Z</time>
      </trkpt>
      <trkpt lat="43.32933" lon="2.68017">
        <ele>133.76</ele>
        <time>2015-01-12T15:46:54Z</time>
      </trkpt>
      <trkpt lat="43.32935" lon="2.68019">
        <ele>137.13</ele>
        <time>2015-01-12T15:46:58Z</time>
      </trkpt>
      <trkpt lat="43.32936" lon="2.68019">
        <ele>134.24</ele>
        <time>2015-01-12T15:46:59Z</time>
      </trkpt>
      <trkpt lat="43.32938" lon="2.6802">
        <ele>137.61</ele>
        <time>2015-01-12T15:47:01Z</time>
      </trkpt>
      <trkpt lat="43.32942" lon="2.68025">
        <ele>132.8</ele>
        <time>2015-01-12T15:47:06Z</time>
      </trkpt>
      <trkpt lat="43.32945" lon="2.68031">
        <ele>138.09</ele>
        <time>2015-01-12T15:47:10Z</time>
      </trkpt>
      <trkpt lat="43.32946" lon="2.68032">
        <ele>133.76</ele>
        <time>2015-01-12T15:47:11Z</time>
      </trkpt>
      <trkpt lat="43.32946" lon="2.68033">
        <ele>132.8</ele>
        <time>2015-01-12T15:47:12Z</time>
      </trkpt>
      <trkpt lat="43.32949" lon="2.68054">
        <ele>135.68</ele>
        <time>2015-01-12T15:47:26Z</time>
      </trkpt>
      <trkpt lat="43.32949" lon="2.68057">
        <ele>131.84</ele>
        <time>2015-01-12T15:47:28Z</time>
      </trkpt>
      <trkpt lat="43.32949" lon="2.68061">
        <ele>135.68</ele>
        <time>2015-01-12T15:47:31Z</time>
      </trkpt>
      <trkpt lat="43.32951" lon="2.68067">
        <ele>131.84</ele>
        <time>2015-01-12T15:47:35Z</time>
      </trkpt>
      <trkpt lat="43.32951" lon="2.68068">
        <ele>135.2</ele>
        <time>2015-01-12T15:47:36Z</time>
      </trkpt>
      <trkpt lat="43.32952" lon="2.68072">
        <ele>131.84</ele>
        <time>2015-01-12T15:47:40Z</time>
      </trkpt>
      <trkpt lat="43.32954" lon="2.68083">
        <ele>136.16</ele>
        <time>2015-01-12T15:47:47Z</time>
      </trkpt>
      <trkpt lat="43.32954" lon="2.68084">
        <ele>134.72</ele>
        <time>2015-01-12T15:47:48Z</time>
      </trkpt>
      <trkpt lat="43.32955" lon="2.68087">
        <ele>132.32</ele>
        <time>2015-01-12T15:47:50Z</time>
      </trkpt>
      <trkpt lat="43.32954" lon="2.68092">
        <ele>136.16</ele>
        <time>2015-01-12T15:47:53Z</time>
      </trkpt>
      <trkpt lat="43.32955" lon="2.68098">
        <ele>131.36</ele>
        <time>2015-01-12T15:47:57Z</time>
      </trkpt>
      <trkpt lat="43.32955" lon="2.681">
        <ele>134.72</ele>
        <time>2015-01-12T15:47:58Z</time>
      </trkpt>
      <trkpt lat="43.32958" lon="2.68108">
        <ele>133.76</ele>
        <time>2015-01-12T15:48:04Z</time>
      </trkpt>
      <trkpt lat="43.32959" lon="2.68111">
        <ele>133.76</ele>
        <time>2015-01-12T15:48:07Z</time>
      </trkpt>
      <trkpt lat="43.32963" lon="2.68114">
        <ele>131.84</ele>
        <time>2015-01-12T15:48:11Z</time>
      </trkpt>
      <trkpt lat="43.32967" lon="2.68119">
        <ele>135.2</ele>
        <time>2015-01-12T15:48:16Z</time>
      </trkpt>
      <trkpt lat="43.32967" lon="2.6812">
        <ele>134.72</ele>
        <time>2015-01-12T15:48:17Z</time>
      </trkpt>
      <trkpt lat="43.32971" lon="2.68125">
        <ele>130.4</ele>
        <time>2015-01-12T15:48:22Z</time>
      </trkpt>
      <trkpt lat="43.32972" lon="2.68125">
        <ele>132.8</ele>
        <time>2015-01-12T15:48:23Z</time>
      </trkpt>
      <trkpt lat="43.32976" lon="2.68133">
        <ele>132.8</ele>
        <time>2015-01-12T15:48:29Z</time>
      </trkpt>
      <trkpt lat="43.3298" lon="2.68138">
        <ele>128.47</ele>
        <time>2015-01-12T15:48:34Z</time>
      </trkpt>
      <trkpt lat="43.32981" lon="2.68139">
        <ele>129.92</ele>
        <time>2015-01-12T15:48:35Z</time>
      </trkpt>
      <trkpt lat="43.32983" lon="2.68141">
        <ele>130.4</ele>
        <time>2015-01-12T15:48:37Z</time>
      </trkpt>
      <trkpt lat="43.32983" lon="2.68142">
        <ele>128.47</ele>
        <time>2015-01-12T15:48:46Z</time>
      </trkpt>
      <trkpt lat="43.32985" lon="2.68145">
        <ele>131.36</ele>
        <time>2015-01-12T15:48:50Z</time>
      </trkpt>
      <trkpt lat="43.32986" lon="2.68147">
        <ele>127.03</ele>
        <time>2015-01-12T15:48:53Z</time>
      </trkpt>
      <trkpt lat="43.32986" lon="2.68148">
        <ele>128.47</ele>
        <time>2015-01-12T15:48:54Z</time>
      </trkpt>
      <trkpt lat="43.32987" lon="2.68149">
        <ele>131.36</ele>
        <time>2015-01-12T15:48:55Z</time>
      </trkpt>
      <trkpt lat="43.32987" lon="2.68154">
        <ele>127.99</ele>
        <time>2015-01-12T15:48:58Z</time>
      </trkpt>
      <trkpt lat="43.32986" lon="2.68157">
        <ele>128.95</ele>
        <time>2015-01-12T15:49:00Z</time>
      </trkpt>
      <trkpt lat="43.32985" lon="2.68161">
        <ele>134.72</ele>
        <time>2015-01-12T15:49:03Z</time>
      </trkpt>
      <trkpt lat="43.32985" lon="2.68163">
        <ele>128.95</ele>
        <time>2015-01-12T15:49:04Z</time>
      </trkpt>
      <trkpt lat="43.32985" lon="2.68166">
        <ele>132.32</ele>
        <time>2015-01-12T15:49:06Z</time>
      </trkpt>
      <trkpt lat="43.32985" lon="2.68183">
        <ele>130.4</ele>
        <time>2015-01-12T15:49:16Z</time>
      </trkpt>
      <trkpt lat="43.32985" lon="2.6819">
        <ele>134.72</ele>
        <time>2015-01-12T15:49:19Z</time>
      </trkpt>
      <trkpt lat="43.32985" lon="2.68191">
        <ele>133.76</ele>
        <time>2015-01-12T15:49:20Z</time>
      </trkpt>
      <trkpt lat="43.32984" lon="2.68194">
        <ele>130.4</ele>
        <time>2015-01-12T15:49:22Z</time>
      </trkpt>
      <trkpt lat="43.32982" lon="2.68201">
        <ele>134.72</ele>
        <time>2015-01-12T15:49:26Z</time>
      </trkpt>
      <trkpt lat="43.32982" lon="2.68203">
        <ele>131.36</ele>
        <time>2015-01-12T15:49:28Z</time>
      </trkpt>
      <trkpt lat="43.32982" lon="2.68205">
        <ele>132.8</ele>
        <time>2015-01-12T15:49:29Z</time>
      </trkpt>
      <trkpt lat="43.32983" lon="2.68211">
        <ele>137.61</ele>
        <time>2015-01-12T15:49:35Z</time>
      </trkpt>
      <trkpt lat="43.32984" lon="2.68213">
        <ele>133.76</ele>
        <time>2015-01-12T15:49:36Z</time>
      </trkpt>
      <trkpt lat="43.32984" lon="2.68216">
        <ele>131.36</ele>
        <time>2015-01-12T15:49:38Z</time>
      </trkpt>
      <trkpt lat="43.32984" lon="2.68217">
        <ele>135.68</ele>
        <time>2015-01-12T15:49:39Z</time>
      </trkpt>
      <trkpt lat="43.32985" lon="2.68219">
        <ele>133.76</ele>
        <time>2015-01-12T15:49:40Z</time>
      </trkpt>
      <trkpt lat="43.32985" lon="2.68227">
        <ele>133.76</ele>
        <time>2015-01-12T15:49:47Z</time>
      </trkpt>
      <trkpt lat="43.32988" lon="2.68241">
        <ele>137.13</ele>
        <time>2015-01-12T15:49:57Z</time>
      </trkpt>
      <trkpt lat="43.32994" lon="2.68254">
        <ele>137.13</ele>
        <time>2015-01-12T15:50:08Z</time>
      </trkpt>
      <trkpt lat="43.32998" lon="2.68263">
        <ele>138.57</ele>
        <time>2015-01-12T15:50:13Z</time>
      </trkpt>
      <trkpt lat="43.32998" lon="2.68265">
        <ele>134.24</ele>
        <time>2015-01-12T15:50:17Z</time>
      </trkpt>
      <trkpt lat="43.32998" lon="2.68267">
        <ele>137.13</ele>
        <time>2015-01-12T15:50:18Z</time>
      </trkpt>
      <trkpt lat="43.32997" lon="2.68272">
        <ele>136.16</ele>
        <time>2015-01-12T15:50:22Z</time>
      </trkpt>
      <trkpt lat="43.32998" lon="2.68275">
        <ele>139.05</ele>
        <time>2015-01-12T15:50:24Z</time>
      </trkpt>
      <trkpt lat="43.33" lon="2.68286">
        <ele>137.13</ele>
        <time>2015-01-12T15:50:33Z</time>
      </trkpt>
      <trkpt lat="43.33001" lon="2.68291">
        <ele>141.45</ele>
        <time>2015-01-12T15:50:36Z</time>
      </trkpt>
      <trkpt lat="43.33002" lon="2.68295">
        <ele>136.16</ele>
        <time>2015-01-12T15:50:38Z</time>
      </trkpt>
      <trkpt lat="43.33002" lon="2.68297">
        <ele>136.16</ele>
        <time>2015-01-12T15:50:39Z</time>
      </trkpt>
      <trkpt lat="43.33001" lon="2.68311">
        <ele>134.72</ele>
        <time>2015-01-12T15:50:48Z</time>
      </trkpt>
      <trkpt lat="43.33005" lon="2.68322">
        <ele>136.16</ele>
        <time>2015-01-12T15:50:57Z</time>
      </trkpt>
      <trkpt lat="43.33006" lon="2.68324">
        <ele>138.57</ele>
        <time>2015-01-12T15:50:59Z</time>
      </trkpt>
      <trkpt lat="43.33007" lon="2.68325">
        <ele>136.64</ele>
        <time>2015-01-12T15:51:01Z</time>
      </trkpt>
      <trkpt lat="43.33011" lon="2.68332">
        <ele>140.01</ele>
        <time>2015-01-12T15:51:08Z</time>
      </trkpt>
      <trkpt lat="43.33012" lon="2.68334">
        <ele>135.2</ele>
        <time>2015-01-12T15:51:09Z</time>
      </trkpt>
      <trkpt lat="43.33013" lon="2.68338">
        <ele>134.24</ele>
        <time>2015-01-12T15:51:11Z</time>
      </trkpt>
      <trkpt lat="43.33016" lon="2.6835">
        <ele>138.09</ele>
        <time>2015-01-12T15:51:18Z</time>
      </trkpt>
      <trkpt lat="43.33016" lon="2.68352">
        <ele>137.13</ele>
        <time>2015-01-12T15:51:19Z</time>
      </trkpt>
      <trkpt lat="43.33017" lon="2.68358">
        <ele>134.24</ele>
        <time>2015-01-12T15:51:22Z</time>
      </trkpt>
      <trkpt lat="43.33017" lon="2.68362">
        <ele>139.05</ele>
        <time>2015-01-12T15:51:25Z</time>
      </trkpt>
      <trkpt lat="43.33017" lon="2.68365">
        <ele>134.24</ele>
        <time>2015-01-12T15:51:28Z</time>
      </trkpt>
      <trkpt lat="43.3302" lon="2.68381">
        <ele>137.61</ele>
        <time>2015-01-12T15:51:41Z</time>
      </trkpt>
      <trkpt lat="43.33021" lon="2.68384">
        <ele>133.76</ele>
        <time>2015-01-12T15:51:43Z</time>
      </trkpt>
      <trkpt lat="43.33021" lon="2.68386">
        <ele>134.24</ele>
        <time>2015-01-12T15:51:44Z</time>
      </trkpt>
      <trkpt lat="43.33026" lon="2.68403">
        <ele>134.24</ele>
        <time>2015-01-12T15:51:58Z</time>
      </trkpt>
      <trkpt lat="43.33027" lon="2.6841">
        <ele>137.61</ele>
        <time>2015-01-12T15:52:03Z</time>
      </trkpt>
      <trkpt lat="43.33028" lon="2.68411">
        <ele>134.24</ele>
        <time>2015-01-12T15:52:04Z</time>
      </trkpt>
      <trkpt lat="43.3303" lon="2.68416">
        <ele>132.32</ele>
        <time>2015-01-12T15:52:07Z</time>
      </trkpt>
      <trkpt lat="43.33032" lon="2.6842">
        <ele>135.68</ele>
        <time>2015-01-12T15:52:11Z</time>
      </trkpt>
      <trkpt lat="43.33036" lon="2.68423">
        <ele>131.84</ele>
        <time>2015-01-12T15:52:15Z</time>
      </trkpt>
      <trkpt lat="43.3304" lon="2.68431">
        <ele>136.64</ele>
        <time>2015-01-12T15:52:21Z</time>
      </trkpt>
      <trkpt lat="43.3304" lon="2.68432">
        <ele>135.2</ele>
        <time>2015-01-12T15:52:22Z</time>
      </trkpt>
      <trkpt lat="43.33046" lon="2.68444">
        <ele>136.64</ele>
        <time>2015-01-12T15:52:32Z</time>
      </trkpt>
      <trkpt lat="43.33047" lon="2.68446">
        <ele>132.32</ele>
        <time>2015-01-12T15:52:34Z</time>
      </trkpt>
      <trkpt lat="43.33047" lon="2.68447">
        <ele>132.8</ele>
        <time>2015-01-12T15:52:35Z</time>
      </trkpt>
      <trkpt lat="43.33051" lon="2.68453">
        <ele>137.13</ele>
        <time>2015-01-12T15:52:41Z</time>
      </trkpt>
      <trkpt lat="43.33052" lon="2.68454">
        <ele>134.72</ele>
        <time>2015-01-12T15:52:42Z</time>
      </trkpt>
      <trkpt lat="43.33056" lon="2.68457">
        <ele>132.8</ele>
        <time>2015-01-12T15:52:45Z</time>
      </trkpt>
      <trkpt lat="43.33058" lon="2.6846">
        <ele>136.16</ele>
        <time>2015-01-12T15:52:48Z</time>
      </trkpt>
      <trkpt lat="43.33061" lon="2.68464">
        <ele>133.28</ele>
        <time>2015-01-12T15:52:56Z</time>
      </trkpt>
      <trkpt lat="43.33061" lon="2.68464">
        <ele>136.64</ele>
        <time>2015-01-12T15:52:57Z</time>
      </trkpt>
      <trkpt lat="43.33062" lon="2.68464">
        <ele>133.28</ele>
        <time>2015-01-12T15:53:09Z</time>
      </trkpt>
      <trkpt lat="43.33062" lon="2.68465">
        <ele>136.16</ele>
        <time>2015-01-12T15:53:14Z</time>
      </trkpt>
      <trkpt lat="43.3307" lon="2.68477">
        <ele>133.28</ele>
        <time>2015-01-12T15:53:26Z</time>
      </trkpt>
      <trkpt lat="43.33073" lon="2.68481">
        <ele>137.13</ele>
        <time>2015-01-12T15:53:30Z</time>
      </trkpt>
      <trkpt lat="43.33075" lon="2.68482">
        <ele>133.28</ele>
        <time>2015-01-12T15:53:32Z</time>
      </trkpt>
      <trkpt lat="43.33076" lon="2.68484">
        <ele>133.28</ele>
        <time>2015-01-12T15:53:34Z</time>
      </trkpt>
      <trkpt lat="43.33079" lon="2.68486">
        <ele>135.68</ele>
        <time>2015-01-12T15:53:37Z</time>
      </trkpt>
      <trkpt lat="43.33082" lon="2.68488">
        <ele>130.4</ele>
        <time>2015-01-12T15:53:40Z</time>
      </trkpt>
      <trkpt lat="43.33084" lon="2.68492">
        <ele>138.09</ele>
        <time>2015-01-12T15:53:43Z</time>
      </trkpt>
      <trkpt lat="43.33085" lon="2.68493">
        <ele>135.2</ele>
        <time>2015-01-12T15:53:44Z</time>
      </trkpt>
      <trkpt lat="43.33086" lon="2.68494">
        <ele>134.24</ele>
        <time>2015-01-12T15:53:45Z</time>
      </trkpt>
      <trkpt lat="43.33091" lon="2.68498">
        <ele>134.72</ele>
        <time>2015-01-12T15:53:49Z</time>
      </trkpt>
      <trkpt lat="43.33097" lon="2.685">
        <ele>136.16</ele>
        <time>2015-01-12T15:53:54Z</time>
      </trkpt>
      <trkpt lat="43.33101" lon="2.685">
        <ele>136.64</ele>
        <time>2015-01-12T15:53:58Z</time>
      </trkpt>
      <trkpt lat="43.33109" lon="2.685">
        <ele>136.16</ele>
        <time>2015-01-12T15:54:04Z</time>
      </trkpt>
      <trkpt lat="43.33116" lon="2.68503">
        <ele>136.64</ele>
        <time>2015-01-12T15:54:12Z</time>
      </trkpt>
      <trkpt lat="43.3312" lon="2.68501">
        <ele>137.13</ele>
        <time>2015-01-12T15:54:16Z</time>
      </trkpt>
      <trkpt lat="43.33123" lon="2.68499">
        <ele>140.49</ele>
        <time>2015-01-12T15:54:20Z</time>
      </trkpt>
      <trkpt lat="43.33125" lon="2.68498">
        <ele>140.49</ele>
        <time>2015-01-12T15:54:21Z</time>
      </trkpt>
      <trkpt lat="43.33128" lon="2.68498">
        <ele>137.61</ele>
        <time>2015-01-12T15:54:23Z</time>
      </trkpt>
      <trkpt lat="43.3313" lon="2.68498">
        <ele>139.53</ele>
        <time>2015-01-12T15:54:25Z</time>
      </trkpt>
      <trkpt lat="43.33132" lon="2.68497">
        <ele>138.09</ele>
        <time>2015-01-12T15:54:26Z</time>
      </trkpt>
      <trkpt lat="43.33143" lon="2.68494">
        <ele>139.05</ele>
        <time>2015-01-12T15:54:37Z</time>
      </trkpt>
      <trkpt lat="43.33149" lon="2.68493">
        <ele>143.85</ele>
        <time>2015-01-12T15:54:42Z</time>
      </trkpt>
      <trkpt lat="43.33153" lon="2.68493">
        <ele>139.05</ele>
        <time>2015-01-12T15:54:45Z</time>
      </trkpt>
      <trkpt lat="43.33154" lon="2.68493">
        <ele>140.01</ele>
        <time>2015-01-12T15:54:46Z</time>
      </trkpt>
      <trkpt lat="43.33157" lon="2.68491">
        <ele>143.37</ele>
        <time>2015-01-12T15:54:49Z</time>
      </trkpt>
      <trkpt lat="43.33158" lon="2.6849">
        <ele>139.53</ele>
        <time>2015-01-12T15:54:50Z</time>
      </trkpt>
      <trkpt lat="43.33159" lon="2.68489">
        <ele>144.34</ele>
        <time>2015-01-12T15:54:51Z</time>
      </trkpt>
      <trkpt lat="43.33162" lon="2.68486">
        <ele>139.05</ele>
        <time>2015-01-12T15:54:54Z</time>
      </trkpt>
      <trkpt lat="43.33163" lon="2.68485">
        <ele>140.97</ele>
        <time>2015-01-12T15:54:55Z</time>
      </trkpt>
      <trkpt lat="43.33165" lon="2.68484">
        <ele>145.78</ele>
        <time>2015-01-12T15:54:57Z</time>
      </trkpt>
      <trkpt lat="43.33166" lon="2.68482">
        <ele>140.49</ele>
        <time>2015-01-12T15:54:59Z</time>
      </trkpt>
      <trkpt lat="43.33167" lon="2.68481">
        <ele>140.97</ele>
        <time>2015-01-12T15:55:00Z</time>
      </trkpt>
      <trkpt lat="43.33172" lon="2.68479">
        <ele>142.41</ele>
        <time>2015-01-12T15:55:05Z</time>
      </trkpt>
      <trkpt lat="43.33176" lon="2.68477">
        <ele>140.97</ele>
        <time>2015-01-12T15:55:08Z</time>
      </trkpt>
      <trkpt lat="43.33177" lon="2.68477">
        <ele>141.45</ele>
        <time>2015-01-12T15:55:09Z</time>
      </trkpt>
      <trkpt lat="43.33182" lon="2.68476">
        <ele>141.93</ele>
        <time>2015-01-12T15:55:16Z</time>
      </trkpt>
      <trkpt lat="43.33186" lon="2.68474">
        <ele>141.45</ele>
        <time>2015-01-12T15:55:19Z</time>
      </trkpt>
      <trkpt lat="43.33188" lon="2.68472">
        <ele>144.34</ele>
        <time>2015-01-12T15:55:21Z</time>
      </trkpt>
      <trkpt lat="43.3319" lon="2.6847">
        <ele>140.97</ele>
        <time>2015-01-12T15:55:23Z</time>
      </trkpt>
      <trkpt lat="43.33193" lon="2.68469">
        <ele>144.82</ele>
        <time>2015-01-12T15:55:27Z</time>
      </trkpt>
      <trkpt lat="43.33198" lon="2.68465">
        <ele>143.37</ele>
        <time>2015-01-12T15:55:33Z</time>
      </trkpt>
      <trkpt lat="43.33204" lon="2.68464">
        <ele>143.37</ele>
        <time>2015-01-12T15:55:37Z</time>
      </trkpt>
      <trkpt lat="43.33209" lon="2.68462">
        <ele>146.74</ele>
        <time>2015-01-12T15:55:42Z</time>
      </trkpt>
      <trkpt lat="43.3321" lon="2.68461">
        <ele>140.97</ele>
        <time>2015-01-12T15:55:43Z</time>
      </trkpt>
      <trkpt lat="43.33224" lon="2.6846">
        <ele>150.1</ele>
        <time>2015-01-12T15:55:57Z</time>
      </trkpt>
      <trkpt lat="43.33226" lon="2.68459">
        <ele>145.78</ele>
        <time>2015-01-12T15:55:58Z</time>
      </trkpt>
      <trkpt lat="43.33227" lon="2.68459">
        <ele>144.82</ele>
        <time>2015-01-12T15:56:00Z</time>
      </trkpt>
      <trkpt lat="43.33232" lon="2.68461">
        <ele>148.18</ele>
        <time>2015-01-12T15:56:07Z</time>
      </trkpt>
      <trkpt lat="43.33232" lon="2.68462">
        <ele>145.3</ele>
        <time>2015-01-12T15:56:08Z</time>
      </trkpt>
      <trkpt lat="43.33235" lon="2.68472">
        <ele>145.3</ele>
        <time>2015-01-12T15:56:16Z</time>
      </trkpt>
      <trkpt lat="43.33235" lon="2.68475">
        <ele>147.7</ele>
        <time>2015-01-12T15:56:18Z</time>
      </trkpt>
      <trkpt lat="43.33235" lon="2.68478">
        <ele>144.34</ele>
        <time>2015-01-12T15:56:20Z</time>
      </trkpt>
      <trkpt lat="43.33234" lon="2.6848">
        <ele>148.18</ele>
        <time>2015-01-12T15:56:23Z</time>
      </trkpt>
      <trkpt lat="43.33234" lon="2.68481">
        <ele>143.85</ele>
        <time>2015-01-12T15:56:24Z</time>
      </trkpt>
      <trkpt lat="43.33234" lon="2.68482">
        <ele>147.7</ele>
        <time>2015-01-12T15:56:25Z</time>
      </trkpt>
      <trkpt lat="43.33234" lon="2.68484">
        <ele>142.89</ele>
        <time>2015-01-12T15:56:26Z</time>
      </trkpt>
      <trkpt lat="43.33234" lon="2.68486">
        <ele>147.22</ele>
        <time>2015-01-12T15:56:27Z</time>
      </trkpt>
      <trkpt lat="43.33234" lon="2.68487">
        <ele>143.37</ele>
        <time>2015-01-12T15:56:28Z</time>
      </trkpt>
      <trkpt lat="43.33235" lon="2.68491">
        <ele>147.22</ele>
        <time>2015-01-12T15:56:32Z</time>
      </trkpt>
      <trkpt lat="43.33235" lon="2.68492">
        <ele>143.85</ele>
        <time>2015-01-12T15:56:33Z</time>
      </trkpt>
      <trkpt lat="43.33236" lon="2.68499">
        <ele>143.37</ele>
        <time>2015-01-12T15:56:40Z</time>
      </trkpt>
      <trkpt lat="43.33235" lon="2.685">
        <ele>147.22</ele>
        <time>2015-01-12T15:56:41Z</time>
      </trkpt>
      <trkpt lat="43.33235" lon="2.685">
        <ele>144.34</ele>
        <time>2015-01-12T15:56:42Z</time>
      </trkpt>
      <trkpt lat="43.33234" lon="2.68504">
        <ele>147.7</ele>
        <time>2015-01-12T15:56:47Z</time>
      </trkpt>
      <trkpt lat="43.33234" lon="2.68504">
        <ele>145.78</ele>
        <time>2015-01-12T15:56:53Z</time>
      </trkpt>
      <trkpt lat="43.3323" lon="2.68509">
        <ele>145.3</ele>
        <time>2015-01-12T15:57:03Z</time>
      </trkpt>
      <trkpt lat="43.33228" lon="2.6851">
        <ele>149.14</ele>
        <time>2015-01-12T15:57:06Z</time>
      </trkpt>
      <trkpt lat="43.33227" lon="2.6851">
        <ele>143.37</ele>
        <time>2015-01-12T15:57:08Z</time>
      </trkpt>
      <trkpt lat="43.33224" lon="2.68509">
        <ele>147.7</ele>
        <time>2015-01-12T15:57:12Z</time>
      </trkpt>
      <trkpt lat="43.33223" lon="2.6851">
        <ele>146.74</ele>
        <time>2015-01-12T15:57:13Z</time>
      </trkpt>
      <trkpt lat="43.3322" lon="2.68513">
        <ele>145.78</ele>
        <time>2015-01-12T15:57:20Z</time>
      </trkpt>
      <trkpt lat="43.33215" lon="2.68515">
        <ele>145.3</ele>
        <time>2015-01-12T15:57:25Z</time>
      </trkpt>
      <trkpt lat="43.33207" lon="2.68515">
        <ele>145.3</ele>
        <time>2015-01-12T15:57:39Z</time>
      </trkpt>
      <trkpt lat="43.33199" lon="2.68521">
        <ele>145.78</ele>
        <time>2015-01-12T15:57:45Z</time>
      </trkpt>
      <trkpt lat="43.33193" lon="2.68521">
        <ele>146.74</ele>
        <time>2015-01-12T15:57:57Z</time>
      </trkpt>
      <trkpt lat="43.3319" lon="2.68519">
        <ele>145.78</ele>
        <time>2015-01-12T15:58:07Z</time>
      </trkpt>
      <trkpt lat="43.33189" lon="2.6852">
        <ele>146.26</ele>
        <time>2015-01-12T15:58:09Z</time>
      </trkpt>
      <trkpt lat="43.33186" lon="2.68522">
        <ele>147.22</ele>
        <time>2015-01-12T15:58:16Z</time>
      </trkpt>
      <trkpt lat="43.33181" lon="2.68527">
        <ele>150.58</ele>
        <time>2015-01-12T15:58:24Z</time>
      </trkpt>
      <trkpt lat="43.33181" lon="2.68528">
        <ele>145.78</ele>
        <time>2015-01-12T15:58:25Z</time>
      </trkpt>
      <trkpt lat="43.3318" lon="2.6853">
        <ele>147.22</ele>
        <time>2015-01-12T15:58:28Z</time>
      </trkpt>
      <trkpt lat="43.33181" lon="2.68544">
        <ele>147.7</ele>
        <time>2015-01-12T15:58:42Z</time>
      </trkpt>
      <trkpt lat="43.33183" lon="2.68555">
        <ele>152.51</ele>
        <time>2015-01-12T15:58:48Z</time>
      </trkpt>
      <trkpt lat="43.33183" lon="2.68556">
        <ele>152.99</ele>
        <time>2015-01-12T15:58:49Z</time>
      </trkpt>
      <trkpt lat="43.33182" lon="2.68558">
        <ele>149.14</ele>
        <time>2015-01-12T15:58:51Z</time>
      </trkpt>
      <trkpt lat="43.33179" lon="2.68561">
        <ele>148.66</ele>
        <time>2015-01-12T15:58:59Z</time>
      </trkpt>
      <trkpt lat="43.33179" lon="2.68562">
        <ele>152.03</ele>
        <time>2015-01-12T15:59:03Z</time>
      </trkpt>
      <trkpt lat="43.33179" lon="2.68563">
        <ele>147.7</ele>
        <time>2015-01-12T15:59:04Z</time>
      </trkpt>
      <trkpt lat="43.33175" lon="2.68565">
        <ele>151.54</ele>
        <time>2015-01-12T15:59:11Z</time>
      </trkpt>
      <trkpt lat="43.33174" lon="2.68566">
        <ele>148.18</ele>
        <time>2015-01-12T15:59:12Z</time>
      </trkpt>
      <trkpt lat="43.33173" lon="2.68567">
        <ele>151.54</ele>
        <time>2015-01-12T15:59:13Z</time>
      </trkpt>
      <trkpt lat="43.33172" lon="2.6857">
        <ele>147.22</ele>
        <time>2015-01-12T15:59:15Z</time>
      </trkpt>
      <trkpt lat="43.33171" lon="2.68571">
        <ele>151.06</ele>
        <time>2015-01-12T15:59:17Z</time>
      </trkpt>
      <trkpt lat="43.3317" lon="2.68572">
        <ele>149.14</ele>
        <time>2015-01-12T15:59:18Z</time>
      </trkpt>
      <trkpt lat="43.33165" lon="2.68574">
        <ele>152.51</ele>
        <time>2015-01-12T15:59:22Z</time>
      </trkpt>
      <trkpt lat="43.33164" lon="2.68575">
        <ele>150.58</ele>
        <time>2015-01-12T15:59:23Z</time>
      </trkpt>
      <trkpt lat="43.33157" lon="2.68579">
        <ele>149.62</ele>
        <time>2015-01-12T15:59:30Z</time>
      </trkpt>
      <trkpt lat="43.33155" lon="2.68584">
        <ele>148.66</ele>
        <time>2015-01-12T15:59:33Z</time>
      </trkpt>
      <trkpt lat="43.33151" lon="2.68595">
        <ele>151.06</ele>
        <time>2015-01-12T15:59:43Z</time>
      </trkpt>
      <trkpt lat="43.3315" lon="2.68597">
        <ele>147.7</ele>
        <time>2015-01-12T15:59:45Z</time>
      </trkpt>
      <trkpt lat="43.33149" lon="2.68598">
        <ele>147.7</ele>
        <time>2015-01-12T15:59:46Z</time>
      </trkpt>
      <trkpt lat="43.33145" lon="2.68605">
        <ele>152.51</ele>
        <time>2015-01-12T15:59:53Z</time>
      </trkpt>
      <trkpt lat="43.33144" lon="2.68606">
        <ele>148.66</ele>
        <time>2015-01-12T15:59:55Z</time>
      </trkpt>
      <trkpt lat="43.33138" lon="2.68615">
        <ele>153.47</ele>
        <time>2015-01-12T16:00:00Z</time>
      </trkpt>
      <trkpt lat="43.33137" lon="2.68617">
        <ele>148.18</ele>
        <time>2015-01-12T16:00:01Z</time>
      </trkpt>
      <trkpt lat="43.33136" lon="2.6862">
        <ele>148.66</ele>
        <time>2015-01-12T16:00:03Z</time>
      </trkpt>
      <trkpt lat="43.33135" lon="2.68622">
        <ele>149.14</ele>
        <time>2015-01-12T16:00:04Z</time>
      </trkpt>
      <trkpt lat="43.33135" lon="2.68625">
        <ele>154.43</ele>
        <time>2015-01-12T16:00:06Z</time>
      </trkpt>
      <trkpt lat="43.33135" lon="2.68627">
        <ele>152.51</ele>
        <time>2015-01-12T16:00:07Z</time>
      </trkpt>
      <trkpt lat="43.33135" lon="2.68628">
        <ele>150.1</ele>
        <time>2015-01-12T16:00:09Z</time>
      </trkpt>
      <trkpt lat="43.33134" lon="2.68641">
        <ele>153.95</ele>
        <time>2015-01-12T16:00:22Z</time>
      </trkpt>
      <trkpt lat="43.33129" lon="2.68663">
        <ele>150.1</ele>
        <time>2015-01-12T16:00:36Z</time>
      </trkpt>
      <trkpt lat="43.33129" lon="2.68665">
        <ele>153.95</ele>
        <time>2015-01-12T16:00:37Z</time>
      </trkpt>
      <trkpt lat="43.3313" lon="2.68667">
        <ele>150.1</ele>
        <time>2015-01-12T16:00:38Z</time>
      </trkpt>
      <trkpt lat="43.33129" lon="2.68671">
        <ele>154.91</ele>
        <time>2015-01-12T16:00:40Z</time>
      </trkpt>
      <trkpt lat="43.33129" lon="2.68673">
        <ele>152.99</ele>
        <time>2015-01-12T16:00:41Z</time>
      </trkpt>
      <trkpt lat="43.33131" lon="2.68695">
        <ele>153.47</ele>
        <time>2015-01-12T16:00:57Z</time>
      </trkpt>
      <trkpt lat="43.33131" lon="2.68705">
        <ele>154.43</ele>
        <time>2015-01-12T16:01:03Z</time>
      </trkpt>
      <trkpt lat="43.33131" lon="2.68707">
        <ele>151.54</ele>
        <time>2015-01-12T16:01:04Z</time>
      </trkpt>
      <trkpt lat="43.33131" lon="2.68709">
        <ele>155.87</ele>
        <time>2015-01-12T16:01:05Z</time>
      </trkpt>
      <trkpt lat="43.33131" lon="2.68713">
        <ele>152.99</ele>
        <time>2015-01-12T16:01:07Z</time>
      </trkpt>
      <trkpt lat="43.33131" lon="2.68718">
        <ele>155.87</ele>
        <time>2015-01-12T16:01:11Z</time>
      </trkpt>
      <trkpt lat="43.33131" lon="2.68722">
        <ele>152.99</ele>
        <time>2015-01-12T16:01:14Z</time>
      </trkpt>
      <trkpt lat="43.33132" lon="2.68723">
        <ele>156.35</ele>
        <time>2015-01-12T16:01:15Z</time>
      </trkpt>
      <trkpt lat="43.33139" lon="2.68736">
        <ele>158.75</ele>
        <time>2015-01-12T16:01:29Z</time>
      </trkpt>
      <trkpt lat="43.3314" lon="2.68736">
        <ele>155.39</ele>
        <time>2015-01-12T16:01:30Z</time>
      </trkpt>
      <trkpt lat="43.33143" lon="2.68738">
        <ele>159.24</ele>
        <time>2015-01-12T16:01:33Z</time>
      </trkpt>
      <trkpt lat="43.33144" lon="2.68739">
        <ele>156.35</ele>
        <time>2015-01-12T16:01:35Z</time>
      </trkpt>
      <trkpt lat="43.33147" lon="2.6874">
        <ele>161.16</ele>
        <time>2015-01-12T16:01:38Z</time>
      </trkpt>
      <trkpt lat="43.33148" lon="2.6874">
        <ele>154.43</ele>
        <time>2015-01-12T16:01:39Z</time>
      </trkpt>
      <trkpt lat="43.33149" lon="2.6874">
        <ele>161.16</ele>
        <time>2015-01-12T16:01:40Z</time>
      </trkpt>
      <trkpt lat="43.3315" lon="2.6874">
        <ele>157.31</ele>
        <time>2015-01-12T16:01:41Z</time>
      </trkpt>
      <trkpt lat="43.33153" lon="2.68744">
        <ele>160.2</ele>
        <time>2015-01-12T16:01:51Z</time>
      </trkpt>
      <trkpt lat="43.33154" lon="2.68745">
        <ele>158.75</ele>
        <time>2015-01-12T16:01:52Z</time>
      </trkpt>
      <trkpt lat="43.33155" lon="2.68747">
        <ele>156.83</ele>
        <time>2015-01-12T16:01:54Z</time>
      </trkpt>
      <trkpt lat="43.33159" lon="2.68752">
        <ele>159.72</ele>
        <time>2015-01-12T16:01:58Z</time>
      </trkpt>
      <trkpt lat="43.33161" lon="2.68753">
        <ele>156.83</ele>
        <time>2015-01-12T16:01:59Z</time>
      </trkpt>
      <trkpt lat="43.33163" lon="2.68755">
        <ele>160.68</ele>
        <time>2015-01-12T16:02:01Z</time>
      </trkpt>
      <trkpt lat="43.33165" lon="2.68756">
        <ele>156.83</ele>
        <time>2015-01-12T16:02:03Z</time>
      </trkpt>
      <trkpt lat="43.33173" lon="2.6876">
        <ele>161.16</ele>
        <time>2015-01-12T16:02:09Z</time>
      </trkpt>
      <trkpt lat="43.33175" lon="2.68761">
        <ele>157.79</ele>
        <time>2015-01-12T16:02:10Z</time>
      </trkpt>
      <trkpt lat="43.33176" lon="2.68762">
        <ele>154.43</ele>
        <time>2015-01-12T16:02:11Z</time>
      </trkpt>
      <trkpt lat="43.33177" lon="2.68762">
        <ele>158.75</ele>
        <time>2015-01-12T16:02:12Z</time>
      </trkpt>
      <trkpt lat="43.33182" lon="2.68768">
        <ele>158.75</ele>
        <time>2015-01-12T16:02:18Z</time>
      </trkpt>
      <trkpt lat="43.33183" lon="2.68769">
        <ele>156.35</ele>
        <time>2015-01-12T16:02:20Z</time>
      </trkpt>
      <trkpt lat="43.33184" lon="2.68775">
        <ele>157.31</ele>
        <time>2015-01-12T16:02:34Z</time>
      </trkpt>
      <trkpt lat="43.33183" lon="2.68781">
        <ele>156.83</ele>
        <time>2015-01-12T16:02:45Z</time>
      </trkpt>
      <trkpt lat="43.33182" lon="2.68785">
        <ele>159.72</ele>
        <time>2015-01-12T16:02:47Z</time>
      </trkpt>
      <trkpt lat="43.33182" lon="2.68786">
        <ele>156.83</ele>
        <time>2015-01-12T16:02:48Z</time>
      </trkpt>
      <trkpt lat="43.33182" lon="2.6879">
        <ele>156.83</ele>
        <time>2015-01-12T16:02:52Z</time>
      </trkpt>
      <trkpt lat="43.33183" lon="2.68794">
        <ele>160.68</ele>
        <time>2015-01-12T16:02:55Z</time>
      </trkpt>
      <trkpt lat="43.33183" lon="2.68795">
        <ele>156.83</ele>
        <time>2015-01-12T16:02:56Z</time>
      </trkpt>
      <trkpt lat="43.33185" lon="2.68805">
        <ele>158.75</ele>
        <time>2015-01-12T16:03:01Z</time>
      </trkpt>
      <trkpt lat="43.33185" lon="2.68806">
        <ele>155.39</ele>
        <time>2015-01-12T16:03:03Z</time>
      </trkpt>
      <trkpt lat="43.33185" lon="2.68807">
        <ele>156.83</ele>
        <time>2015-01-12T16:03:04Z</time>
      </trkpt>
      <trkpt lat="43.33186" lon="2.68808">
        <ele>156.83</ele>
        <time>2015-01-12T16:03:05Z</time>
      </trkpt>
      <trkpt lat="43.33186" lon="2.6881">
        <ele>159.72</ele>
        <time>2015-01-12T16:03:07Z</time>
      </trkpt>
      <trkpt lat="43.33185" lon="2.68811">
        <ele>156.35</ele>
        <time>2015-01-12T16:03:08Z</time>
      </trkpt>
      <trkpt lat="43.33185" lon="2.68813">
        <ele>159.24</ele>
        <time>2015-01-12T16:03:12Z</time>
      </trkpt>
      <trkpt lat="43.33184" lon="2.68813">
        <ele>154.43</ele>
        <time>2015-01-12T16:03:18Z</time>
      </trkpt>
      <trkpt lat="43.33183" lon="2.68813">
        <ele>158.27</ele>
        <time>2015-01-12T16:03:20Z</time>
      </trkpt>
      <trkpt lat="43.33181" lon="2.68814">
        <ele>157.79</ele>
        <time>2015-01-12T16:03:33Z</time>
      </trkpt>
      <trkpt lat="43.33181" lon="2.68814">
        <ele>153.95</ele>
        <time>2015-01-12T16:03:38Z</time>
      </trkpt>
      <trkpt lat="43.33181" lon="2.68814">
        <ele>158.27</ele>
        <time>2015-01-12T16:03:39Z</time>
      </trkpt>
      <trkpt lat="43.33181" lon="2.68815">
        <ele>155.39</ele>
        <time>2015-01-12T16:03:41Z</time>
      </trkpt>
      <trkpt lat="43.33179" lon="2.68819">
        <ele>160.68</ele>
        <time>2015-01-12T16:03:45Z</time>
      </trkpt>
      <trkpt lat="43.33179" lon="2.68821">
        <ele>159.24</ele>
        <time>2015-01-12T16:03:46Z</time>
      </trkpt>
      <trkpt lat="43.33178" lon="2.68822">
        <ele>155.39</ele>
        <time>2015-01-12T16:03:47Z</time>
      </trkpt>
      <trkpt lat="43.33178" lon="2.68823">
        <ele>159.24</ele>
        <time>2015-01-12T16:03:48Z</time>
      </trkpt>
      <trkpt lat="43.33178" lon="2.68826">
        <ele>155.39</ele>
        <time>2015-01-12T16:03:50Z</time>
      </trkpt>
      <trkpt lat="43.33178" lon="2.68828">
        <ele>156.35</ele>
        <time>2015-01-12T16:04:03Z</time>
      </trkpt>
      <trkpt lat="43.33181" lon="2.68829">
        <ele>155.87</ele>
        <time>2015-01-12T16:04:13Z</time>
      </trkpt>
      <trkpt lat="43.33183" lon="2.68831">
        <ele>158.75</ele>
        <time>2015-01-12T16:04:15Z</time>
      </trkpt>
      <trkpt lat="43.33185" lon="2.68833">
        <ele>152.99</ele>
        <time>2015-01-12T16:04:17Z</time>
      </trkpt>
      <trkpt lat="43.33185" lon="2.68834">
        <ele>154.43</ele>
        <time>2015-01-12T16:04:18Z</time>
      </trkpt>
      <trkpt lat="43.33186" lon="2.68839">
        <ele>158.75</ele>
        <time>2015-01-12T16:04:22Z</time>
      </trkpt>
      <trkpt lat="43.33187" lon="2.6884">
        <ele>157.79</ele>
        <time>2015-01-12T16:04:23Z</time>
      </trkpt>
      <trkpt lat="43.33187" lon="2.68841">
        <ele>154.43</ele>
        <time>2015-01-12T16:04:24Z</time>
      </trkpt>
      <trkpt lat="43.33187" lon="2.68842">
        <ele>155.39</ele>
        <time>2015-01-12T16:04:25Z</time>
      </trkpt>
      <trkpt lat="43.33191" lon="2.68847">
        <ele>154.43</ele>
        <time>2015-01-12T16:04:30Z</time>
      </trkpt>
      <trkpt lat="43.33193" lon="2.68848">
        <ele>152.03</ele>
        <time>2015-01-12T16:04:31Z</time>
      </trkpt>
      <trkpt lat="43.33208" lon="2.68861">
        <ele>158.27</ele>
        <time>2015-01-12T16:04:45Z</time>
      </trkpt>
      <trkpt lat="43.3321" lon="2.68862">
        <ele>153.95</ele>
        <time>2015-01-12T16:04:47Z</time>
      </trkpt>
      <trkpt lat="43.3322" lon="2.6887">
        <ele>155.39</ele>
        <time>2015-01-12T16:04:59Z</time>
      </trkpt>
      <trkpt lat="43.33222" lon="2.68871">
        <ele>152.99</ele>
        <time>2015-01-12T16:05:01Z</time>
      </trkpt>
      <trkpt lat="43.33225" lon="2.68874">
        <ele>157.31</ele>
        <time>2015-01-12T16:05:04Z</time>
      </trkpt>
      <trkpt lat="43.33226" lon="2.68875">
        <ele>153.95</ele>
        <time>2015-01-12T16:05:05Z</time>
      </trkpt>
      <trkpt lat="43.33228" lon="2.68877">
        <ele>148.66</ele>
        <time>2015-01-12T16:05:07Z</time>
      </trkpt>
      <trkpt lat="43.33229" lon="2.68879">
        <ele>149.62</ele>
        <time>2015-01-12T16:05:08Z</time>
      </trkpt>
      <trkpt lat="43.3323" lon="2.68882">
        <ele>154.43</ele>
        <time>2015-01-12T16:05:10Z</time>
      </trkpt>
      <trkpt lat="43.3323" lon="2.68883">
        <ele>153.47</ele>
        <time>2015-01-12T16:05:11Z</time>
      </trkpt>
      <trkpt lat="43.33231" lon="2.68886">
        <ele>150.1</ele>
        <time>2015-01-12T16:05:13Z</time>
      </trkpt>
      <trkpt lat="43.33232" lon="2.68895">
        <ele>154.43</ele>
        <time>2015-01-12T16:05:20Z</time>
      </trkpt>
      <trkpt lat="43.33232" lon="2.68897">
        <ele>150.1</ele>
        <time>2015-01-12T16:05:22Z</time>
      </trkpt>
      <trkpt lat="43.33232" lon="2.68898">
        <ele>153.47</ele>
        <time>2015-01-12T16:05:23Z</time>
      </trkpt>
      <trkpt lat="43.33233" lon="2.68902">
        <ele>149.62</ele>
        <time>2015-01-12T16:05:26Z</time>
      </trkpt>
      <trkpt lat="43.33233" lon="2.68904">
        <ele>150.1</ele>
        <time>2015-01-12T16:05:27Z</time>
      </trkpt>
      <trkpt lat="43.33233" lon="2.68907">
        <ele>154.43</ele>
        <time>2015-01-12T16:05:30Z</time>
      </trkpt>
      <trkpt lat="43.33233" lon="2.68908">
        <ele>153.47</ele>
        <time>2015-01-12T16:05:31Z</time>
      </trkpt>
      <trkpt lat="43.33233" lon="2.68911">
        <ele>151.06</ele>
        <time>2015-01-12T16:05:33Z</time>
      </trkpt>
      <trkpt lat="43.33233" lon="2.68918">
        <ele>152.03</ele>
        <time>2015-01-12T16:05:38Z</time>
      </trkpt>
      <trkpt lat="43.33238" lon="2.68937">
        <ele>152.03</ele>
        <time>2015-01-12T16:05:53Z</time>
      </trkpt>
      <trkpt lat="43.33238" lon="2.68938">
        <ele>148.66</ele>
        <time>2015-01-12T16:05:54Z</time>
      </trkpt>
      <trkpt lat="43.33239" lon="2.68939">
        <ele>149.62</ele>
        <time>2015-01-12T16:05:55Z</time>
      </trkpt>
      <trkpt lat="43.33242" lon="2.68949">
        <ele>153.47</ele>
        <time>2015-01-12T16:06:01Z</time>
      </trkpt>
      <trkpt lat="43.33242" lon="2.6895">
        <ele>150.1</ele>
        <time>2015-01-12T16:06:02Z</time>
      </trkpt>
      <trkpt lat="43.33242" lon="2.68953">
        <ele>149.62</ele>
        <time>2015-01-12T16:06:04Z</time>
      </trkpt>
      <trkpt lat="43.33243" lon="2.68957">
        <ele>152.99</ele>
        <time>2015-01-12T16:06:07Z</time>
      </trkpt>
      <trkpt lat="43.33243" lon="2.6896">
        <ele>149.14</ele>
        <time>2015-01-12T16:06:09Z</time>
      </trkpt>
      <trkpt lat="43.33243" lon="2.68961">
        <ele>149.14</ele>
        <time>2015-01-12T16:06:10Z</time>
      </trkpt>
      <trkpt lat="43.33244" lon="2.68972">
        <ele>152.51</ele>
        <time>2015-01-12T16:06:17Z</time>
      </trkpt>
      <trkpt lat="43.33245" lon="2.68974">
        <ele>149.14</ele>
        <time>2015-01-12T16:06:19Z</time>
      </trkpt>
      <trkpt lat="43.33245" lon="2.68977">
        <ele>148.18</ele>
        <time>2015-01-12T16:06:21Z</time>
      </trkpt>
      <trkpt lat="43.33247" lon="2.68981">
        <ele>149.14</ele>
        <time>2015-01-12T16:06:25Z</time>
      </trkpt>
      <trkpt lat="43.33248" lon="2.68984">
        <ele>149.14</ele>
        <time>2015-01-12T16:06:27Z</time>
      </trkpt>
      <trkpt lat="43.33249" lon="2.68984">
        <ele>153.47</ele>
        <time>2015-01-12T16:06:28Z</time>
      </trkpt>
      <trkpt lat="43.3325" lon="2.68985">
        <ele>148.66</ele>
        <time>2015-01-12T16:06:29Z</time>
      </trkpt>
      <trkpt lat="43.33251" lon="2.68985">
        <ele>152.51</ele>
        <time>2015-01-12T16:06:30Z</time>
      </trkpt>
      <trkpt lat="43.33251" lon="2.68984">
        <ele>148.66</ele>
        <time>2015-01-12T16:06:31Z</time>
      </trkpt>
      <trkpt lat="43.33252" lon="2.68985">
        <ele>155.39</ele>
        <time>2015-01-12T16:06:34Z</time>
      </trkpt>
      <trkpt lat="43.33253" lon="2.68985">
        <ele>150.1</ele>
        <time>2015-01-12T16:06:35Z</time>
      </trkpt>
      <trkpt lat="43.33253" lon="2.68985">
        <ele>149.62</ele>
        <time>2015-01-12T16:06:36Z</time>
      </trkpt>
      <trkpt lat="43.33255" lon="2.68989">
        <ele>152.03</ele>
        <time>2015-01-12T16:07:04Z</time>
      </trkpt>
      <trkpt lat="43.33255" lon="2.68988">
        <ele>148.18</ele>
        <time>2015-01-12T16:07:06Z</time>
      </trkpt>
      <trkpt lat="43.33254" lon="2.68988">
        <ele>147.7</ele>
        <time>2015-01-12T16:07:10Z</time>
      </trkpt>
      <trkpt lat="43.3325" lon="2.68999">
        <ele>152.99</ele>
        <time>2015-01-12T16:07:17Z</time>
      </trkpt>
      <trkpt lat="43.3325" lon="2.69001">
        <ele>152.03</ele>
        <time>2015-01-12T16:07:18Z</time>
      </trkpt>
      <trkpt lat="43.3325" lon="2.69003">
        <ele>147.7</ele>
        <time>2015-01-12T16:07:20Z</time>
      </trkpt>
      <trkpt lat="43.33249" lon="2.69006">
        <ele>151.54</ele>
        <time>2015-01-12T16:07:22Z</time>
      </trkpt>
      <trkpt lat="43.33248" lon="2.69007">
        <ele>151.54</ele>
        <time>2015-01-12T16:07:23Z</time>
      </trkpt>
      <trkpt lat="43.33247" lon="2.69009">
        <ele>148.66</ele>
        <time>2015-01-12T16:07:24Z</time>
      </trkpt>
      <trkpt lat="43.33245" lon="2.69014">
        <ele>147.22</ele>
        <time>2015-01-12T16:07:29Z</time>
      </trkpt>
      <trkpt lat="43.33244" lon="2.69016">
        <ele>151.54</ele>
        <time>2015-01-12T16:07:32Z</time>
      </trkpt>
      <trkpt lat="43.33244" lon="2.69018">
        <ele>150.1</ele>
        <time>2015-01-12T16:07:33Z</time>
      </trkpt>
      <trkpt lat="43.33244" lon="2.6902">
        <ele>148.66</ele>
        <time>2015-01-12T16:07:35Z</time>
      </trkpt>
      <trkpt lat="43.33243" lon="2.69022">
        <ele>150.58</ele>
        <time>2015-01-12T16:07:37Z</time>
      </trkpt>
      <trkpt lat="43.33241" lon="2.69023">
        <ele>147.22</ele>
        <time>2015-01-12T16:07:39Z</time>
      </trkpt>
      <trkpt lat="43.33238" lon="2.69025">
        <ele>146.26</ele>
        <time>2015-01-12T16:07:41Z</time>
      </trkpt>
      <trkpt lat="43.33227" lon="2.69032">
        <ele>149.62</ele>
        <time>2015-01-12T16:07:46Z</time>
      </trkpt>
      <trkpt lat="43.33219" lon="2.69035">
        <ele>150.58</ele>
        <time>2015-01-12T16:07:51Z</time>
      </trkpt>
      <trkpt lat="43.33215" lon="2.69033">
        <ele>145.3</ele>
        <time>2015-01-12T16:07:54Z</time>
      </trkpt>
      <trkpt lat="43.33214" lon="2.69033">
        <ele>148.66</ele>
        <time>2015-01-12T16:07:55Z</time>
      </trkpt>
      <trkpt lat="43.33199" lon="2.69029">
        <ele>147.7</ele>
        <time>2015-01-12T16:08:05Z</time>
      </trkpt>
      <trkpt lat="43.33194" lon="2.69036">
        <ele>148.66</ele>
        <time>2015-01-12T16:08:10Z</time>
      </trkpt>
      <trkpt lat="43.33191" lon="2.6906">
        <ele>147.22</ele>
        <time>2015-01-12T16:08:24Z</time>
      </trkpt>
      <trkpt lat="43.33192" lon="2.6907">
        <ele>146.74</ele>
        <time>2015-01-12T16:08:35Z</time>
      </trkpt>
      <trkpt lat="43.33193" lon="2.6907">
        <ele>145.78</ele>
        <time>2015-01-12T16:09:04Z</time>
      </trkpt>
      <trkpt lat="43.33193" lon="2.6907">
        <ele>145.78</ele>
        <time>2015-01-12T16:09:31Z</time>
      </trkpt>
      <trkpt lat="43.33194" lon="2.69078">
        <ele>145.78</ele>
        <time>2015-01-12T16:09:40Z</time>
      </trkpt>
      <trkpt lat="43.33191" lon="2.69091">
        <ele>145.78</ele>
        <time>2015-01-12T16:09:48Z</time>
      </trkpt>
      <trkpt lat="43.33177" lon="2.69117">
        <ele>143.37</ele>
        <time>2015-01-12T16:10:04Z</time>
      </trkpt>
      <trkpt lat="43.33168" lon="2.69127">
        <ele>143.37</ele>
        <time>2015-01-12T16:10:16Z</time>
      </trkpt>
      <trkpt lat="43.33154" lon="2.69156">
        <ele>141.93</ele>
        <time>2015-01-12T16:10:32Z</time>
      </trkpt>
      <trkpt lat="43.33143" lon="2.69176">
        <ele>140.97</ele>
        <time>2015-01-12T16:10:46Z</time>
      </trkpt>
      <trkpt lat="43.33141" lon="2.69177">
        <ele>140.97</ele>
        <time>2015-01-12T16:10:48Z</time>
      </trkpt>
      <trkpt lat="43.33119" lon="2.69186">
        <ele>140.01</ele>
        <time>2015-01-12T16:11:02Z</time>
      </trkpt>
      <trkpt lat="43.33103" lon="2.69196">
        <ele>138.57</ele>
        <time>2015-01-12T16:11:11Z</time>
      </trkpt>
      <trkpt lat="43.33094" lon="2.69205">
        <ele>138.09</ele>
        <time>2015-01-12T16:11:16Z</time>
      </trkpt>
      <trkpt lat="43.33073" lon="2.6923">
        <ele>138.09</ele>
        <time>2015-01-12T16:11:33Z</time>
      </trkpt>
      <trkpt lat="43.33062" lon="2.69249">
        <ele>137.61</ele>
        <time>2015-01-12T16:11:46Z</time>
      </trkpt>
      <trkpt lat="43.33051" lon="2.69272">
        <ele>136.16</ele>
        <time>2015-01-12T16:12:01Z</time>
      </trkpt>
      <trkpt lat="43.33038" lon="2.69297">
        <ele>136.16</ele>
        <time>2015-01-12T16:12:16Z</time>
      </trkpt>
      <trkpt lat="43.33022" lon="2.69309">
        <ele>133.76</ele>
        <time>2015-01-12T16:12:27Z</time>
      </trkpt>
      <trkpt lat="43.33019" lon="2.69323">
        <ele>133.76</ele>
        <time>2015-01-12T16:12:32Z</time>
      </trkpt>
      <trkpt lat="43.32995" lon="2.69346">
        <ele>132.32</ele>
        <time>2015-01-12T16:12:51Z</time>
      </trkpt>
      <trkpt lat="43.32975" lon="2.69358">
        <ele>132.8</ele>
        <time>2015-01-12T16:13:05Z</time>
      </trkpt>
      <trkpt lat="43.32968" lon="2.69363">
        <ele>132.32</ele>
        <time>2015-01-12T16:13:12Z</time>
      </trkpt>
      <trkpt lat="43.32965" lon="2.69366">
        <ele>131.36</ele>
        <time>2015-01-12T16:13:14Z</time>
      </trkpt>
      <trkpt lat="43.3296" lon="2.69375">
        <ele>131.36</ele>
        <time>2015-01-12T16:13:26Z</time>
      </trkpt>
      <trkpt lat="43.3296" lon="2.69375">
        <ele>132.32</ele>
        <time>2015-01-12T16:13:34Z</time>
      </trkpt>
      <trkpt lat="43.32958" lon="2.69379">
        <ele>132.32</ele>
        <time>2015-01-12T16:13:37Z</time>
      </trkpt>
      <trkpt lat="43.32956" lon="2.69387">
        <ele>132.32</ele>
        <time>2015-01-12T16:13:43Z</time>
      </trkpt>
      <trkpt lat="43.32955" lon="2.69393">
        <ele>132.32</ele>
        <time>2015-01-12T16:13:46Z</time>
      </trkpt>
      <trkpt lat="43.32952" lon="2.69415">
        <ele>132.32</ele>
        <time>2015-01-12T16:13:59Z</time>
      </trkpt>
      <trkpt lat="43.3295" lon="2.69424">
        <ele>132.32</ele>
        <time>2015-01-12T16:14:04Z</time>
      </trkpt>
      <trkpt lat="43.32939" lon="2.69442">
        <ele>130.88</ele>
        <time>2015-01-12T16:14:16Z</time>
      </trkpt>
      <trkpt lat="43.32936" lon="2.69445">
        <ele>130.88</ele>
        <time>2015-01-12T16:14:19Z</time>
      </trkpt>
      <trkpt lat="43.32922" lon="2.69456">
        <ele>129.92</ele>
        <time>2015-01-12T16:14:31Z</time>
      </trkpt>
      <trkpt lat="43.32917" lon="2.6947">
        <ele>129.43</ele>
        <time>2015-01-12T16:14:39Z</time>
      </trkpt>
      <trkpt lat="43.32916" lon="2.69479">
        <ele>128.95</ele>
        <time>2015-01-12T16:14:44Z</time>
      </trkpt>
      <trkpt lat="43.32915" lon="2.69484">
        <ele>128.95</ele>
        <time>2015-01-12T16:14:47Z</time>
      </trkpt>
      <trkpt lat="43.32915" lon="2.69507">
        <ele>127.99</ele>
        <time>2015-01-12T16:15:01Z</time>
      </trkpt>
      <trkpt lat="43.32915" lon="2.69516">
        <ele>128.47</ele>
        <time>2015-01-12T16:15:06Z</time>
      </trkpt>
      <trkpt lat="43.32915" lon="2.69523">
        <ele>127.99</ele>
        <time>2015-01-12T16:15:10Z</time>
      </trkpt>
      <trkpt lat="43.32916" lon="2.69526">
        <ele>128.47</ele>
        <time>2015-01-12T16:15:12Z</time>
      </trkpt>
      <trkpt lat="43.32918" lon="2.69531">
        <ele>127.51</ele>
        <time>2015-01-12T16:15:15Z</time>
      </trkpt>
      <trkpt lat="43.32917" lon="2.69538">
        <ele>126.55</ele>
        <time>2015-01-12T16:15:18Z</time>
      </trkpt>
      <trkpt lat="43.32918" lon="2.69542">
        <ele>127.51</ele>
        <time>2015-01-12T16:15:21Z</time>
      </trkpt>
      <trkpt lat="43.32918" lon="2.69546">
        <ele>127.99</ele>
        <time>2015-01-12T16:15:23Z</time>
      </trkpt>
      <trkpt lat="43.32917" lon="2.6955">
        <ele>127.51</ele>
        <time>2015-01-12T16:15:25Z</time>
      </trkpt>
      <trkpt lat="43.32915" lon="2.69559">
        <ele>127.51</ele>
        <time>2015-01-12T16:15:30Z</time>
      </trkpt>
      <trkpt lat="43.3291" lon="2.69575">
        <ele>126.07</ele>
        <time>2015-01-12T16:15:40Z</time>
      </trkpt>
      <trkpt lat="43.32906" lon="2.69585">
        <ele>125.59</ele>
        <time>2015-01-12T16:15:47Z</time>
      </trkpt>
      <trkpt lat="43.32901" lon="2.69593">
        <ele>124.63</ele>
        <time>2015-01-12T16:15:52Z</time>
      </trkpt>
      <trkpt lat="43.3289" lon="2.69596">
        <ele>124.63</ele>
        <time>2015-01-12T16:16:01Z</time>
      </trkpt>
      <trkpt lat="43.32866" lon="2.6959">
        <ele>123.67</ele>
        <time>2015-01-12T16:16:17Z</time>
      </trkpt>
      <trkpt lat="43.32842" lon="2.69585">
        <ele>123.19</ele>
        <time>2015-01-12T16:16:33Z</time>
      </trkpt>
      <trkpt lat="43.32815" lon="2.69582">
        <ele>121.26</ele>
        <time>2015-01-12T16:16:46Z</time>
      </trkpt>
      <trkpt lat="43.32794" lon="2.69582">
        <ele>120.78</ele>
        <time>2015-01-12T16:16:54Z</time>
      </trkpt>
      <trkpt lat="43.32775" lon="2.6958">
        <ele>120.78</ele>
        <time>2015-01-12T16:17:07Z</time>
      </trkpt>
      <trkpt lat="43.32753" lon="2.69576">
        <ele>118.86</ele>
        <time>2015-01-12T16:17:20Z</time>
      </trkpt>
      <trkpt lat="43.3273" lon="2.69572">
        <ele>117.9</ele>
        <time>2015-01-12T16:17:29Z</time>
      </trkpt>
      <trkpt lat="43.32728" lon="2.69572">
        <ele>116.94</ele>
        <time>2015-01-12T16:17:30Z</time>
      </trkpt>
      <trkpt lat="43.32713" lon="2.69569">
        <ele>117.42</ele>
        <time>2015-01-12T16:17:36Z</time>
      </trkpt>
      <trkpt lat="43.32701" lon="2.69569">
        <ele>117.42</ele>
        <time>2015-01-12T16:17:44Z</time>
      </trkpt>
      <trkpt lat="43.32696" lon="2.69568">
        <ele>116.94</ele>
        <time>2015-01-12T16:17:47Z</time>
      </trkpt>
      <trkpt lat="43.32691" lon="2.69564">
        <ele>116.94</ele>
        <time>2015-01-12T16:17:52Z</time>
      </trkpt>
      <trkpt lat="43.3268" lon="2.69546">
        <ele>115.98</ele>
        <time>2015-01-12T16:18:04Z</time>
      </trkpt>
      <trkpt lat="43.32674" lon="2.69533">
        <ele>115.5</ele>
        <time>2015-01-12T16:18:12Z</time>
      </trkpt>
      <trkpt lat="43.32673" lon="2.69528">
        <ele>114.53</ele>
        <time>2015-01-12T16:18:15Z</time>
      </trkpt>
      <trkpt lat="43.32669" lon="2.69521">
        <ele>115.01</ele>
        <time>2015-01-12T16:18:20Z</time>
      </trkpt>
      <trkpt lat="43.32656" lon="2.695">
        <ele>113.57</ele>
        <time>2015-01-12T16:18:33Z</time>
      </trkpt>
      <trkpt lat="43.32651" lon="2.69493">
        <ele>113.09</ele>
        <time>2015-01-12T16:18:38Z</time>
      </trkpt>
      <trkpt lat="43.32644" lon="2.69485">
        <ele>113.09</ele>
        <time>2015-01-12T16:18:46Z</time>
      </trkpt>
      <trkpt lat="43.32641" lon="2.69483">
        <ele>113.09</ele>
        <time>2015-01-12T16:18:48Z</time>
      </trkpt>
      <trkpt lat="43.3263" lon="2.6947">
        <ele>111.65</ele>
        <time>2015-01-12T16:18:58Z</time>
      </trkpt>
      <trkpt lat="43.32615" lon="2.69442">
        <ele>110.21</ele>
        <time>2015-01-12T16:19:13Z</time>
      </trkpt>
      <trkpt lat="43.32611" lon="2.69433">
        <ele>110.21</ele>
        <time>2015-01-12T16:19:18Z</time>
      </trkpt>
      <trkpt lat="43.32606" lon="2.69426">
        <ele>109.73</ele>
        <time>2015-01-12T16:19:26Z</time>
      </trkpt>
      <trkpt lat="43.32597" lon="2.69432">
        <ele>109.25</ele>
        <time>2015-01-12T16:19:37Z</time>
      </trkpt>
      <trkpt lat="43.32582" lon="2.69452">
        <ele>108.29</ele>
        <time>2015-01-12T16:19:51Z</time>
      </trkpt>
      <trkpt lat="43.32576" lon="2.69463">
        <ele>107.81</ele>
        <time>2015-01-12T16:19:58Z</time>
      </trkpt>
      <trkpt lat="43.32569" lon="2.6947">
        <ele>106.36</ele>
        <time>2015-01-12T16:20:12Z</time>
      </trkpt>
      <trkpt lat="43.32564" lon="2.69479">
        <ele>106.36</ele>
        <time>2015-01-12T16:20:15Z</time>
      </trkpt>
      <trkpt lat="43.32559" lon="2.69485">
        <ele>106.84</ele>
        <time>2015-01-12T16:20:21Z</time>
      </trkpt>
      <trkpt lat="43.32555" lon="2.69486">
        <ele>106.84</ele>
        <time>2015-01-12T16:20:24Z</time>
      </trkpt>
      <trkpt lat="43.32534" lon="2.69483">
        <ele>106.36</ele>
        <time>2015-01-12T16:20:34Z</time>
      </trkpt>
      <trkpt lat="43.32531" lon="2.69483">
        <ele>106.36</ele>
        <time>2015-01-12T16:20:36Z</time>
      </trkpt>
      <trkpt lat="43.32507" lon="2.69483">
        <ele>104.44</ele>
        <time>2015-01-12T16:20:50Z</time>
      </trkpt>
      <trkpt lat="43.32492" lon="2.69474">
        <ele>103.96</ele>
        <time>2015-01-12T16:21:01Z</time>
      </trkpt>
      <trkpt lat="43.3249" lon="2.69473">
        <ele>103.48</ele>
        <time>2015-01-12T16:21:03Z</time>
      </trkpt>
      <trkpt lat="43.32487" lon="2.69469">
        <ele>103.48</ele>
        <time>2015-01-12T16:21:07Z</time>
      </trkpt>
      <trkpt lat="43.32482" lon="2.69469">
        <ele>102.52</ele>
        <time>2015-01-12T16:21:12Z</time>
      </trkpt>
      <trkpt lat="43.3248" lon="2.69467">
        <ele>102.52</ele>
        <time>2015-01-12T16:21:14Z</time>
      </trkpt>
      <trkpt lat="43.32478" lon="2.69465">
        <ele>102.04</ele>
        <time>2015-01-12T16:21:16Z</time>
      </trkpt>
      <trkpt lat="43.3247" lon="2.69461">
        <ele>101.56</ele>
        <time>2015-01-12T16:21:27Z</time>
      </trkpt>
      <trkpt lat="43.32461" lon="2.69451">
        <ele>102.04</ele>
        <time>2015-01-12T16:21:40Z</time>
      </trkpt>
      <trkpt lat="43.32458" lon="2.69446">
        <ele>102.04</ele>
        <time>2015-01-12T16:22:08Z</time>
      </trkpt>
      <trkpt lat="43.32458" lon="2.69446">
        <ele>102.04</ele>
        <time>2015-01-12T16:22:15Z</time>
      </trkpt>
      <trkpt lat="43.3246" lon="2.69445">
        <ele>101.08</ele>
        <time>2015-01-12T16:22:19Z</time>
      </trkpt>
      <trkpt lat="43.32459" lon="2.69443">
        <ele>101.56</ele>
        <time>2015-01-12T16:22:21Z</time>
      </trkpt>
      <trkpt lat="43.32457" lon="2.69441">
        <ele>101.08</ele>
        <time>2015-01-12T16:22:23Z</time>
      </trkpt>
      <trkpt lat="43.32453" lon="2.69436">
        <ele>101.08</ele>
        <time>2015-01-12T16:22:27Z</time>
      </trkpt>
      <trkpt lat="43.32444" lon="2.69429">
        <ele>99.15</ele>
        <time>2015-01-12T16:22:31Z</time>
      </trkpt>
      <trkpt lat="43.3244" lon="2.69425">
        <ele>99.63</ele>
        <time>2015-01-12T16:22:33Z</time>
      </trkpt>
      <trkpt lat="43.32432" lon="2.69417">
        <ele>99.63</ele>
        <time>2015-01-12T16:22:41Z</time>
      </trkpt>
      <trkpt lat="43.32431" lon="2.69413">
        <ele>99.15</ele>
        <time>2015-01-12T16:22:51Z</time>
      </trkpt>
      <trkpt lat="43.32432" lon="2.69412">
        <ele>99.63</ele>
        <time>2015-01-12T16:23:04Z</time>
      </trkpt>
      <trkpt lat="43.32433" lon="2.6941">
        <ele>99.63</ele>
        <time>2015-01-12T16:23:15Z</time>
      </trkpt>
      <trkpt lat="43.32433" lon="2.69413">
        <ele>99.63</ele>
        <time>2015-01-12T16:23:26Z</time>
      </trkpt>
      <trkpt lat="43.32432" lon="2.69412">
        <ele>99.63</ele>
        <time>2015-01-12T16:23:38Z</time>
      </trkpt>
      <trkpt lat="43.32434" lon="2.69412">
        <ele>99.15</ele>
        <time>2015-01-12T16:23:49Z</time>
      </trkpt>
      <trkpt lat="43.32434" lon="2.69412">
        <ele>95.79</ele>
        <time>2015-01-12T16:23:51Z</time>
      </trkpt>
      <trkpt lat="43.32434" lon="2.69412">
        <ele>100.6</ele>
        <time>2015-01-12T16:23:52Z</time>
      </trkpt>
      <trkpt lat="43.32434" lon="2.69412">
        <ele>98.67</ele>
        <time>2015-01-12T16:23:53Z</time>
      </trkpt>
      <trkpt lat="43.32434" lon="2.69411">
        <ele>99.63</ele>
        <time>2015-01-12T16:24:22Z</time>
      </trkpt>
      <trkpt lat="43.32434" lon="2.69411">
        <ele>99.63</ele>
        <time>2015-01-12T16:24:43Z</time>
      </trkpt>
      <trkpt lat="43.32434" lon="2.69411">
        <ele>92.42</ele>
        <time>2015-01-12T16:24:48Z</time>
      </trkpt>
      <trkpt lat="43.32434" lon="2.69411">
        <ele>100.6</ele>
        <time>2015-01-12T16:24:49Z</time>
      </trkpt>
      <trkpt lat="43.32434" lon="2.69411">
        <ele>98.67</ele>
        <time>2015-01-12T16:25:04Z</time>
      </trkpt>
      <trkpt lat="43.32434" lon="2.69411">
        <ele>99.63</ele>
        <time>2015-01-12T16:25:06Z</time>
      </trkpt>
      <trkpt lat="43.32434" lon="2.69411">
        <ele>93.39</ele>
        <time>2015-01-12T16:25:13Z</time>
      </trkpt>
      <trkpt lat="43.32434" lon="2.69411">
        <ele>102.04</ele>
        <time>2015-01-12T16:25:14Z</time>
      </trkpt>
      <trkpt lat="43.32434" lon="2.69411">
        <ele>105.4</ele>
        <time>2015-01-12T16:25:17Z</time>
      </trkpt>
      <trkpt lat="43.32434" lon="2.69411">
        <ele>98.19</ele>
        <time>2015-01-12T16:25:18Z</time>
      </trkpt>
    </trkseg>
  </trk>
</gpx>